     2.10           OBSERVATION DATA    G (GPS)             RINEX VERSION / TYPE
teqc 2003Nov3 GPS Data Processor 20031211 22:42:46UTC       PGM / RUN BY / DATE
Solaris 2.7|Ultra 2|cc SC5.0|=+-|*Sparc                     COMMENT
2 OBSERVATION DATA                                          COMMENT
ASRINEXO V2.2.0 UX USGS 17-OCT-94 16:29                     COMMENT
HI'S ARE VERT TO BASE OF ANTENNA                            COMMENT
poir Poison_Rock_1942_USC&GS                                MARKER NAME
                                                            MARKER NUMBER
JLS USGS                                                    OBSERVER / AGENCY
763 ASHTECH L-XII 6b                                        REC # / TYPE / VERS
1026 ASH700228A NONE                                        ANT # / TYPE
 -2678189.0000 -4119185.0000  4055942.0000                  APPROX POSITION XYZ
        1.2101        0.0000        0.0000                  ANTENNA: DELTA H/E/N
     1     1                                                WAVELENGTH FACT L1/2
     3    L1    L2    C1                                    # / TYPES OF OBSERV
    30.0000                                                 INTERVAL
                                                            COMMENT
Receiver type modified to reflect codeless receiver         COMMENT
Original receiver designation: ASHTECH LM-XII3              COMMENT
                                                            COMMENT
                                                            COMMENT
  1992     5     9     1    40   30.0000000     GPS         TIME OF FIRST OBS
                                                            END OF HEADER
 92  5  9  1 40 30.0000000  0  3G13G16G24
     86332.814 6     67272.65621  23297907.681
    -82733.586 5    -64467.52722  24186145.996
     12320.072 8      9599.93129  20704465.186
 92  5  9  1 41  0.0000000  0  3G13G16G24
    174318.564 6    135832.99021  23314649.315
   -167079.618 5   -130191.48822  24170096.577
     25376.129 8     19773.50529  20706949.573
 92  5  9  1 41 30.0010000  0  4G13G16G20G24
    262365.009 6    204440.59223  23331402.592
   -251351.653 6   -195857.81522  24154060.685
   -225763.699 8   -175919.88024  22775113.104
     38993.415 8     30384.39429  20709541.579
 92  5  9  1 42  0.0000000  0  5G13G16G12G20G24
    350500.583 6    273117.58423  23348172.091
   -335506.209 5   -261432.61322  24437840.921
    170109.275 8    132552.80426  21804718.201
   -301781.396 8   -235154.37925  22460854.764
     53189.837 8     41446.56029  20712240.619
 92  5  9  1 42 30.0000000  0  5G13G16G12G20G24
    438731.505 6    341868.89722  23364968.275
   -419534.541 5   -326909.03721  24421851.810
    249521.384 8    194432.32226  21819829.252
   -377512.628 8   -294165.67226  22446441.652
     67961.625 8     52957.05629  20715052.058
 92  5  9  1 43  0.0000000  0  5G13G16G12G20G24
    527017.392 6    410663.15021  23381765.645
   -503455.911 5   -392302.10022  24405880.673
    329463.177 8    256724.59326  21835041.619
   -452988.890 7   -352978.29026  22432077.087
     83267.682 9     64883.87429  20717968.164
 92  5  9  1 43 30.0000000  0  5G13G16G12G20G24
    615361.132 6    479502.41723  23398577.987
   -587270.044 5   -457611.62822  24389925.102
    409935.993 8    319430.65526  21850354.115
   -528204.000 8   -411587.39525  22417766.198
     99114.974 9     77232.42429  20720983.457
 92  5  9  1 44  0.0000000  0  5G13G16G12G20G24
    703774.664 6    548396.00322  23415399.962
   -670962.052 5   -522825.98123  24374003.732
    490949.867 8    382558.29226  21865770.929
   -603143.475 8   -469981.72725  22403503.263
    115522.576 9     90017.58029  20724107.011
 92  5  9  1 44 30.0000000  0  5G13G16G12G20G24
    792261.751 6    617346.90821  23432239.597
   -754532.507 5   -587945.57422  24358100.023
    572507.585 8    446109.71526  21881295.410
   -677800.049 8   -528155.62326  22389298.227
    132496.785 9    103244.23929  20727335.476
 92  5  9  1 45  0.0000000  0  5G13G16G12G20G24
    880826.934 6    686358.77423  23449092.145
   -837987.131 5   -652974.99523  24342223.047
    654612.154 8    510087.24826  21896914.891
   -752166.452 8   -586103.41225  22375148.613
    150050.545 9    116922.51929  20730675.168
 92  5  9  1 45 30.0000000  0  5G13G16G12G20G24
    969463.615 6    755426.29822  23465956.070
   -921328.841 6   -717916.42523  24326361.008
    737255.098 8    574484.32126  21912641.411
   -826246.177 8   -643827.82325  22361050.268
    168189.824 9    131057.02429  20734127.554
 92  5  9  1 46  0.0010000  0  5G13G16G12G20G24
   1058165.421 6    824544.54022  23482839.176
  -1004554.583 5   -782767.47022  24310515.184
    820429.312 8    639295.34326  21928473.142
   -900046.899 8   -701334.83325  22347006.772
    186902.403 9    145638.26929  20737687.315
 92  5  9  1 46 30.0010000  0  5G13G16G12G20G24
   1146919.153 6    893703.1462   23499733.989
  -1087662.104 5   -847526.33021  24294707.730
    904119.932 8    704508.75526  21944398.106
   -973568.143 8   -758624.06526  22333016.060
    206187.021 9    160665.24629  20741354.652
 92  5  9  1 47  0.0010000  0  5G13G16G12G20G24
   1235719.755 6    962898.57822  23516626.986
  -1170655.108 6   -912196.02522  24278915.248
    988320.116 7    770119.23626  21960416.603
  -1046817.386 8   -815701.34925  22319076.338
    226047.929 9    176141.29829  20745135.626
 92  5  9  1 47 30.0010000  0  5G13G16G12G20G24
   1324565.463 6   1032128.91724  23533534.677
  -1253521.288 5   -976766.95322  24263149.779
   1073026.486 8    836124.14626  21976534.950
  -1119793.706 8   -872565.97425  22305187.849
    246474.888 9    192058.40229  20749023.953
 92  5  9  1 48  0.0010000  0  5G13G16G12G20G24
   1413458.182 6   1101395.89823  23550451.057
  -1336259.701 5  -1041238.22722  24247392.372
   1158239.049 8    902523.48825  21992757.336
  -1192491.903 8   -929213.88526  22291355.725
    267467.741 9    208416.47829  20753016.877
 92  5  9  1 48 30.0010000  0  5G13G16G12G20G24
   1502392.262 6   1170695.14922  23567376.442
  -1418885.844 5  -1105622.07024  24231670.668
   1243950.488 8    969311.59226  22009064.250
  -1264914.593 8   -985647.11726  22277575.462
    289029.207 9    225217.63129  20757121.029
 92  5  9  1 49  0.0010000  0  5G13G16G12G20G24
   1591366.067 6   1240025.47721  23584307.237
  -1501405.010 6  -1169922.52822  24215973.220
   1330157.862 8   1036486.11026  22025467.699
  -1337060.317 8  -1041864.52626  22263844.654
    311145.084 9    242450.78929  20761329.533
 92  5  9  1 49 30.0010000  0  5G13G16G12G20G24
   1680382.623 6   1309388.93422  23601242.184
  -1583813.062 5  -1234136.43023  24200291.686
   1416862.924 8   1104048.43225  22041969.463
  -1408922.345 8  -1097860.89126  22250169.930
    333795.744 9    260100.66429  20765638.131
 92  5  9  1 50  0.0010000  0  5G13G16G12G20G24
   1769441.444 6   1378785.36521  23618190.080
  -1666109.968 5  -1298263.70622  24184625.439
   1504063.045 8   1171996.51826  22058559.071
  -1480498.281 8  -1153634.31425  22236551.257
    356982.472 9    278168.24229  20770052.582
 92  5  9  1 50 30.0010000  0  5G13G16G12G20G24
   1858539.701 6   1448212.55622  23635145.724
  -1748283.999 5  -1362295.21822  24168994.267
   1591753.495 8   1240326.70125  22075253.624
  -1551788.318 8  -1209184.97225  22222986.539
    380696.714 9    296646.88729  20774565.662
 92  5  9  1 51  0.0010000  0  6G13G16G12G20G24G 3
   1947679.059 6   1517671.75422  23652104.683
  -1830309.316 6  -1426210.91023  24153384.070
   1679934.524 8   1309039.14025  22092031.799
  -1622787.212 8  -1264508.75726  22209474.591
    404926.945 9    315527.58529  20779174.684
   -167804.566 4   -130756.60222  25098958.251
 92  5  9  1 51 30.0010000  0  6G13G16G12G20G24G 3
   2036857.723 6   1587161.55624  23669081.337
  -1912175.581 6  -1490002.61823  24137801.759
   1768602.664 8   1378131.16325  22108902.321
  -1693493.818 8  -1319604.78426  22196019.915
    429688.859 9    334822.59429  20783889.209
   -238453.935 5   -185808.30125  25085516.453
 92  5  9  1 52  0.0010000  0  6G13G16G12G20G24G 3
   2126076.380 6   1656682.55122  23686060.085
  -1993878.080 6  -1553666.75823  24122254.208
   1857756.373 8   1447601.51626  22125865.189
  -1763904.793 8  -1374470.45826  22182618.602
    454996.756 9    354543.04129  20788704.178
   -308951.274 4   -240741.19422  25072087.847
 92  5  9  1 52 30.0010000  0  6G13G16G12G20G24G 3
   2215333.771 6   1726233.76422  23703038.239
  -2075418.103 5  -1617204.24423  24106738.766
   1947392.697 8   1517447.94425  22142924.277
  -1834018.061 8  -1429104.16326  22169277.212
    480856.651 8    374693.61229  20793624.371
   -379296.816 4   -295555.73321  25058708.416
 92  5  9  1 53  0.0010000  0  6G13G16G12G20G24G 3
   2304629.426 6   1795814.70622  23720034.053
  -2156812.149 5  -1680628.00025  24091249.359
   2037509.525 7   1587668.79724  22160072.117
  -1903830.873 8  -1483503.72826  22155991.035
    507277.950 9    395281.64429  20798651.884
   -449490.075 5   -350251.9962   25045356.278
 92  5  9  1 53 30.0010000  0  6G13G16G12G20G24G 3
   2393963.529 6   1865425.6512   23737036.498
  -2238071.284 5  -1743946.65422  24075789.688
   2128104.708 7   1658262.40224  22177312.270
  -1973340.544 8  -1537667.08626  22142765.096
    534269.660 9    416314.15429  20803789.123
   -519530.657 5   -404828.91022  25032026.301
 92  5  9  1 54  0.0010000  0  6G13G16G12G20G24G 3
   2483328.895 6   1935061.01022  23754038.909
  -2319197.808 6  -1807161.93823  24060350.363
   2219169.328 8   1729221.79225  22194642.081
  -2042550.769 8  -1591597.11825  22129592.206
    561808.049 9    437772.64529  20809029.493
   -589424.734 4   -459291.62422  25018717.020
 92  5  9  1 54 30.0010000  0  6G13G16G12G20G24G 3
   2572726.336 6   2004721.25122  23771051.859
  -2400184.118 6  -1870268.01523  24044941.647
   2310702.286 8   1800546.14125  22212059.701
  -2111457.564 8  -1645290.70426  22116481.962
    589888.921 8    459653.85929  20814370.900
   -659170.727 4   -513639.03821  25005452.969
 92  5  9  1 55  0.0010000  0  6G13G16G12G20G24G 3
   2662155.027 6   2074405.97221  23788061.773
  -2481025.959 6  -1933261.49322  24029555.092
   2402700.371 8   1872232.89126  22229568.482
  -2180059.076 8  -1698746.41825  22103427.803
    618487.464 8    481938.44029  20819813.344
   -728769.139 5   -567871.33222  24992204.241
 92  5  9  1 55 30.0010000  0  6G13G16G12G20G24G 3
   2751610.468 6   2144111.48822  23805093.883
  -2561703.788 6  -1996127.16923  24014204.798
   2495157.283 7   1944277.20225  22247159.104
  -2248356.931 8  -1751965.52226  22090433.010
    647591.468 9    504616.90129  20825355.917
   -798223.796 4   -621991.67422  24978997.811
 92  5  9  1 56  0.0010000  0  6G13G16G12G20G24G 3
   2841094.736 6   2213839.39422  23822121.806
  -2642204.739 6  -2058855.00222  23998883.332
   2588073.220 7   2016679.17426  22264840.258
  -2316346.189 8  -1804944.14926  22077493.674
    677203.933 9    527691.54929  20830990.209
   -867531.540 5   -675997.60322  24965804.539
 92  5  9  1 56 30.0010000  0  6G13G16G12G20G24G 3
   2930604.301 6   2283587.03623  23839156.603
  -2722527.692 6  -2121444.17423  23983599.908
   2681442.965 7   2089434.75126  22282610.478
  -2384026.836 8  -1857682.30126  22064613.982
    707325.652 8    551163.03329  20836720.441
   -936694.621 5   -729890.71122  24952642.154
 92  5  9  1 57  0.0010000  0  6G13G16G12G20G24G 3
   3020146.682 6   2353360.3042   23856197.997
  -2802661.096 6  -2183885.61723  23968345.870
   2775272.217 7   2162548.41926  22300463.098
  -2451387.882 8  -1910171.41726  22051796.064
    737968.371 9    575040.47629  20842551.711
  -1005705.140 5   -783664.97023  24939504.339
 92  5  9  1 57 30.0010000  0  6G13G16G12G20G24G 3
   3109717.629 6   2423155.83522  23873239.706
  -2882598.124 6  -2246174.06024  23953135.283
   2869554.301 7   2236014.91525  22318403.597
  -2518430.846 8  -1962412.67226  22039039.885
    769159.078 9    599344.93729  20848487.577
  -1074567.105 5   -837323.43222  24926405.193
 92  5  9  1 58  0.0010000  0  6G13G16G12G20G24G 3
   3199318.899 6   2492974.99722  23890292.791
  -2962355.359 6  -2308322.42023  23937964.902
   2964288.613 7   2309833.80625  22336431.626
  -2585151.534 8  -2014402.78726  22026343.979
    800892.370 9    624072.18829  20854527.795
  -1143278.108 5   -890864.33523  24913322.276
 92  5  9  1 58 30.0010000  0  6G13G16G12G20G24G 3
   3288950.029 6   2562817.33722  23907347.378
  -3041952.305 6  -2370345.85023  23922816.996
   3059472.685 7   2384003.17826  22354547.779
  -2651547.221 8  -2066139.66726  22013708.311
    833165.575 9    649220.14229  20860667.550
  -1211837.833 5   -944287.39624  24900278.588
 92  5  9  1 59  0.0010000  0  6G13G16G12G20G24G 3
   3378605.009 6   2632678.28921  23924407.688
  -3121404.363 6  -2432256.40623  23907691.845
   3155097.980 7   2458516.33125  22372743.959
  -2717621.539 8  -2117626.12726  22001132.917
    865979.896 9    674789.75529  20866911.621
  -1280252.197 5   -997597.12821  24887255.316
 92  5  9  1 59 30.0010000  0  6G13G16G12G20G24G 3
   3468285.108 6   2702558.79522  23941474.559
  -3200702.560 6  -2494047.08122  23892606.306
   3251164.430 7   2533373.25426  22391025.610
  -2783369.192 8  -2168858.03426  21988619.296
    899324.151 9    700772.29429  20873258.231
  -1348518.322 5  -1050791.36721  24874282.091
 92  5  9  2  0  0.0010000  0  6G13G16G12G20G24G 3
   3557979.259 6   2772450.34922  23958538.743
  -3279857.672 6  -2555726.22924  23877539.928
   3347658.190 7   2608563.13424  22409389.695
  -2848798.749 8  -2219842.07026  21976173.103
    933156.419 9    727135.11729  20879693.592
  -1416647.448 5  -1103878.84722  24861309.459
 92  5  9  2  0 30.0010000  0  6G13G16G12G20G24G 3
   3647699.042 6   2842361.91023  23975611.024
  -3358828.657 6  -2617261.94823  23862513.441
   3444588.999 7   2684093.60525  22427827.840
  -2913895.858 8  -2270567.05527  21963783.588
    967494.874 9    753892.35329  20886229.047
  -1484627.063 5  -1156849.87224  24848377.627
 92  5  9  2  1  0.0010000  0  6G13G16G12G20G24G 3
   3737435.955 6   2912286.71623  23992686.306
  -3437590.124 6  -2678634.36123  23847517.805
   3541945.903 7   2759956.07626  22446357.702
  -2978666.159 8  -2321037.38127  21951457.033
   1002321.049 9    781029.64229  20892855.070
  -1552465.331 5  -1209710.66922  24835463.453
 92  5  9  2  1 30.0010000  0  6G13G16G12G20G24G 3
   3827186.659 5   2982222.23521  24009762.775
  -3516135.809 6  -2739838.67123  23832576.755
   3639723.317 7   2836146.21024  22464963.718
  -3043109.692 8  -2371253.08826  21939194.311
   1037614.598 9    808531.11529  20899572.810
  -1620164.766 5  -1262463.40422  24822570.883
 92  5  9  2  2  0.0010000  0  6G13G16G12G20G24G 3
   3916961.912 6   3052176.90721  24026854.566
  -3594461.738 6  -2800871.71123  23817674.373
   3737930.058 7   2912670.88025  22483654.576
  -3107212.919 8  -2421203.61826  21926994.864
   1073400.120 9    836415.95829  20906383.805
  -1687714.326 5  -1315099.22521  24809723.579
 92  5  9  2  2 30.0010000  0  6G13G16G12G20G24G 3
   4006773.993 6   3122160.4822   24043946.007
  -3672560.987 6  -2861728.12524  23802808.568
   3836576.108 7   2989537.86925  22502422.809
  -3170960.146 8  -2470876.73727  21914866.753
   1109702.631 9    864703.63829  20913292.834
  -1755100.549 4  -1367607.80522  24796899.973
 92  5  9  2  3  0.0010000  0  6G13G16G12G20G24G 3
   4096605.140 6   3192158.68722  24061044.393
  -3750462.054 6  -2922430.11623  23787991.029
   3935641.433 7   3066731.57925  22521274.035
  -3234366.632 8  -2520284.34527  21902800.696
   1146500.863 9    893377.59229  20920292.675
  -1822341.183 5  -1420002.98222  24784108.126
 92  5  9  2  3 30.0010000  0  6G13G16G12G20G24G 3
   4186452.812 6   3262169.80422  24078133.461
  -3828172.351 6  -2982983.42024  23773206.158
   4035120.245 7   3144247.46226  22540205.637
  -3297432.611 8  -2569426.61927  21890800.320
   1183800.916 9    922442.58129  20927390.272
  -1889438.979 5  -1472286.76522  24771337.568
 92  5  9  2  4  0.0010000  0  6G13G16G12G20G24G 3
   4276314.529 5   3332191.97522  24095241.096
  -3905691.025 6  -3043387.46023  23758444.984
   4135008.192 7   3222082.17925  22559215.764
  -3360157.647 8  -2618303.22527  21878861.370
   1221613.395 9    951906.85929  20934587.998
  -1956395.564 5  -1524460.57322  24758589.486
 92  5  9  2  4 30.0010000  0  6G13G16G12G20G24G 3
   4366182.553 5   3402218.95422  24112332.573
  -3983007.718 6  -3103634.09222  23743735.358
   4235295.716 7   3300228.23225  22578303.859
  -3422545.877 8  -2666917.38627  21866988.102
   1259922.994 9    981758.50029  20941877.443
  -2023217.514 5  -1576529.46722  24745877.700
 92  5  9  2  5  0.0010000  0  6G13G16G12G20G24G 3
   4456064.170 6   3472256.52922  24129438.428
  -4060098.683 6  -3163704.83724  23729064.715
   4335987.591 7   3378689.36125  22597457.916
  -3484587.049 8  -2715261.12327  21855183.170
   1298747.947 9   1012011.72129  20949263.143
  -2089897.232 4  -1628487.50322  24733176.384
 92  5  9  2  5 30.0010000  0  6G13G16G12G20G24G 3
   4545953.855 6   3542300.44722  24146546.098
  -4136962.820 6  -3223598.87724  23714436.931
   4437075.651 7   3457459.21624  22616698.596
  -3546283.904 8  -2763336.54826  21843444.792
   1338090.967 9   1042668.63429  20956749.251
  -2156439.980 5  -1680338.79322  24720537.715
 92  5  9  2  6  0.0010000  0  6G13G16G12G20G24G 3
   4635856.841 6   3612354.76122  24163659.142
  -4213587.257 6  -3283306.08323  23699866.732
   4538562.970 7   3536540.18025  22636012.427
  -3607628.327 8  -2811137.36627  21831770.876
   1377952.354 9   1073729.45629  20964335.803
  -2222840.120 5  -1732079.01722  24707878.699
 92  5  9  2  6 30.0010000  0  6G13G16G12G20G24G 3
   4725767.679 5   3682415.14022  24180767.406
  -4289975.066 6  -3342828.93423  23685318.695
   4640441.628 7   3615926.07924  22655396.408
  -3668622.890 8  -2858665.56427  21820163.200
   1418320.313 9   1105185.02129  20972017.668
  -2289102.746 5  -1783712.05622  24695276.012
 92  5  9  2  7  0.0010000  0  6G13G16G12G20G24G 3
   4815686.854 5   3752481.93822  24197872.947
  -4366139.679 6  -3402177.82823  23670829.430
   4742709.530 7   3695615.27226  22674857.415
  -3729264.428 8  -2905918.68627  21808622.394
   1459195.683 9   1137035.96129  20979793.974
  -2355226.772 5  -1835237.08522  24682691.927
 92  5  9  2  7 30.0010000  0  6G13G16G12G20G24G 3
   4905614.834 6   3822555.60522  24214975.835
  -4442089.560 6  -3461359.43624  23656376.147
   4845364.553 7   3775606.12325  22694394.295
  -3789550.150 8  -2952894.54227  21797153.552
   1500551.258 9   1169261.09429  20987667.128
  -2421211.428 5  -1886653.52523  24670146.512
 92  5  9  2  8  0.0010000  0  6G13G16G12G20G24G 3
   4995530.199 6   3892619.67622  24232096.663
  -4517844.410 6  -3520389.06924  23641957.905
   4948382.863 7   3855880.05625  22713995.042
  -3849498.042 8  -2999607.15527  21785744.635
   1542354.563 9   1201835.09829  20995622.717
  -2487078.094 5  -1937978.03522  24657602.283
 92  5  9  2  8 30.0010000  0  6G13G16G12G20G24G 3
   5085450.601 6   3962687.48422  24249210.021
  -4593396.759 6  -3579260.91323  23627579.868
   5051779.646 7   3936448.92124  22733671.000
  -3909087.655 8  -3046040.60026  21774403.494
   1584628.337 9   1234775.71629  21003664.371
  -2552808.178 4  -1989196.11422  24645095.852
 92  5  9  2  9  0.0010000  0  6G13G16G12G20G24G 3
   5175382.217 6   4032763.96622  24266322.787
  -4668728.894 6  -3637961.14725  23613249.505
   5155558.672 7   4017315.60925  22753421.331
  -3968310.166 8  -3092187.99828  21763135.784
   1627375.629 9   1268085.29229  21011802.524
  -2618395.312 5  -2040302.78322  24632612.490
 92  5  9  2  9 30.0010000  0  6G13G16G12G20G24G 3
   5265327.276 6   4102851.06621  24283437.332
  -4743815.197 6  -3696469.82624  23598958.091
   5259719.693 7   4098479.96725  22773235.809
  -4027160.418 9  -3138045.32427  21751939.131
   1670588.447 9   1301757.61129  21020023.741
  -2683836.938 5  -2091296.08822  24620160.608
 92  5  9  2 10  0.0010000  0  6G13G16G12G20G24G 3
   5355278.058 5   4172942.5582   24300559.974
  -4818655.541 6  -3754786.84623  23584716.130
   5364252.033 7   4179933.65325  22793131.850
  -4085643.348 8  -3183616.42528  21740807.846
   1714273.136 9   1335797.63529  21028335.175
  -2749140.471 5  -2142181.82421  24607747.116
 92  5  9  2 10 30.0010000  0  6G13G16G12G20G24G 3
   5445232.967 5   4243037.24922  24317666.144
  -4893251.004 6  -3812913.04324  23570523.380
   5469151.494 7   4261673.42224  22813095.632
  -4143758.277 8  -3228900.77528  21729748.806
   1758424.712 9   1370201.45729  21036738.362
  -2814307.489 5  -2192961.16223  24595337.498
 92  5  9  2 11  0.0010000  0  6G13G16G12G20G24G 3
   5535182.370 5   4313127.58323  24334786.378
  -4967590.922 6  -3870840.12524  23556373.452
   5574406.345 7   4343690.10824  22833124.468
  -4201511.497 9  -3273903.26327  21718757.228
   1803016.567 9   1404948.36229  21045220.983
  -2879346.787 5  -2243640.95721  24582959.082
 92  5  9  2 11 30.0010000  0  6G13G16G12G20G24G 3
   5625130.960 6   4383217.40321  24351903.611
  -5041679.922 6  -3928571.68223  23542270.325
   5680018.962 7   4425985.59125  22853221.639
  -4258895.278 8  -3318617.89528  21707840.267
   1848058.162 9   1440045.70429  21053792.948
  -2944252.983 5  -2294217.08622  24570608.830
 92  5  9  2 12  0.0010000  0  6G13G16G12G20G24G 3
   5715089.174 6   4453314.69823  24369027.474
  -5115520.002 6  -3986109.27624  23528222.062
   5785996.825 7   4508565.67825  22873385.994
  -4315896.756 8  -3363034.61327  21696992.583
   1893571.530 9   1475510.66929  21062454.259
  -3009015.825 5  -2344681.48921  24558284.369
 92  5  9  2 12 30.0010000  0  6G13G16G12G20G24G 3
   5805056.312 6   4523418.96822  24386145.929
  -5189108.710 6  -4043451.02723  23514218.437
   5892336.194 7   4591427.43225  22893624.373
  -4372513.925 8  -3407151.88728  21686218.330
   1939546.988 9   1511335.69129  21071207.323
  -3073635.756 5  -2395034.54022  24545987.759
 92  5  9  2 13  0.0010000  0  6G13G16G12G20G24G 3
   5895019.702 5   4593520.24422  24403268.885
  -5262457.712 6  -4100605.96923  23500266.395
   5999022.157 7   4674559.26625  22913921.210
  -4428756.732 8  -3450977.44729  21675513.040
   1985981.624 9   1547518.52529  21080040.379
  -3138125.345 5  -2445286.02622  24533719.069
 92  5  9  2 13 30.0010000  0  6G13G16G12G20G24G 3
   5984973.946 5   4663614.37821  24420390.620
  -5335577.779 6  -4157582.54023  23486346.426
   6106046.243 7   4757954.58224  22934291.233
  -4484627.982 8  -3494513.47828  21664881.216
   2032886.321 9   1584067.62429  21088967.003
  -3202489.609 5  -2495439.83722  24521460.850
 92  5  9  2 14  0.0010000  0  6G13G16G12G20G24G 3
   6074925.250 5   4733706.4122   24437494.974
  -5408444.313 6  -4214361.54324  23472477.726
   6213411.872 6   4841616.00425  22954721.773
  -4540119.074 8  -3537753.28128  21654323.136
   2080263.130 9   1620984.61529  21097984.752
  -3266722.429 5  -2545491.28722  24509239.520
 92  5  9  2 14 30.0010000  0  6G13G16G12G20G24G 3
   6164864.438 5   4803788.81322  24454612.835
  -5481055.363 6  -4270941.46224  23458667.798
   6321107.596 6   4925534.66623  22975215.902
  -4595235.749 8  -3580701.33128  21643835.800
   2128102.771 9   1658262.25129  21107085.564
  -3330832.069 5  -2595446.70223  24497041.853
 92  5  9  2 15  0.0010000  0  6G13G16G12G20G24G 3
   6254769.038 5   4873844.33622  24471724.379
  -5553426.085 6  -4327334.13923  23444892.945
   6429108.022 6   5009690.79425  22995766.046
  -4649998.095 9  -3623373.27628  21633413.203
   2176387.049 9   1695886.35229  21116272.720
  -3394841.178 5  -2645323.81623  24484867.569
 92  5  9  2 15 30.0010000  0  6G13G16G12G20G24G 3
   6344694.784 5   4943916.38322  24488837.424
  -5625495.156 6  -4383491.76424  23431179.517
   6537466.396 7   5094125.80224  23016392.378
  -4704347.434 9  -3665723.39928  21623072.170
   2225163.159 9   1733893.70329  21125556.096
  -3458693.701 5  -2695078.92822  24472710.700
 92  5  9  2 16  0.0010000  0  6G13G16G12G20G24G 3
   6434615.690 4   5013984.54321  24505948.374
  -5697287.891 6  -4439434.04925  23417514.077
   6646153.454 7   5178816.92622  23037068.478
  -4758307.792 9  -3707770.42529  21612803.065
   2274395.932 9   1772256.90629  21134923.687
  -3522415.871 5  -2744732.39623  24460578.401
 92  5  9  2 16 30.0010000  0  6G13G16G12G20G24G 3
   6524527.229 4   5084045.42521  24523050.041
  -5768820.167 6  -4495173.38924  23403902.314
   6755162.384 7   5263758.86426  23057818.916
  -4811880.736 9  -3749515.56028  21602608.020
   2324075.310 9   1810968.10429  21144377.657
  -3586011.482 5  -2794287.33022  24448491.962
 92  5  9  2 17  0.0010000  0  6G13G16G12G20G24G 3
   6614427.823 5   5154097.75621  24540159.491
  -5840087.678 6  -4550706.41523  23390341.191
   6864488.646 7   5348948.07025  23078619.122
  -4865065.189 9  -3790957.97329  21592487.033
   2374191.726 9   1850019.84429  21153917.342
  -3649481.975 5  -2843744.72521  24436404.929
 92  5  9  2 17 30.0010000  0  6G13G16G12G20G24G 3
   6704323.879 6   5224146.69222  24557270.163
  -5911081.021 6  -4606025.79524  23376836.747
   6974136.173 6   5434387.63225  23099483.161
  -4917851.575 9  -3832090.21129  21582442.793
   2424750.949 9   1889416.63629  21163535.902
  -3712820.549 5  -2893099.30321  24424355.658
 92  5  9  2 18  0.0010000  0  6G13G16G12G20G24G 3
   6794215.747 6   5294192.35822  24574373.924
  -5981789.034 6  -4661122.86524  23363378.162
   7084102.309 6   5520075.48124  23120408.380
  -4970237.216 9  -3872910.17529  21572472.297
   2475745.942 9   1929152.99429  21173238.677
  -3776026.940 5  -2942350.95222  24412325.304
 92  5  9  2 18 30.0010000  0  6G13G16G12G20G24G 3
   6884106.272 5   5364236.87722  24591479.779
  -6052189.870 6  -4715980.57324  23349980.129
   7194387.066 6   5606011.56424  23141393.244
  -5022217.129 9  -3913413.98429  21562582.735
   2527179.407 9   1969231.00329  21183028.109
  -3839098.104 5  -2991497.15424  24400322.206
 92  5  9  2 19  0.0010000  0  6G13G16G12G20G24G 3
   6973992.729 5   5434278.15222  24608586.541
  -6122270.192 6  -4770588.49723  23336646.592
   7304984.804 6   5692191.53624  23162443.791
  -5073791.196 9  -3953601.55828  21552767.546
   2579056.931 9   2009655.04629  21192900.256
  -3902036.616 5  -3040540.06823  24388344.586
 92  5  9  2 19 30.0010000  0  6G13G16G12G20G24G 3
   7063874.836 4   5504316.12221  24625680.112
  -6192037.450 6  -4824952.50424  23323363.975
   7415892.470 6   5778613.00924  23183552.761
  -5124956.782 9  -3993470.83728  21543032.069
   2631375.481 9   2050422.73929  21202854.279
  -3964842.588 5  -3089479.67622  24376396.073
 92  5  9  2 20  0.0010000  0  6G13G16G12G20G24G 3
   7153743.645 4   5574343.86921  24642789.247
  -6261509.324 6  -4879086.34623  23310145.819
   7527098.447 6   5865266.91525  23204711.219
  -5175720.529 9  -4033026.97928  21533371.245
   2684122.870 9   2091524.60729  21212891.923
  -4027524.987 5  -3138322.97922  24364461.939
 92  5  9  2 20 30.0010000  0  6G13G16G12G20G24G 3
   7243596.579 5   5644359.09121  24659892.694
  -6330694.567 7  -4932996.82623  23296978.652
   7638596.480 7   5952148.43322  23225926.915
  -5226082.767 9  -4072270.26628  21523790.482
   2737306.183 9   2132966.14129  21223011.723
  -4090086.330 5  -3187071.95522  24352563.159
 92  5  9  2 21  0.0010000  0  6G13G16G12G20G24G 3
   7333434.279 5   5714362.59621  24676985.985
  -6399611.746 6  -4986698.42324  23283868.723
   7750385.483 6   6039256.67424  23247203.512
  -5276039.613 9  -4111197.66628  21514283.464
   2790920.110 9   2174743.23129  21233214.237
  -4152525.583 5  -3235725.85522  24340675.198
 92  5  9  2 21 30.0010000  0  6G13G16G12G20G24G 3
   7423254.289 6   5784352.16622  24694081.650
  -6468267.687 6  -5040196.44024  23270801.965
   7862459.830 6   6126587.25024  23268527.748
  -5325591.116 9  -4149809.20328  21504852.912
   2844951.495 9   2216845.61029  21243497.127
  -4214844.778 5  -3284286.12621  24328825.907
 92  5  9  2 22  0.0010000  0  6G13G16G12G20G24G 3
   7513057.934 6   5854328.96022  24711170.997
  -6536641.270 6  -5093474.45725  23257789.477
   7974817.900 6   6214138.91424  23289908.941
  -5374733.381 9  -4188101.86028  21495501.166
   2899398.774 9   2259272.05429  21253859.450
  -4277042.932 5  -3332752.12722  24316983.805
 92  5  9  2 22 30.0010000  0  6G13G16G12G20G24G 3
   7602838.989 6   5924288.16422  24728250.502
  -6604724.695 6  -5146526.39224  23244838.135
   8087450.071 6   6301904.13924  23311338.995
  -5423470.537 9  -4226078.84828  21486226.480
   2954254.289 9   2302016.62329  21264297.019
  -4339126.212 5  -3381128.62023  24305178.279
 92  5  9  2 23  0.0010000  0  6G13G16G12G20G24G 3
   7692601.069 5   5994232.67122  24745332.660
  -6672511.385 6  -5199347.10524  23231938.375
   8200357.280 6   6389883.69123  23332829.915
  -5471796.258 9  -4263735.24129  21477029.762
   3009513.335 9   2345075.60729  21274813.742
  -4401091.080 5  -3429412.79922  24293383.852
 92  5  9  2 23 30.0010000  0  6G13G16G12G20G24G 3
   7782338.430 5   6064157.88121  24762410.350
  -6739976.127 6  -5251916.93725  23219100.041
   8313531.218 6   6478071.07923  23354364.007
  -5519713.616 9  -4301073.42229  21467912.162
   3065173.359 9   2388447.06229  21285401.208
  -4462942.839 5  -3477608.85724  24281608.584
 92  5  9  2 24  0.0010000  0  6G13G16G12G20G24G 3
   7872054.594 4   6134066.49722  24779470.940
  -6807108.728 6  -5304227.97724  23206320.199
   8426972.072 6   6566466.49023  23375957.151
  -5567216.723 9  -4338088.81628  21458872.531
   3121242.319 9   2432137.15929  21296074.424
  -4524677.605 5  -3525713.73921  24269868.706
 92  5  9  2 24 30.0010000  0  5G16G12G20G24G 3
  -6873924.851 6  -5356292.37423  23193611.101
   8540678.115 6   6655068.50123  23397589.279
  -5614302.096 9  -4374778.69728  21449912.926
   3177726.835 9   2476151.06529  21306820.512
  -4586294.878 5  -3573727.09021  24258142.648
 92  5  9  2 25  0.0010000  0  6G25G16G12G20G24G 3
  -4833212.359 5  -3766139.25522  25019121.725
  -6940419.641 6  -5408106.39625  23180957.774
   8654648.647 6   6743876.61323  23419275.676
  -5660965.209 9  -4411139.54629  21441033.069
   3234620.960 9   2520484.14529  21317648.687
  -4647792.089 5  -3621646.91221  24246433.936
 92  5  9  2 25 30.0010000  0  7G13G25G16G12G20G24G 3
     68732.97415     53555.87822  24830682.373
  -4881899.890 4  -3804077.54621  25009856.637
  -7006590.320 6  -5459667.88323  23168364.964
   8768877.521 6   6832886.03325  23441014.215
  -5707206.200 9  -4447171.47129  21432232.086
   3291922.033 9   2565134.34329  21328553.362
  -4709172.401 5  -3669475.61821  24234749.515
 92  5  9  2 26  0.0010000  0  7G13G25G16G12G20G24G 3
    158369.250 6    123402.52022  24847736.366
  -4930112.238 5  -3841645.54822  25000679.707
  -7072464.137 6  -5510998.03725  23155827.366
   8883361.701 6   6922094.36424  23462803.744
  -5753022.895 9  -4482872.77729  21423514.725
   3349630.434 9   2610101.92729  21339532.341
  -4770435.887 5  -3717213.28722  24223101.390
 92  5  9  2 26 30.0010000  0  7G13G25G16G12G20G24G 3
    247985.184 7    193233.12721  24864787.951
  -4977833.799 4  -3878831.16823  24991592.087
  -7138041.140 6  -5562096.91925  23143350.600
   8998098.914 6   7011499.86724  23484631.942
  -5798412.283 9  -4518241.11329  21414876.798
   3407736.815 9   2655379.62429  21350588.695
  -4831581.521 5  -3764859.13022  24211460.768
 92  5  9  2 27  0.0010000  0  7G13G25G16G12G20G24G 3
    337585.094 6    263051.24821  24881839.257
  -5025049.218 4  -3915622.36623  24982605.190
  -7203293.006 6  -5612942.43125  23130931.978
   9113090.227 6   7101103.40124  23506517.377
  -5843367.734 9  -4553271.32429  21406322.806
   3466236.641 9   2700963.91229  21361722.073
  -4892605.506 5  -3812410.17722  24199848.905
 92  5  9  2 27 30.0010000  0  7G13G25G16G12G20G24G 3
    427161.277 6    332850.96322  24898881.279
  -5071763.586 5  -3952023.11221  24973728.962
  -7268224.392 6  -5663538.21025  23118578.725
   9228325.176 6   7190896.75622  23528440.888
  -5887894.502 9  -4587967.48629  21397851.283
   3525132.651 9   2746856.89729  21372929.825
  -4953515.044 5  -3859872.05521  24188249.919
 92  5  9  2 28  0.0010000  0  7G13G25G16G12G20G24G 3
    516711.155 5    402630.09022  24915924.453
  -5117996.179 5  -3988048.46122  24964938.450
  -7332832.059 6  -5713881.77025  23106276.461
   9343798.437 6   7280875.81024  23550418.984
  -5931992.438 9  -4622329.50329  21389458.880
   3584412.481 9   2793048.98529  21384213.415
  -5014312.593 5  -3907246.65024  24176690.232
 92  5  9  2 28 30.0010000  0  6G25G16G12G20G24G 3
  -5163741.020 4  -4023693.76024  24956218.960
  -7397083.824 6  -5763947.99424  23094054.223
   9459514.837 6   7371044.35523  23572439.623
  -5975651.258 9  -4656349.35429  21381150.134
   3644075.823 9   2839539.90029  21395567.748
  -5074990.007 5  -3954527.59921  24165143.423
 92  5  9  2 29  0.0010000  0  6G25G16G12G20G24G 3
  -5208995.639 5  -4058957.08222  24947619.423
  -7460973.928 6  -5813732.39423  23081894.353
   9575472.264 6   7461400.72322  23594507.657
  -6018867.631 9  -4690024.42829  21372927.731
   3704130.958 9   2886336.10929  21406996.140
  -5135546.738 5  -4001714.56223  24153617.310
 92  5  9  2 29 30.0010000  0  6G25G16G12G20G24G 3
  -5253764.742 4  -4093842.08021  24939091.536
  -7524526.192 6  -5863253.56325  23069803.411
   9691659.228 6   7551935.86922  23616612.546
  -6061647.690 9  -4723359.52529  21364785.075
   3764559.012 9   2933422.90429  21418491.994
  -5195991.217 5  -4048814.08521  24142114.859
 92  5  9  2 30  0.0010000  0  6G25G16G12G20G24G 3
  -5298032.304 5  -4128336.23522  24930670.341
  -7587732.421 7  -5912505.06925  23057773.650
   9808078.290 6   7642651.91423  23638771.111
  -6103983.533 9  -4756348.48129  21356729.042
   3825356.139 9   2980797.28729  21430062.780
  -5256317.751 5  -4095821.64623  24130632.825
 92  5  9  2 30 30.0010000  0  6G25G16G12G20G24G 3
  -5341782.796 5  -4162427.48322  24922344.528
  -7650598.412 6  -5961491.48324  23045814.318
   9924721.342 6   7733542.50523  23660967.753
  -6145877.824 9  -4788993.36529  21348754.572
   3886528.723 9   3028464.24029  21441706.123
  -5316531.259 5  -4142741.13723  24119171.138
 92  5  9  2 31  0.0010000  0  6G25G16G12G20G24G 3
  -5385020.359 5  -4196119.07922  24914118.216
  -7713134.470 6  -6010220.79526  23033915.259
  10041586.446 6   7824606.09322  23683205.473
  -6187327.197 9  -4821291.56829  21340870.040
   3948089.961 9   3076434.02829  21453419.303
  -5376631.106 5  -4189572.13423  24107738.244
 92  5  9  2 31 30.0010000  0  6G25G16G12G20G24G 3
  -5427750.499 5  -4229415.31322  24905992.347
  -7775342.377 7  -6058694.40225  23022075.251
  10158665.001 6   7915835.99622  23705479.455
  -6228334.834 9  -4853245.55329  21333065.221
   4010028.589 9   3124697.89529  21465204.761
  -5436622.424 5  -4236318.48823  24096321.858
 92  5  9  2 32  0.0010000  0  6G25G16G12G20G24G 3
  -5469972.840 5  -4262315.81122  24897943.504
  -7837203.218 7  -6106897.56525  23010299.391
  10275957.481 6   8007232.64123  23727798.388
  -6268894.953 9  -4884850.83629  21325347.653
   4072364.622 9   3173271.42129  21477066.651
  -5496501.773 5  -4282977.60922  24084925.261
 92  5  9  2 32 30.0010000  0  6G25G16G12G20G24G 3
  -5511673.452 5  -4294809.75422  24890022.711
  -7898713.771 6  -6154827.76926  22998590.713
  10393467.105 6   8098798.46523  23750163.808
  -6308999.132 9  -4916100.83529  21317718.836
   4135106.203 9   3222160.97429  21489006.160
  -5556263.103 5  -4329544.77922  24073550.232
 92  5  9  2 33  0.0010000  0  6G25G16G12G20G24G 3
  -5552867.244 5  -4326908.76023  24882176.814
  -7959868.448 6  -6202480.65225  22986953.058
  10511187.347 6   8190528.42523  23772564.583
  -6348648.418 9  -4946996.37429  21310173.676
   4198231.348 9   3271349.38929  21501018.541
  -5615909.655 6  -4376022.49521  24062204.274
 92  5  9  2 33 30.0010000  0  6G25G16G12G20G24G 3
  -5593547.681 5  -4358607.7992   24874438.270
  -8020649.810 6  -6249842.66623  22975391.277
  10629116.065 6   8282420.81923  23794995.651
  -6387839.275 9  -4977534.69029  21302712.452
   4261719.413 9   3320820.60229  21513099.292
  -5675440.378 5  -4422409.92723  24050878.141
 92  5  9  2 34  0.0010000  0  6G25G16G12G20G24G 3
  -5633712.833 5  -4389905.26822  24866788.479
  -8081056.381 6  -6296912.62625  22963896.923
  10747248.855 6   8374472.20024  23817488.179
  -6426571.142 9  -5007715.35129  21295343.225
   4325574.083 9   3370577.48529  21525250.472
  -5734856.894 5  -4468708.41922  24039576.856
 92  5  9  2 34 30.0010000  0  6G25G16G12G20G24G 3
  -5673371.692 5  -4420808.25422  24859254.103
  -8141097.288 7  -6343697.66025  22952472.719
  10865577.658 6   8466676.35922  23840010.408
  -6464846.689 9  -5037540.45229  21288059.190
   4389773.075 9   3420602.67029  21537466.706
  -5794164.436 5  -4514921.95224  24028284.576
 92  5  9  2 35  0.0010000  0  6G25G16G12G20G24G 3
  -5712536.162 5  -4451325.94923  24851792.564
  -8200761.458 6  -6390189.14626  22941116.885
  10984101.023 6   8559032.07023  23862558.707
  -6502661.995 9  -5067006.90629  21280859.963
   4454315.886 9   3470895.76229  21549749.531
  -5853360.895 5  -4561048.98922  24017015.051
 92  5  9  2 35 30.0010000  0  6G25G16G12G20G24G 3
  -5751195.767 6  -4481450.29421  24844432.062
  -8260047.944 6  -6436386.32425  22929838.391
  11102819.334 6   8651539.71423  23885154.644
  -6540011.316 9  -5096110.26729  21273753.397
   4519218.038 9   3521468.85529  21562099.468
  -5912443.080 5  -4607086.95523  24005774.633
 92  5  9  2 36  0.0010000  0  6G25G16G12G20G24G 3
  -5789356.884 5  -4511186.22923  24837172.597
  -8318963.860 7  -6482294.74625  22918624.358
  11221727.363 6   8744195.20523  23907771.907
  -6576894.469 9  -5124850.36929  21266736.734
   4584481.689 9   3572323.65529  21574517.776
  -5971413.294 6  -4653037.64623  23994562.693
 92  5  9  2 36 30.0010000  0  6G25G16G12G20G24G 3
  -5827032.963 5  -4540544.15122  24830003.036
  -8377512.831 7  -6527917.23125  22907485.290
  11340820.126 6   8836994.63722  23930432.306
  -6613311.333 9  -5153227.13829  21259808.858
   4650092.240 9   3623448.75629  21587002.639
  -6030273.456 6  -4698902.60122  23983355.884
 92  5  9  2 37  0.0010000  0  6G25G16G12G20G24G 3
  -5864213.596 5  -4569515.99622  24822925.262
  -8435675.104 7  -6573238.39825  22896414.837
  11460099.531 6   8929939.53624  23953139.471
  -6649254.991 9  -5181235.17729  21252965.476
   4716053.741 9   3674847.32629  21599554.651
  -6089018.392 5  -4744677.77822  23972167.607
 92  5  9  2 37 30.0010000  0  6G25G16G12G20G24G 3
  -5900889.612 5  -4598094.67124  24815948.491
  -8493453.883 7  -6618260.73525  22885414.848
  11579560.069 6   9023025.56622  23975873.057
  -6684725.502 9  -5208874.52329  21246214.754
   4782357.996 9   3726512.97229  21612174.090
  -6147650.570 5  -4790365.09222  23961018.349
 92  5  9  2 38  0.0010000  0  6G25G16G12G20G24G 3
  -5937050.664 5  -4626272.09122  24809072.442
  -8550849.430 7  -6662984.46225  22874503.018
  11699198.343 6   9116250.05322  23998633.899
  -6719720.975 9  -5236143.71729  21239559.974
   4849013.911 9   3778452.64829  21624857.117
  -6206170.648 5  -4835965.04923  23949885.250
 92  5  9  2 38 30.0010000  0  6G25G16G12G20G24G 3
  -5972672.688 5  -4654029.47121  24802284.831
  -8607855.297 7  -6707404.54025  22863651.739
  11819014.858 6   9209613.45722  24021439.414
  -6754235.511 9  -5263038.15729  21232989.409
   4916025.030 9   3830669.09529  21637610.609
  -6264574.787 5  -4881474.69222  23938762.027
 92  5  9  2 39  0.0010000  0  6G25G16G12G20G24G 3
  -6007731.969 6  -4681348.36022  24795618.952
  -8664474.620 7  -6751523.41024  22852873.298
  11939000.631 5   9303108.78022  24044265.904
  -6788273.004 9  -5289560.86729  21226512.097
   4983392.242 9   3883163.02729  21650430.307
  -6322869.205 5  -4926898.77022  23927673.915
 92  5  9  2 39 30.0010000  0  6G25G16G12G20G24G 3
  -6042221.455 6  -4708223.23622  24789055.611
  -8720732.434 7  -6795360.60724  22842169.788
  12059147.806 6   9396729.84323  24067131.064
  -6821836.115 9  -5315713.92529  21220124.410
   5051120.374 9   3935938.19828  21663319.003
  -6381058.233 5  -4972240.79424  23916603.183
 92  5  9  2 40  0.0010000  0  6G25G16G12G20G24G 3
  -6076143.769 5  -4734656.23322  24782605.557
  -8776616.410 7  -6838906.47625  22831536.463
  12179460.759 6   9490480.07823  24090031.613
  -6854915.080 9  -5341489.74329  21213832.385
   5119197.549 9   3988985.34129  21676271.532
  -6439134.926 5  -5017495.26823  23905545.049
 92  5  9  2 40 30.0010000  0  6G25G16G12G20G24G 3
  -6109518.359 5  -4760662.37923  24776243.347
  -8832119.574 7  -6882155.62825  22820977.476
  12299930.901 6   9584352.77723  24112954.359
  -6887513.240 9  -5366890.89929  21207626.948
   5187589.004 9   4042277.38229  21689286.707
  -6497104.598 5  -5062666.34322  23894519.583
 92  5  9  2 41  0.0010000  0  6G25G16G12G20G24G 3
  -6142362.929 5  -4786255.55824  24769991.493
  -8887229.855 7  -6925098.62725  22810486.545
  12420555.710 6   9678346.01023  24135911.272
  -6919628.426 9  -5391915.70829  21201516.301
   5256292.144 9   4095812.28829  21702360.968
  -6554966.714 6  -5107753.62323  23883508.775
 92  5  9  2 41 30.0010000  0  6G25G16G12G20G24G 3
  -6174704.900 5  -4811457.08523  24763843.956
  -8941925.161 7  -6967718.27025  22800084.016
  12541335.872 6   9772460.34024  24158891.848
  -6951254.364 9  -5416559.28929  21195498.558
   5325297.541 9   4149582.73229  21715492.781
  -6612717.599 6  -5152754.24824  23872519.605
 92  5  9  2 42  0.0010000  0  6G25G16G12G20G24G 3
  -6206563.238 5  -4836281.74122  24757787.857
  -8996182.461 7  -7009996.61324  22789757.675
  12662265.318 6   9866690.93923  24181905.997
  -6982391.920 9  -5440822.30329  21189572.848
   5394602.294 9   4203586.42629  21728679.142
  -6670360.331 6  -5197670.56523  23861548.095
 92  5  9  2 42 30.0010000  0  6G25G16G12G20G24G 3
  -6237930.381 5  -4860723.63222  24751821.384
  -9049997.973 7  -7051930.70525  22779513.769
  12783342.537 6   9961036.70122  24204945.066
  -7013037.606 9  -5464702.04529  21183743.708
   5464243.907 9   4257852.61129  21741934.467
  -6727893.086 6  -5242501.16824  23850601.782
 92  5  9  2 43  0.0010000  0  6G25G16G12G20G24G 3
  -6268800.703 5  -4884778.44021  24745945.721
  -9103375.726 7  -7093523.70825  22769355.614
  12904560.368 5  10055492.10322  24228009.892
  -7043193.673 9  -5488200.27129  21178002.063
   5534238.022 9   4312393.46829  21755249.437
  -6785320.280 6  -5287249.57423  23839671.943
 92  5  9  2 43 30.0010000  0  6G25G16G12G20G24G 3
  -6299169.685 5  -4908442.59222  24740160.031
  -9156317.630 7  -7134777.06125  22759282.859
  13025917.859 5  10150056.25222  24251101.416
  -7072855.330 9  -5511313.23229  21172356.080
   5604590.982 9   4367213.96529  21768638.186
  -6842639.244 6  -5331913.58823  23828764.894
 92  5  9  2 44  0.0010000  0  6G25G16G12G20G24G 3
  -6329008.845 5  -4931693.87622  24734470.877
  -9208829.155 7  -7175695.07025  22749286.607
  13147415.315 5  10244729.49823  24274224.699
  -7102017.637 9  -5534037.09229  21166810.819
   5675311.025 9   4422320.49629  21782098.866
  -6899847.382 6  -5376491.27423  23817881.228
 92  5  9  2 44 30.0010000  0  6G25G16G12G20G24G 3
  -6358296.938 6  -4954515.73123  24728905.828
  -9260910.519 7  -7216277.87124  22739374.848
  13269048.463 5  10339508.44222  24297371.994
  -7130679.436 9  -5556370.95129  21161353.997
   5746372.816 9   4477693.30829  21795623.692
  -6956945.514 6  -5420983.23423  23807012.849
 92  5  9  2 45  0.0010000  0  6G25G16G12G20G24G 3
  -6387037.029 5  -4976910.56122  24723438.814
  -9312568.771 7  -7256530.99425  22729553.971
  13390810.710 5  10434387.97123  24320536.949
  -7158842.266 9  -5578315.99529  21155994.302
   5817745.825 9   4533308.64828  21809202.788
  -7013937.360 6  -5465392.39523  23796172.040
 92  5  9  2 45 30.0010000  0  6G25G16G12G20G24G 3
  -6415225.537 5  -4998875.65622  24718074.024
  -9363811.493 7  -7296460.33425  22719796.018
  13512701.715 5  10529367.83822  24343744.482
  -7186501.769 9  -5599868.84129  21150733.864
   5889423.715 9   4589161.55629  21822841.878
  -7070820.025 6  -5509716.44222  23785345.646
 92  5  9  2 46  0.0010000  0  6G25G16G12G20G24G 3
  -6442856.706 5  -5020406.38124  24712816.587
  -9414643.370 7  -7336069.52825  22710123.816
  13634717.393 5  10624444.87222  24366951.108
  -7213656.697 9  -5621028.52029  21145564.237
   5961408.975 9   4645253.95529  21836537.891
  -7127594.588 6  -5553956.28923  23774543.228
 92  5  9  2 46 30.0010000  0  6G25G16G12G20G24G 3
  -6469943.411 5  -5041512.92122  24707655.930
  -9465070.448 7  -7375363.28824  22700531.641
  13756852.737 5  10719615.16922  24390195.531
  -7240307.331 9  -5641795.23529  21140489.644
   6033709.734 9   4701592.20928  21850298.958
  -7184263.094 6  -5598113.46523  23763751.002
 92  5  9  2 47  0.0010000  0  6G25G16G12G20G24G 3
  -6496493.758 5  -5062201.45922  24702614.632
  -9515104.849 7  -7414351.08626  22691004.555
  13879107.264 5  10814878.30124  24413462.395
  -7266448.718 9  -5662165.13929  21135518.495
   6106346.618 9   4758192.38729  21864119.077
  -7240822.909 6  -5642185.99324  23752984.252
 92  5  9  2 47 30.0010000  0  6G25G16G12G20G24G 3
  -6522508.181 5  -5082472.37521  24697651.859
  -9564735.664 7  -7453024.38626  22681557.182
  14001474.852 6  10910229.55822  24436750.897
  -7292082.225 9  -5682139.28829  21130641.160
   6179319.503 9   4815054.37629  21878008.159
  -7297277.143 6  -5686176.19324  23742246.889
 92  5  9  2 48  0.0010000  0  6G25G16G12G20G24G 3
  -6547977.737 5  -5102318.78522  24692800.943
  -9613938.277 7  -7491364.03926  22672198.560
  14123956.786 5  11005669.89422  24460055.558
  -7317201.345 9  -5701712.61629  21125863.081
   6252625.568 9   4872175.97429  21891957.200
  -7353621.331 6  -5730080.68724  23731525.999
 92  5  9  2 48 30.0010000  0  6G25G16G12G20G24G 3
  -6572898.119 5  -5121737.21322  24688056.124
  -9662703.111 7  -7529362.55325  22662919.372
  14246543.800 5  11101192.08022  24483378.821
  -7341810.489 9  -5720888.58029  21121177.907
   6326232.740 9   4929532.22629  21905964.699
  -7409861.648 6  -5773904.25224  23720817.428
 92  5  9  2 49  0.0010000  0  6G25G16G12G20G24G 3
  -6597267.184 5  -5140726.10224  24683430.630
  -9711015.220 7  -7567008.30226  22653730.750
  14369234.107 5  11196794.81922  24506734.157
  -7365906.384 9  -5739664.59229  21116592.583
   6400120.957 9   4987107.46527  21920026.189
  -7465997.049 6  -5817646.02122  23710143.305
 92  5  9  2 49 30.0010000  0  6G25G16G12G20G24G 3
  -6621076.353 5  -5159278.67422  24678905.858
  -9758864.898 7  -7604293.71726  22644618.247
  14492024.662 5  11292475.68121  24530099.371
  -7389487.316 9  -5758039.34129  21112106.201
   6474280.643 9   5044894.23129  21934134.132
  -7522027.504 6  -5861306.04922  23699476.405
 92  5  9  2 50  0.0010000  0  6G25G16G12G20G24G 3
  -6644324.764 5  -5177394.27922  24674483.310
  -9806263.865 7  -7641227.92926  22635598.718
  14614911.999 5  11388231.89321  24553483.186
  -7412551.829 9  -5776011.67429  21107716.320
   6548708.840 9   5102890.22428  21948299.905
  -7577953.492 6  -5904884.68823  23688832.261
 92  5  9  2 50 30.0010000  0  6G25G16G12G20G24G 3
  -6667024.346 5  -5195082.23923  24670159.390
  -9853216.968 7  -7677814.69025  22626666.370
  14737892.097 5  11484060.39321  24576887.662
  -7435099.001 9  -5793580.90729  21103424.788
   6623413.527 9   5161101.66728  21962512.479
  -7633775.917 6  -5948382.59723  23678219.597
 92  5  9  2 51  0.0010000  0  6G25G16G12G20G24G 3
  -6689196.295 4  -5212359.07822  24665934.413
  -9899727.475 7  -7714056.59325  22617815.899
  14860959.964 5  11579957.29221  24600306.273
  -7457128.993 9  -5810747.13129  21099234.921
   6698407.491 9   5219538.50929  21976785.605
  -7689496.499 6  -5991801.16423  23667615.658
 92  5  9  2 51 30.0010000  0  6G25G16G12G20G24G 3
  -6710846.741 5  -5229229.52124  24661802.097
  -9945790.576 7  -7749949.87626  22609049.991
  14984110.898 5  11675918.90522  24623731.760
  -7478641.620 9  -5827510.21829  21095140.925
   6773692.365 9   5278202.02028  21991113.281
  -7745117.206 6  -6035141.93423  23657020.375
 92  5  9  2 52  0.0010000  0  6G25G16G12G20G24G 3
  -6731985.058 5  -5245700.93622  24657804.043
  -9991385.999 7  -7785478.72226  22600373.394
  15107342.780 5  11771943.59822  24647188.692
  -7499633.993 9  -5843867.92129  21091143.813
   6849260.677 9   5337086.41628  22005493.098
  -7800636.814 6  -6078403.92423  23646459.293
 92  5  9  2 52 30.0010000  0  6G25G16G12G20G24G 3
  -6752607.226 5  -5261770.09322  24653871.671
 -10036501.081 7  -7820633.28525  22591784.920
  15230654.345 5  11868030.39122  24670655.849
  -7520102.787 9  -5859817.62529  21087250.111
   6925113.891 9   5396192.80728  22019926.033
  -7856053.850 6  -6121585.98022  23635914.406
 92  5  9  2 53  0.0010000  0  6G25G16G12G20G24G 3
  -6772697.890 5  -5277425.17022  24650060.404
 -10081137.172 7  -7855414.59425  22583290.608
  15354042.507 5  11964176.87923  24694138.014
  -7540045.964 9  -5875357.76129  21083456.225
   7001241.600 9   5455513.08729  22034412.611
  -7911368.111 6  -6164687.94522  23625395.275
 92  5  9  2 53 30.0010000  0  6G25G16G12G20G24G 3
  -6792238.286 5  -5292651.45422  24646336.702
 -10125299.959 7  -7889827.11326  22574893.738
  15477503.396 5  12060380.02422  24717628.834
  -7559462.663 9  -5890487.66029  21079761.001
   7077641.778 9   5515045.67528  22048950.143
  -7966580.708 6  -6207710.69823  23614884.241
 92  5  9  2 54  0.0010000  0  6G25G16G12G20G24G 3
  -6811211.759 5  -5307435.99225  24642719.412
 -10169006.773 7  -7923884.31226  22566571.799
  15601031.919 5  12156635.83023  24741133.474
  -7578352.909 9  -5905207.32329  21076166.187
   7154319.970 9   5574794.91428  22063543.411
  -8021693.288 6  -6250655.54223  23604400.813
 92  5  9  2 54 30.0010000  0  6G25G16G12G20G24G 3
  -6829608.206 5  -5321770.86129  24639222.632
 -10212272.151 7  -7957597.54126  22558336.797
  15724628.144 5  12252944.40122  24764662.092
  -7596712.644 9  -5919513.61229  21072674.189
   7231295.894 9   5634776.13428  22078191.578
  -8076703.070 6  -6293520.26123  23593928.449
 92  5  9  2 55  0.0010000  0  6G25G16G12G20G24G 3
  -6847431.769 5  -5335659.54126  24635827.762
 -10255104.074 7  -7990973.02126  22550192.920
  15848286.720 5  12349301.57923  24788185.613
  -7614542.526 9  -5933407.02329  21069278.725
   7308567.795 9   5694988.00028  22092897.016
  -8131612.239 6  -6336306.56123  23583479.503
 92  5  9  2 55 30.0010000  0  6G25G16G12G20G24G 3
  -6864682.349 5  -5349101.33922  24632542.654
 -10297492.878 7  -8024003.20527  22542124.602
  15972009.168 5  12445708.56022  24811728.295
  -7631835.855 9  -5946882.34829  21065987.928
   7386141.009 9   5755434.64727  22107658.783
  -8186416.219 6  -6379010.92022  23573050.625
 92  5  9  2 56  0.0010000  0  6G25G16G12G20G24G 3
  -6881367.015 5  -5362102.36224  24629378.022
 -10339431.137 7  -8056682.32826  22534143.221
  16095791.644 5  12542162.23424  24835292.895
  -7648592.132 9  -5959939.18829  21062802.042
   7464009.743 8   5816111.58527  22122474.541
  -8241115.998 6  -6421634.07324  23562642.722
 92  5  9  2 56 30.0010000  0  6G25G16G12G20G24G 3
  -6897507.956 5  -5374679.71021  24626297.675
 -10380903.844 7  -8088998.67026  22526248.499
  16219627.262 5  12638657.36123  24858852.678
  -7664813.346 9  -5972579.09329  21059714.156
   7542163.315 8   5877010.47427  22137348.130
  -8295715.256 6  -6464178.88424  23552253.106
 92  5  9  2 57  0.0020000  0  6G25G16G12G20G24G 3
  -6913107.553 5  -5386835.25023  24623322.224
 -10421898.100 7  -8120942.18226  22518445.794
  16343521.896 5  12735198.45123  24882422.673
  -7680493.174 9  -5984797.13729  21056727.921
   7620581.336 9   5938115.40928  22152267.005
  -8350210.877 6  -6506642.97123  23541880.299
 92  5  9  2 57 30.0020000  0  6G25G16G12G20G24G 3
  -6928169.277 5  -5398571.64522  24620452.919
 -10462403.892 7  -8152505.10426  22510737.823
  16467460.996 5  12831774.21022  24906007.340
  -7695632.681 9  -5996594.15029  21053848.112
   7699246.331 9   5999412.81427  22167241.351
  -8404602.648 6  -6549026.11523  23531533.541
 92  5  9  2 58  0.0020000  0  6G25G16G12G20G24G 3
  -6942702.088 5  -5409895.90224  24617699.310
 -10502408.678 7  -8183677.61026  22503122.514
  16591446.289 5  12928385.93622  24929610.889
  -7710230.113 9  -6007968.77329  21051071.433
   7778156.007 9   6060900.85827  22182257.926
  -8458891.891 6  -6591329.35824  23521193.729
 92  5  9  2 58 30.0020000  0  6G25G16G12G20G24G 3
  -6956696.262 5  -5420800.42925  24615038.361
 -10541898.263 7  -8214448.67126  22495614.208
  16715477.498 5  13025033.46422  24953205.747
  -7724281.385 9  -6018917.80929  21048396.699
   7857302.604 8   6122573.52528  22197314.428
  -8513075.704 6  -6633550.45223  23510887.735
 92  5  9  2 59  0.0020000  0  6G25G16G12G20G24G 3
  -6970131.558 5  -5431269.49023  24612478.728
 -10580882.814 7  -8244826.19226  22488192.840
  16839545.416 5  13121709.56322  24976817.706
  -7737790.569 9  -6029444.44029  21045826.282
   7936672.660 8   6184420.31427  22212419.162
  -8567160.170 6  -6675694.15524  23500592.874
 92  5  9  2 59 30.0020000  0  6G25G16G12G20G24G 3
  -6982989.630 5  -5441288.78422  24610039.013
 -10619361.514 7  -8274809.54827  22480875.231
  16963649.008 5  13218413.48524  25000431.166
  -7750754.420 9  -6039546.13729  21043358.681
   8016290.502 8   6246460.18627  22227570.069
  -8621143.325 6  -6717758.87823  23490327.679
 92  5  9  3  0  0.0020000  0  6G25G16G12G20G24G 3
  -6995255.073 6  -5450846.29523  24607695.833
 -10657336.407 7  -8304400.31926  22473649.619
  17087788.657 5  13315145.52221  25024058.691
  -7763168.314 9  -6049219.28929  21040995.433
   8096167.947 8   6308702.36227  22242771.338
  -8675021.669 6  -6759741.94524  23480071.488
 92  5  9  3  0 30.0020000  0  6G25G16G12G20G24G 3
  -7006927.056 5  -5459941.34424  24605482.762
 -10694823.340 7  -8333610.86426  22466511.852
  17211957.987 5  13411900.67422  25047688.939
  -7775033.883 9  -6058465.17629  21038737.375
   8176308.587 8   6371149.60227  22258019.094
  -8728798.882 6  -6801646.21723  23469838.366
 92  5  9  3  1  0.0020000  0  6G25G16G12G20G24G 3
  -7018026.735 5  -5468590.45124  24603368.354
 -10731841.018 7  -8362455.76126  22459470.619
  17336155.955 5  13508678.07921  25071324.875
  -7786347.862 9  -6067281.24729  21036585.170
   8256726.882 8   6433813.19428  22273320.806
  -8782472.743 6  -6843469.96222  23459626.534
 92  5  9  3  1 30.0020000  0  6G25G16G12G20G24G 3
  -7028584.123 5  -5476816.96222  24601350.445
 -10768381.773 7  -8390929.03726  22452513.636
  17460380.738 5  13605476.39022  25094964.126
  -7797107.504 9  -6075665.37429  21034542.377
   8337419.305 8   6496690.40728  22288681.883
  -8836042.143 6  -6885212.30624  23449431.802
 92  5  9  3  2  0.0020000  0  6G25G16G12G20G24G 3
  -7038619.015 5  -5484636.34622  24599441.950
 -10804442.096 7  -8419027.93726  22445649.593
  17584628.086 5  13702292.29621  25118593.152
  -7807312.586 9  -6083617.36829  21032597.620
   8418364.570 8   6559764.63028  22304083.690
  -8889508.429 6  -6926874.29024  23439253.544
 92  5  9  3  2 30.0020000  0  6G25G16G12G20G24G 3
  -7048162.694 5  -5492072.99121  24597631.804
 -10840046.546 7  -8446771.62026  22438875.488
  17708878.225 5  13799110.32323  25142252.785
  -7816978.514 9  -6091149.24529  21030757.809
   8499533.106 8   6623012.84127  22319529.610
  -8942887.885 6  -6968468.62725  23429098.076
 92  5  9  3  3  0.0020000  0  7G25G16G12G20G17G24G 3
  -7057201.032 5  -5499115.89122  24595920.915
 -10875186.413 7  -8474153.27926  22432189.507
  17833127.905 5  13895928.14021  25165894.131
  -7826104.233 9  -6098260.17529  21029017.220
   -202974.122 4   -158161.41123  25029907.655
   8580916.407 8   6686428.40028  22335015.701
  -8996181.358 6  -7009995.95722  23418956.393
 92  5  9  3  3 30.0020000  0  7G25G16G12G20G17G24G 3
  -7065693.193 5  -5505733.14023  24594290.332
 -10909830.831 7  -8501148.88826  22425599.188
  17957384.373 5  13992751.10122  25189529.160
  -7834678.093 9  -6104941.08729  21027391.453
   -296466.342 4   -231012.26122  25012126.651
   8662523.775 8   6750018.55228  22350543.743
  -9049377.990 6  -7051447.82422  23408838.094
 92  5  9  3  4  0.0020000  0  7G25G16G12G20G17G24G 3
  -7073603.623 5  -5511897.09322  24592793.452
 -10943968.937 8  -8527749.96726  22419105.369
  18081655.303 4  14089585.40021  25213177.695
  -7842688.036 9  -6111182.58329  21025866.094
   -389833.965 4   -303766.01322  24994347.462
   8744381.144 8   6813803.49828  22366120.051
  -9102467.462 6  -7092816.18524  23398730.893
 92  5  9  3  4 30.0020000  0  7G25G16G12G20G17G24G 3
  -7080918.451 5  -5517596.95024  24591410.208
 -10977587.659 7  -8553946.32726  22412703.303
  18205932.488 5  14186424.51922  25236830.104
  -7850138.258 9  -6116987.93429  21024445.088
   -483080.235 4   -376425.25722  24976603.941
   8826493.934 8   6877787.50627  22381745.535
  -9155454.960 6  -7134105.11024  23388646.482
 92  5  9  3  5  0.0020000  0  7G25G16G12G20G17G24G 3
  -7087628.044 5  -5522825.20623  24590116.030
 -11010661.782 7  -8579718.31526  22406410.650
  18330211.289 5  14283264.91022  25260482.827
  -7857029.155 9  -6122357.45029  21023135.589
   -576192.409 4   -448980.01622  24958892.808
   8908864.426 8   6941972.29828  22397420.193
  -9208341.761 6  -7175315.55822  23378585.733
 92  5  9  3  5 30.0020000  0  7G25G16G12G20G17G24G 3
  -7093738.773 5  -5527586.80224  24588958.801
 -11043190.210 7  -8605065.11327  22400218.161
  18454492.105 5  14380106.90522  25284130.175
  -7863355.729 9  -6127287.24329  21021930.128
   -669164.753 4   -521425.77222  24941185.269
   8991490.812 8   7006356.49028  22413146.085
  -9261124.706 6  -7216445.09123  23368542.086
 92  5  9  3  6  0.0020000  0  7G25G16G12G20G17G24G 3
  -7099276.970 5  -5531902.26421  24587908.647
 -11075176.079 7  -8629989.10825  22394138.051
  18578769.206 5  14476946.00522  25307777.803
  -7869119.818 9  -6131778.72029  21020830.799
   -761994.215 4   -593760.19422  24923524.218
   9074348.762 8   7070921.14427  22428912.775
  -9313806.718 6  -7257495.95422  23358510.723
 92  5  9  3  6 30.0020000  0  7G25G16G12G20G17G24G 3
  -7104257.233 5  -5535782.99922  24586963.683
 -11106628.472 7  -8654497.41226  22388148.822
  18703038.556 5  14573779.10022  25331430.212
  -7874320.859 9  -6135831.47829  21019844.478
   -854674.023 5   -665978.04621  24905895.798
   9157423.106 8   7135654.40827  22444721.451
  -9366388.331 6  -7298468.60223  23348509.969
 92  5  9  3  7  0.0020000  0  7G25G16G12G20G17G24G 3
  -7108697.671 5  -5539243.05322  24586117.382
 -11137564.118 8  -8678603.06426  22382261.782
  18827295.169 4  14670602.60222  25355066.462
  -7878959.887 9  -6139446.29129  21018962.474
   -947194.112 5   -738071.45922  24888288.703
   9240702.333 8   7200547.31027  22460568.482
  -9418871.893 6  -7339364.84524  23338520.277
 92  5  9  3  7 30.0020000  0  7G25G16G12G20G17G24G 3
  -7112608.238 5  -5542290.27525  24585361.614
 -11167993.308 7  -8702314.08326  22376472.777
  18951537.562 5  14767415.07722  25378716.463
  -7883034.079 9  -6142620.97329  21018184.823
  -1039554.996 5   -810040.74921  24870708.551
   9324183.780 8   7265597.79527  22476457.185
  -9471255.736 6  -7380183.38423  23328553.690
 92  5  9  3  8  0.0020000  0  7G25G16G12G20G17G24G 3
  -7115992.154 5  -5544927.06923  24584725.448
 -11197900.826 7  -8725618.60726  22370779.748
  19075767.793 4  14864217.70422  25402351.213
  -7886537.025 9  -6145350.53929  21017521.679
  -1131738.112 4   -881871.60222  24853166.510
   9407875.740 8   7330812.31527  22492378.554
  -9523534.750 6  -7420920.23023  23318605.670
 92  5  9  3  8 30.0020000  0  7G25G16G12G20G17G24G 3
  -7118828.513 5  -5547137.22123  24584188.226
 -11227281.955 7  -8748512.94626  22365188.000
  19199986.530 4  14961011.26522  25426003.342
  -7889464.192 9  -6147631.44029  21016964.668
  -1223741.305 4   -953562.16922  24835662.546
   9491793.703 8   7396202.95627  22508349.377
  -9575705.498 7  -7461572.71324  23308678.346
 92  5  9  3  9  0.0020000  0  7G25G16G12G20G17G24G 3
  -7121124.512 5  -5548926.30923  24583747.817
 -11256134.962 8  -8770995.75526  22359701.198
  19324180.336 4  15057785.44322  25449626.400
  -7891824.819 9  -6149470.88129  21016518.571
  -1315578.762 4  -1025123.61624  24818182.837
   9575922.973 8   7461758.23726  22524357.404
  -9627778.314 6  -7502148.89224  23298765.994
 92  5  9  3  9 30.0020000  0  7G25G16G12G20G17G24G 3
  -7122878.958 5  -5550293.40822  24583415.356
 -11284454.016 7  -8793062.51426  22354309.430
  19448343.953 5  15154536.08521  25473259.335
  -7893620.487 9  -6150870.10529  21016172.917
  -1407263.054 4  -1096565.67522  24800731.922
   9660262.718 8   7527477.53527  22540403.787
  -9679755.254 6  -7542650.33623  23288875.839
 92  5  9  3 10  0.0020000  0  7G25G16G12G20G17G24G 3
  -7124062.721 5  -5551215.81023  24583183.303
 -11312230.062 7  -8814706.15026  22349019.606
  19572485.060 5  15251269.17622  25496875.482
  -7894839.528 9  -6151819.99429  21015939.678
  -1498793.136 5  -1167887.63022  24783321.770
   9744821.673 8   7593367.61527  22556497.878
  -9731625.848 6  -7583068.93325  23279007.566
 92  5  9  3 10 30.0020000  0  6G25G16G12G17G24G 3
  -7124662.720 5  -5551683.35825  24583068.201
 -11339474.098 7  -8835935.22826  22343837.973
  19696596.967 4  15347979.96021  25520493.724
  -1590192.819 5  -1239108.40223  24765931.999
   9829593.956 8   7659423.96228  22572630.291
  -9783393.553 7  -7623407.35023  23269155.487
 92  5  9  3 11  0.0020000  0  7G25G16G12G20G17G24G 3
  -7124690.502 5  -5551705.03822  24583070.609
 -11366189.815 7  -8856752.62026  22338754.411
  19820675.557 4  15444664.33622  25544107.184
        38.39619        33.00529  21015802.065
  -1681457.488 4  -1310223.52021  24748553.328
   9914572.816 8   7725641.25326  22588798.685
  -9835059.702 7  -7663666.64923  23259323.790
 92  5  9  3 11 30.0020000  0  7G25G16G12G20G17G24G 3
  -7124126.620 5  -5551265.63024  24583168.924
 -11392380.544 8  -8877160.93627  22333773.351
  19944719.483 4  15541321.69622  25567716.421
       543.748 9       426.78229  21015898.879
  -1772593.563 5  -1381238.39222  24731218.142
   9999765.815 8   7792025.42427  22605014.475
  -9886622.558 7  -7703845.45824  23249510.695
 92  5  9  3 12  0.0020000  0  7G25G16G12G20G17G24G 3
  -7122970.957 5  -5550365.12923  24583403.071
 -11418059.380 8  -8897170.38126  22328881.950
  20068722.700 4  15637947.42122  25591301.717
      1623.622 9      1268.25029  21016104.861
  -1863603.177 5  -1452154.81122  24713890.739
  10085176.021 8   7858578.83627  22621268.619
  -9938085.027 7  -7743946.04424  23239719.762
 92  5  9  3 12 30.0020000  0  7G25G16G12G20G17G24G 3
  -7121247.892 5  -5549022.47125  24583718.745
 -11443221.029 8  -8916776.82026  22324100.834
  20192683.280 5  15734540.32222  25614898.669
      3279.725 9      2558.70829  21016419.942
  -1954467.950 5  -1522958.29424  24696596.910
  10170810.345 8   7925306.88828  22637565.936
  -9989446.163 6  -7783967.65323  23229945.651
 92  5  9  3 13  0.0020000  0  6G25G16G20G17G24G 3
  -7118969.244 6  -5547246.90022  24584158.247
 -11467855.392 8  -8935972.37726  22319408.506
      5514.108 9      4299.78629  21016845.344
  -2045161.837 5  -1593628.62623  24679349.254
  10256677.818 8   7992216.61626  22653903.737
 -10040705.164 7  -7823909.68824  23220190.700
 92  5  9  3 13 30.0020000  0  6G25G16G20G17G24G 3
  -7116140.317 6  -5545042.43829  24584697.563
 -11491969.028 8  -8954762.17827  22314818.959
      8325.978 9      6490.84529  21017381.973
  -2135675.109 5  -1664158.21521  24662121.352
  10342783.705 8   8059312.12027  22670289.771
 -10091863.271 6  -7863773.11524  23210452.850
 92  5  9  3 14  0.0020000  0  6G25G16G20G17G24G 3
  -7112784.754 5  -5542427.84723  24585335.229
 -11515549.968 8  -8973136.90227  22310331.670
     11719.584 9      9135.21529  21018027.107
  -2225987.228 5  -1734531.08721  24644933.062
  10429114.632 8   8126582.99027  22686717.197
 -10142917.570 7  -7903555.65724  23200741.350
 92  5  9  3 14 30.0020000  0  5G25G16G17G24G 3
  -7108899.195 5  -5539400.15122  24586068.836
 -11538578.727 8  -8991081.34526  22305952.608
  -2316087.618 5  -1804738.98523  24627787.944
  10515639.926 8   8194005.29626  22703182.699
 -10193868.683 7  -7943257.78825  23191049.674
 92  5  9  3 15  0.0020000  0  6G25G16G20G17G24G 3
  -7104459.782 5  -5535940.85522  24586914.823
 -11561049.885 8  -9008591.29226  22301675.455
      5811.07019      4531.23729  21019653.503
  -2405976.251 5  -1874781.82822  24610691.372
  10602343.839 8   8261566.77326  22719678.808
 -10244713.748 6  -7982877.29024  23181367.874
 92  5  9  3 15 30.0020000  0  6G25G16G20G17G24G 3
  -7099449.637 5  -5532036.80623  24587866.976
 -11582961.289 8  -9025665.07027  22297506.563
     10965.197 9      8547.42729  21020631.413
  -2495664.831 5  -1944668.90622  24593617.905
  10689210.397 8   8329255.01326  22736208.736
 -10295444.731 7  -8022407.88425  23171717.555
 92  5  9  3 16  0.0020000  0  6G25G16G20G17G24G 3
  -7093874.840 5  -5527692.81722  24588924.355
 -11604310.428 8  -9042300.73526  22293439.266
     16697.285 9     13013.99029  21021724.180
  -2585190.640 5  -2014429.13122  24576583.072
  10776206.364 8   8397044.08326  22752763.584
 -10346078.155 7  -8061862.47124  23162081.021
 92  5  9  3 16 30.0020000  0  6G25G16G20G17G24G 3
  -7087727.090 5  -5522902.38422  24590102.524
 -11625099.900 8  -9058500.27926  22289488.607
     23008.225 9     17931.60329  21022927.233
  -2674555.655 5  -2084063.97923  24559582.442
  10863357.154 8   8464953.79126  22769355.600
 -10396614.314 6  -8101241.26525  23152460.088
 92  5  9  3 17  0.0020000  0  6G25G16G20G17G24G 3
  -7081006.664 5  -5517665.70623  24591383.544
 -11645339.194 8  -9074271.11126  22285634.482
     29903.222 9     23304.32329  21024238.827
  -2763765.042 5  -2153577.64822  24542602.507
  10950693.740 8   8533008.28325  22785968.312
 -10447048.202 7  -8140540.37525  23142870.042
 92  5  9  3 17 30.0020000  0  6G25G16G20G17G24G 3
  -7073720.975 6  -5511988.53222  24592770.069
 -11665029.077 8  -9089613.82826  22281886.768
     37381.441 9     29131.50129  21025662.520
  -2852825.344 5  -2222975.06822  24525655.554
  11038223.609 8   8601213.38027  22802624.160
 -10497380.899 7  -8179760.63725  23133291.373
 92  5  9  3 18  0.0020000  0  6G25G16G20G17G24G 3
  -7065876.446 6  -5505875.89023  24594259.759
 -11684162.978 8  -9104523.32926  22278243.686
     45447.624 9     35416.82829  21027194.161
  -2941713.993 5  -2292238.81022  24508742.140
  11125966.462 7   8669584.42826  22819323.216
 -10547608.844 7  -8218899.26524  23123730.084
 92  5  9  3 18 30.0020000  0  6G25G16G20G17G24G 3
  -7057484.356 5  -5499336.58924  24595857.326
 -11702753.910 8  -9119009.72226  22274710.331
     54101.870 9     42160.40129  21028841.845
  -3030411.049 5  -2361353.22322  24491857.239
  11213925.488 8   8738123.93026  22836059.127
 -10597732.006 7  -8257956.26526  23114192.493
 92  5  9  3 19  0.0020000  0  6G25G16G20G17G24G 3
  -7048547.655 5  -5492372.92122  24597555.372
 -11720805.900 8  -9133076.17126  22271272.324
     63338.503 9     49357.77029  21030600.408
  -3118933.274 5  -2430331.4132   24475017.605
  11302072.183 8   8806809.66826  22852834.021
 -10647756.724 7  -8296936.54225  23104670.154
 92  5  9  3 19 30.0020000  0  6G25G16G20G17G24G 3
  -7039071.487 5  -5484988.91722  24599360.423
 -11738309.250 8  -9146715.10526  22267943.730
     73162.039 9     57012.47329  21032472.014
  -3207267.487 5  -2499163.14422  24458197.130
  11390404.722 8   8875640.23626  22869644.584
 -10697679.420 7  -8335837.32525  23095170.639
 92  5  9  3 20  0.0020000  0  6G25G16G20G17G24G 3
  -7029076.999 5  -5477201.00523  24601266.789
 -11755279.704 8  -9159938.79426  22264713.172
     83559.380 9     65114.28729  21034446.750
  -3295419.250 5  -2567852.69223  24441432.148
  11478914.913 7   8944609.19927  22886483.625
 -10747513.113 7  -8374668.75425  23085686.097
 92  5  9  3 20 30.0020000  0  6G25G16G20G17G24G 3
  -7018542.001 5  -5468991.91222  24603269.097
 -11771695.876 8  -9172730.58126  22261593.526
     94543.896 9     73673.64829  21036535.402
  -3383390.303 5  -2636401.46122  24424692.328
  11567613.326 7   9013724.83626  22903364.931
 -10797245.021 7  -8413420.88424  23076224.973
 92  5  9  3 21  0.0020000  0  6G25G16G20G17G24G 3
  -7007449.816 5  -5460348.68822  24605383.260
 -11787545.621 8  -9185080.99525  22258575.825
    106120.125 9     82694.08129  21038740.970
  -3471184.525 5  -2704812.43223  24407983.989
  11656499.470 8   9082986.75626  22920280.125
 -10846871.318 7  -8452090.71225  23066779.100
 92  5  9  3 21 30.0020000  0  6G25G16G20G17G24G 3
  -6995798.977 5  -5451270.06422  24607600.799
 -11802822.452 8  -9196984.98427  22255664.222
    118292.008 9     92178.65929  21041053.298
  -3558786.145 5  -2773073.31722  24391318.857
  11745571.028 8   9152393.16326  22937229.486
 -10896388.328 7  -8490675.38325  23057360.834
 92  5  9  3 22  0.0020000  0  6G25G16G20G17G24G 3
  -6983579.440 5  -5441748.38723  24609919.410
 -11817524.694 8  -9208441.23727  22252867.161
    131052.861 9    102122.18329  21043486.103
  -3646206.235 5  -2841192.76323  24374676.759
  11834807.375 7   9221927.96526  22954211.515
 -10945802.995 7  -8529180.30125  23047954.817
 92  5  9  3 22 30.0020000  0  6G25G16G20G17G24G 3
  -6970783.160 5  -5431777.24523  24612357.310
 -11831637.100 8  -9219437.88926  22250178.013
    144400.820 9    112523.17829  21046026.854
  -3733454.968 5  -2909178.65321  24358076.367
  11924179.463 7   9291568.54326  22971218.148
 -10995117.600 7  -8567607.23725  23038570.439
 92  5  9  3 23  0.0020000  0  6G25G16G20G17G24G 3
  -6957421.381 5  -5421365.51624  24614907.345
 -11845158.539 8  -9229974.03027  22247610.283
    158341.041 9    123385.68529  21048677.298
  -3820515.096 5  -2977017.58924  24341509.235
  12013682.123 7   9361310.86126  22988248.478
 -11044327.144 7  -8605952.33224  23029204.314
 92  5  9  3 23 30.0020000  0  6G25G16G20G17G24G 3
  -6943512.246 5  -5410527.18622  24617543.445
 -11858100.152 8  -9240058.37126  22245144.811
    172868.776 9    134705.99429  21051440.784
  -3907388.996 5  -3044711.42523  24324971.768
  12103321.714 7   9431159.88026  23005303.658
 -11093436.693 7  -8644219.49725  23019862.480
 92  5  9  3 24  0.0020000  0  6G25G16G20G17G24G 3
  -6929059.456 5  -5399265.27521  24620291.330
 -11870455.811 8  -9249686.12527  22242797.129
    187989.320 9    146488.23329  21054317.313
  -3994078.844 5  -3112261.81222  24308478.101
  12193106.191 7   9501121.79526  23022395.134
 -11142441.122 7  -8682404.73425  23010535.652
 92  5  9  3 24 30.0020000  0  6G25G16G20G17G24G 3
  -6914084.174 5  -5387596.21522  24623146.849
 -11882234.719 8  -9258864.47327  22240552.577
    203705.741 9    158734.78929  21057312.224
  -4080575.124 5  -3179661.38123  24292026.385
  12283046.799 7   9571205.38226  23039510.587
 -11191337.462 7  -8720505.76425  23001233.081
 92  5  9  3 25  0.0020000  0  6G25G16G20G17G24G 3
  -6898599.627 6  -5375530.38622  24626097.716
 -11893461.215 8  -9267612.35327  22238414.751
    220013.542 9    171442.16229  21060411.767
  -4166875.678 5  -3246908.41722  24275595.365
  12373162.465 7   9641425.37526  23056654.798
 -11240130.386 7  -8758526.20425  22991945.516
 92  5  9  3 25 30.0020000  0  6G25G16G20G17G24G 3
  -6882586.838 5  -5363052.89722  24629134.019
 -11904124.731 8  -9275921.55627  22236386.373
    236917.168 9    184613.81929  21063630.669
  -4252978.848 5  -3314001.64422  24259210.203
  12463458.601 7   9711785.97326  23073839.528
 -11288815.868 7  -8796462.91026  22982682.836
 92  5  9  3 26  0.0020000  0  6G25G16G20G17G24G 3
  -6866036.898 5  -5350156.85823  24632296.208
 -11914215.950 8  -9283784.83127  22234464.092
    254416.486 9    198249.64929  21066959.542
  -4338873.248 5  -3380932.21422  24242861.304
  12553916.258 7   9782272.45226  23091052.388
 -11337393.895 7  -8834315.89825  22973442.318
 92  5  9  3 26 30.0020000  0  6G25G16G20G17G24G 3
  -6848939.682 5  -5336834.35122  24635540.866
 -11923749.938 8  -9291213.88826  22232653.946
    272506.122 9    212345.46229  21070400.551
  -4424552.558 5  -3447695.14422  24226571.491
  12644537.147 7   9852886.10526  23108299.171
 -11385870.136 7  -8872089.54425  22964213.491
 92  5  9  3 27  0.0020000  0  6G25G16G20G17G24G 3
  -6831269.624 6  -5323065.49722  24638903.628
 -11932718.942 8  -9298202.69026  22230949.932
    291190.987 9    226905.10029  21073956.696
  -4510012.996 5  -3514287.54924  24210293.648
  12735322.144 7   9923627.63326  23125571.117
 -11434239.730 7  -8909780.10425  22955008.675
 92  5  9  3 27 30.0020000  0  6G25G16G20G17G24G 3
  -6813015.724 5  -5308841.71923  24642379.153
 -11941114.577 8  -9304744.72726  22229347.548
    310473.943 9    241930.78229  21077626.476
  -4595241.115 5  -3580698.91723  24194084.769
  12826267.539 7   9994494.17126  23142879.325
 -11482499.609 7  -8947385.16325  22945823.649
 92  5  9  3 28  0.0020000  0  6G25G16G20G17G24G 3
  -6794195.326 5  -5294176.49421  24645961.962
 -11948947.377 8  -9310848.18627  22227862.674
    330348.269 9    257417.26329  21081407.136
  -4680239.420 5  -3646931.19323  24177911.279
  12917371.626 7  10065484.34026  23160215.733
 -11530656.550 7  -8984910.00026  22936658.376
 92  5  9  3 28 30.0020000  0  6G25G16G20G17G24G 3
  -6774816.036 6  -5279075.78122  24649650.903
 -11956221.266 8  -9316516.12926  22226477.022
    350816.467 9    273366.50229  21085301.152
  -4765017.523 5  -3712991.95523  24161772.550
  13008653.604 7  10136613.12526  23177588.401
 -11578708.350 7  -9022352.90325  22927522.523
 92  5  9  3 29  0.0020000  0  6G25G16G20G17G24G 3
  -6754892.189 5  -5263550.70822  24653439.380
 -11962916.887 8  -9321733.48327  22225201.097
    371876.758 9    289777.11629  21089309.991
  -4849592.290 5  -3778894.17923  24145676.085
  13100097.101 7  10207867.76226  23194986.548
 -11626656.456 7  -9059715.00925  22918388.137
 92  5  9  3 29 30.0020000  0  6G25G16G20G17G24G 3
  -6734435.701 5  -5247610.63921  24657338.771
 -11969016.630 8  -9326486.51126  22224040.030
    393535.240 9    306653.85629  21093433.931
  -4933965.405 5  -3844639.31222  24129620.699
  13191698.337 7  10279245.32625  23212420.991
 -11674494.966 7  -9096991.72026  22909292.141
 92  5  9  3 30  0.0020000  0  6G25G16G20G17G24G 3
  -6713462.997 5  -5231268.29524  24661320.631
 -11974519.962 8  -9330774.80427  22222992.528
    415788.942 9    323994.39129  21097669.378
  -5018157.430 5  -3910243.37423  24113596.198
  13283434.877 7  10350728.30926  23229876.688
 -11722226.382 7  -9134184.96325  22900203.928
 92  5  9  3 30 30.0020000  0  6G25G16G20G17G24G 3
  -6691957.830 5  -5214511.12222  24665414.278
 -11979428.243 8  -9334599.40727  22222055.975
    438639.627 9    341800.11629  21102014.866
  -5102171.468 6  -3975708.69024  24097622.653
  13375291.757 7  10422305.08225  23247356.396
 -11769848.715 7  -9171293.23225  22891146.288
 92  5  9  3 31  0.0020000  0  6G25G16G20G17G24G 3
  -6669919.101 5  -5197338.09822  24669608.682
 -11983735.011 8  -9337955.32227  22221236.652
    462084.622 9    360068.93529  21106475.176
  -5186005.323 5  -4041033.63022  24081663.207
  13467252.468 7  10493962.73125  23264855.579
 -11817364.486 7  -9208318.45326  22882103.341
 92  5  9  3 31 30.0020000  0  6G25G16G20G17G24G 3
  -6647342.172 5  -5179745.68421  24673898.713
 -11987448.125 8  -9340848.64227  22220532.431
    486128.022 9    378804.04829  21111054.532
  -5269635.432 5  -4106199.80322  24065746.620
  13559334.451 7  10565714.90026  23282374.237
 -11864769.463 7  -9245257.34724  22873083.498
 92  5  9  3 32  0.0020000  0  6G25G16G20G17G24G 3
  -6624225.206 5  -5161732.5102   24678300.566
 -11990582.731 8  -9343291.17626  22219937.065
    510763.832 9    398000.77829  21115736.670
  -5353053.851 5  -4171201.02723  24049882.208
  13651544.824 7  10637567.11426  23299922.315
 -11912069.154 7  -9282114.19625  22864081.943
 92  5  9  3 32 30.0020000  0  6G25G16G20G17G24G 3
  -6600571.493 5  -5143301.13122  24682800.139
 -11993131.655 8  -9345277.33027  22219448.389
    535994.860 9    417661.31729  21120543.856
  -5436249.268 6  -4236028.50422  24034042.087
  13743906.660 7  10709537.36225  23317500.024
 -11959260.803 7  -9318886.86326  22855100.455
 92  5  9  3 33  0.0020000  0  6G25G16G20G17G24G 3
  -6576399.151 5  -5124465.55122  24687405.566
 -11995079.093 8  -9346794.78926  22219080.259
    561828.469 9    437791.38729  21125458.361
  -5519218.771 5  -4300679.93523  24018246.603
  13836434.521 7  10781636.99526  23335112.250
 -12006336.377 7  -9355569.06926  22846142.351
 92  5  9  3 33 30.0020000  0  6G25G16G20G17G24G 3
  -6551722.940 5  -5105237.40723  24692097.301
 -11996442.482 8  -9347857.15827  22218816.132
    588256.836 9    458384.90729  21130486.781
  -5601966.075 5  -4365158.22823  24002511.393
  13929118.062 7  10853857.91726  23352744.822
 -12053303.303 7  -9392166.62625  22837207.037
 92  5  9  3 34  0.0020000  0  6G25G16G20G17G24G 3
  -6526538.763 5  -5085613.42222  24696893.110
 -11997223.008 8  -9348465.33626  22218670.144
    615285.221 8    479445.98629  21135630.302
  -5684498.479 5  -4429469.03522  23986799.601
  14021948.641 7  10926193.42325  23370410.411
 -12100155.671 7  -9428674.91426  22828289.103
 92  5  9  3 34 30.0020000  0  6G25G16G20G17G24G 3
  -6500841.494 5  -5065589.68022  24701782.696
 -11997414.707 8  -9348614.74726  22218633.847
    642916.701 9    500977.00529  21140892.869
  -5766813.192 6  -4493610.26522  23971135.413
  14114915.738 7  10998635.31225  23388102.070
 -12146890.978 7  -9465092.00425  22819396.647
 92  5  9  3 35  0.0020000  0  6G25G16G20G17G24G 3
  -6474624.420 5  -5045160.79424  24706767.944
 -11997028.414 8  -9348313.68227  22218710.314
    671144.740 9    522972.87029  21146263.348
  -5848902.137 6  -4557575.53422  23955519.841
  14207997.707 7  11071166.67325  23405816.484
 -12193514.678 7  -9501422.10825  22810527.294
 92  5  9  3 35 30.0020000  0  6G25G16G20G17G24G 3
  -6447871.622 5  -5024314.49021  24711861.418
 -11996070.484 8  -9347567.24127  22218893.193
    699964.525 9    545429.82829  21151742.053
  -5930755.474 6  -4621357.23224  23939941.439
  14301192.544 7  11143786.05425  23423549.814
 -12240031.385 7  -9537668.86426  22801674.415
 92  5  9  3 36  0.0020000  0  6G25G16G20G17G24G 3
  -6420578.599 5  -5003047.24623  24717052.334
 -11994530.258 8  -9346367.04526  22219181.889
    729376.701 9    568348.40729  21157340.677
  -6012373.473 6  -4684955.55824  23924410.082
  14394503.589 7  11216495.93225  23441304.712
 -12286439.940 7  -9573831.34425  22792834.135
 92  5  9  3 36 30.0020000  0  6G25G16G20G17G24G 3
  -6392734.213 5  -4981350.41722  24722358.666
 -11992387.183 8  -9344697.09226  22219592.597
    759389.178 9    591734.74729  21163051.121
  -6093739.667 6  -4748357.69722  23908922.211
  14487943.694 7  11289306.37325  23459085.123
 -12332731.720 7  -9609902.83925  22784031.651
 92  5  9  3 37  0.0020000  0  6G25G16G20G17G24G 3
  -6364349.346 5  -4959232.36522  24727751.028
 -11989648.397 8  -9342562.95327  22220111.846
    789994.340 9    615582.91129  21168876.701
  -6174871.044 6  -4811576.84623  23893485.888
  14581507.749 7  11362213.42625  23476887.975
 -12378913.860 7  -9645888.91126  22775246.828
 92  5  9  3 37 30.0020000  0  6G25G16G20G17G24G 3
  -6335425.690 5  -4936694.54023  24733264.215
 -11986316.211 8  -9339966.43326  22220748.884
    821191.783 9    639892.59529  21174811.974
  -6255788.700 6  -4874629.46223  23878088.828
  14675193.062 7  11435214.95724  23494719.654
 -12424986.129 7  -9681789.34326  22766475.790
 92  5  9  3 38  0.0020000  0  6G25G16G20G17G24G 3
  -6305975.476 5  -4913746.41522  24738867.933
 -11982394.612 8  -9336910.61426  22221491.181
    852981.868 9    664664.08129  21180861.790
  -6336502.587 6  -4937523.31522  23862731.659
  14768982.543 7  11508297.67624  23512566.306
 -12470947.464 7  -9717603.34925  22757729.636
 92  5  9  3 38 30.0020000  0  6G25G16G20G17G24G 3
  -6275999.113 5  -4890388.22022  24744567.593
 -11977882.938 8  -9333395.00826  22222351.581
    885365.783 9    689898.28129  21187026.114
  -6417011.908 6  -5000257.73824  23847405.691
  14862873.915 7  11581459.77725  23530430.932
 -12516795.729 7  -9753329.26526  22749006.307
 92  5  9  3 39  0.0020000  0  6G25G16G20G17G24G 3
  -6245503.177 5  -4866625.22922  24750363.474
 -11972783.569 8  -9329421.46027  22223319.929
    918341.449 9    715593.60129  21193300.794
  -6497317.994 6  -5062833.80222  23832126.769
  14956862.876 7  11654697.90325  23548319.255
 -12562532.657 7  -9788968.40626  22740301.231
 92  5  9  3 39 30.0020000  0  6G25G16G20G17G24G 3
  -6214493.786 5  -4842462.10622  24756276.899
 -11967087.953 8  -9324983.29026  22224403.971
    951908.798 9    741749.94529  21199691.762
  -6577405.669 6  -5125239.68924  23816884.702
  15050947.196 7  11728010.37025  23566225.237
 -12608157.633 7  -9824520.32426  22731619.818
 92  5  9  3 40  0.0020000  0  6G25G16G20G17G24G 3
  -6182975.875 5  -4817902.80722  24762268.536
 -11960785.554 8  -9320072.30127  22225605.523
    986071.112 9    768369.91929  21206189.769
  -6657247.021 6  -5187453.63023  23801693.345
  15145135.711 7  11801403.99925  23584145.633
 -12653666.537 8  -9859981.77826  22722958.821
 92  5  9  3 40 30.0020000  0  6G25G16G20G17G24G 3
  -6150947.073 5  -4792945.36722  24768361.523
 -11953875.851 8  -9314688.10126  22226923.434
   1020828.851 9    795453.85229  21212804.065
  -6736823.183 6  -5249460.93324  23786549.313
  15239442.363 7  11874889.71525  23602095.695
 -12699058.099 7  -9895351.81926  22714321.208
 92  5  9  3 41  0.0020000  0  6G25G16G20G17G24G 3
  -6118415.416 5  -4767596.09323  24774556.141
 -11946368.039 8  -9308837.84026  22228349.849
   1056179.197 9    822999.56229  21219533.218
  -6816123.171 6  -5311253.05623  23771453.548
  15333864.693 7  11948465.55223  23620063.172
 -12744334.136 7  -9930631.83826  22705706.663
 92  5  9  3 41 30.0020000  0  6G25G16G20G17G24G 3
  -6085381.852 5  -4741855.76522  24780846.072
 -11938270.647 8  -9302528.16026  22229891.053
   1092124.212 9    851008.64829  21226368.782
  -6895147.083 6  -5372830.03223  23756420.186
  15428404.679 7  12022133.06625  23638051.625
 -12789492.034 8  -9965819.79927  22697113.722
 92  5  9  3 42  0.0020000  0  6G25G16G20G17G24G 3
  -6051848.094 5  -4715725.62224  24787228.350
 -11929599.295 8  -9295771.23927  22231540.517
   1128658.832 9    879477.16829  21233322.764
  -6973912.336 6  -5434205.44824  23741428.460
  15523058.124 7  12095889.00723  23656061.645
 -12834535.771 8 -10000918.79626  22688546.259
 92  5  9  3 42 30.0020000  0  6G25G16G20G17G24G 3
  -6017810.519 5  -4689202.94722  24793702.381
 -11920356.443 8  -9288568.99827  22233300.616
   1165783.380 9    908405.36329  21240385.600
  -7052435.825 6  -5495392.49923  23726488.909
  15617823.653 7  12169732.27925  23674091.455
 -12879464.050 7 -10035927.84725  22679991.673
 92  5  9  3 43  0.0020000  0  6G25G16G20G17G24G 3
  -5983269.137 5  -4662287.66023  24800275.913
 -11910529.049 8  -9280911.27427  22235169.813
   1203498.853 8    937794.02429  21247562.909
  -7130730.369 6  -5556401.13022  23711594.590
  15712701.516 7  12243663.06625  23692150.650
 -12924274.917 8 -10070845.39225  22671461.379
 92  5  9  3 43 30.0020000  0  6G25G16G20G17G24G 3
  -5948220.551 5  -4634977.16522  24806945.421
 -11900104.487 8  -9272788.22127  22237150.832
   1241805.424 9    967643.27829  21254855.669
  -7208814.537 6  -5617245.84223  23696733.601
  15807684.717 7  12317675.96224  23710226.039
 -12968967.305 8 -10105670.61526  22662960.156
 92  5  9  3 44  0.0020000  0  6G25G16G20G17G24G 3
  -5912670.859 5  -4607276.23322  24813706.926
 -11889087.727 8  -9264203.70027  22239251.489
   1280694.205 9    997946.20629  21262255.155
  -7286694.838 6  -5677931.69423  23681909.466
  15902766.154 7  12391765.38525  23728319.123
 -13013548.871 7 -10140409.48326  22654474.220
 92  5  9  3 44 30.0020000  0  6G25G16G20G17G24G 3
  -5876630.632 5  -4579192.95122  24820566.781
 -11877466.151 8  -9255147.92127  22241456.464
   1320171.749 9   1028707.91229  21269765.240
  -7364349.664 6  -5738441.85524  23667137.787
  15997950.399 7  12465934.92825  23746428.680
 -13058012.254 8 -10175056.28425  22646016.483
 92  5  9  3 45  0.0020000  0  6G25G16G20G17G24G 3
  -5840103.936 5  -4550730.62921  24827517.482
 -11865242.253 8  -9245622.78226  22243786.731
   1360236.111 9   1059926.87729  21277391.055
  -7441773.976 6  -5798772.38825  23652400.869
  16093228.429 7  12540177.57025  23764562.527
 -13102358.276 7 -10209611.62726  22637576.720
 92  5  9  3 45 30.0020000  0  6G25G16G20G17G24G 3
  -5803082.479 5  -4521882.85022  24834562.903
 -11852423.443 8  -9235634.07126  22246223.165
   1400889.679 9   1091604.96729  21285128.412
  -7518967.211 6  -5858922.86723  23637711.345
  16188594.170 7  12614488.52725  23782712.254
 -13146583.247 7 -10244072.63926  22629160.376
 92  5  9  3 46  0.0020000  0  6G25G16G20G17G24G 3
  -5765563.961 5  -4492647.69922  24841709.326
 -11839014.335 8  -9225185.39826  22248776.481
   1442135.816 9   1123744.80329  21292974.588
  -7595908.022 6  -5918876.64323  23623069.775
  16284046.910 6  12688867.27225  23800870.393
 -13190683.201 8 -10278436.23226  22620770.660
 92  5  9  3 46 30.0020000  0  6G25G16G20G17G24G 3
  -5727555.590 5  -4463030.94222  24848929.528
 -11825012.261 8  -9214274.67826  22251443.433
   1483970.356 9   1156343.12729  21300936.459
  -7672596.562 6  -5978633.85025  23608475.600
  16379572.340 6  12763302.66125  23819050.413
 -13234660.696 8 -10312704.42126  22612397.173
 92  5  9  3 47  0.0020000  0  6G25G16G20G17G24G 3
  -5689038.148 5  -4433017.44823  24856264.552
 -11810423.880 8  -9202907.07526  22254222.205
   1526389.131 9   1189396.69729  21309007.464
  -7749052.154 6  -6038209.51924  23593928.749
  16475177.039 7  12837799.86324  23837245.406
 -13278518.493 8 -10346879.28826  22604052.130
 92  5  9  3 47 30.0020000  0  6G25G16G20G17G24G 3
  -5650019.161 5  -4402613.09122  24863690.737
 -11795249.254 8  -9191082.67427  22257108.018
   1569389.612 9   1222903.55529  21317192.105
  -7825266.243 6  -6097597.03724  23579419.102
  16570872.775 6  12912367.96024  23855452.126
 -13322258.052 8 -10380962.06926  22595727.504
 92  5  9  3 48  0.0020000  0  6G25G16G20G17G24G 3
  -5610502.331 5  -4371820.87523  24871216.108
 -11779476.792 8  -9178792.43127  22260108.059
   1612977.423 9   1256868.06429  21325485.879
  -7901216.980 6  -6156779.36023  23564968.821
  16666673.412 6  12987017.78724  23873682.508
 -13365872.410 8 -10414947.29526  22587433.136
 92  5  9  3 48 30.0020000  0  6G25G16G20G17G24G 3
  -5570499.357 5  -4340649.78121  24878811.071
 -11763103.925 8  -9166034.34127  22263223.202
   1657144.784 9   1291284.16929  21333891.440
  -7976913.102 6  -6215763.25024  23550567.087
  16762584.854 6  13061753.99825  23891935.052
 -13409368.101 8 -10448840.03826  22579154.683
 92  5  9  3 49  0.0020000  0  6G25G16G20G17G24G 3
  -5530004.364 5  -4309095.31523  24886527.418
 -11746118.671 8  -9152799.04627  22266455.541
   1701896.176 9   1326155.37429  21342405.855
  -8052346.849 6  -6274542.67523  23536216.307
  16858615.747 6  13136583.25525  23910209.792
 -13452739.298 8 -10482635.77326  22570897.205
 92  5  9  3 49 30.0020000  0  6G25G16G20G17G24G 3
  -5489034.706 5  -4277170.92422  24894318.417
 -11728524.797 8  -9139089.52327  22269801.830
   1747228.854 9   1361479.53029  21351032.684
  -8127500.726 6  -6333104.05924  23521907.512
  16954740.786 6  13211485.90124  23928504.950
 -13495987.340 8 -10516335.53527  22562671.172
 92  5  9  3 50  0.0020000  0  6G25G16G20G17G24G 3
  -5447594.674 5  -4244880.07723  24902213.454
 -11710322.217 8  -9124905.68927  22273268.350
   1793140.801 9   1397255.07329  21359767.739
  -8202385.924 6  -6391456.05624  23507659.584
  17050943.975 6  13286449.41624  23946805.168
 -13539113.019 8 -10549939.95026  22554463.776
 92  5  9  3 50 30.0020000  0  6G25G16G20G17G24G 3
  -5405682.180 5  -4212221.05621  24910192.740
 -11691517.206 8  -9110252.41126  22276849.658
   1839634.184 9   1433483.65829  21368616.710
  -8277006.567 6  -6449601.91023  23493463.797
  17147222.063 6  13361471.27825  23965130.584
 -13582112.271 8 -10583445.83927  22546280.950
 92  5  9  3 51  0.0020000  0  6G25G16G20G17G24G 3
  -5363303.436 5  -4179198.75722  24918249.645
 -11672124.562 8  -9095141.23127  22280538.006
   1886707.336 9   1470164.03429  21377574.814
  -8351368.626 6  -6507546.29425  23479305.807
  17243564.356 6  13436543.20723  23983465.597
 -13624985.851 8 -10616853.81526  22538123.288
 92  5  9  3 51 30.0020000  0  6G25G16G20G17G24G 3
  -5320468.428 5  -4145820.89823  24926402.806
 -11652160.653 8  -9079584.92626  22284335.767
   1934354.424 9   1507291.62729  21386641.738
  -8425479.573 6  -6565294.98024  23465212.558
  17339964.874 6  13511660.52425  24001805.113
 -13667737.784 8 -10650166.99427  22529992.603
 92  5  9  3 52  0.0020000  0  6G25G16G20G17G24G 3
  -5277167.890 5  -4112080.32523  24934644.997
 -11631608.341 8  -9063570.12527  22288246.570
   1982583.373 9   1544872.61529  21395818.074
  -8499340.984 6  -6622849.23824  23451147.508
  17436441.667 6  13586837.24624  24020166.476
 -13710358.665 8 -10683378.05926  22521876.018
 92  5  9  3 52 30.0020000  0  6G25G16G20G17G24G 3
  -5233405.380 5  -4077979.73422  24942972.939
 -11610477.407 8  -9047104.43927  22292270.067
   2031390.155 9   1582903.85429  21405102.951
  -8572944.484 6  -6680202.52524  23437142.696
  17532994.015 6  13662072.81723  24038538.659
 -13752850.911 8 -10716488.89527  22513792.414
 92  5  9  3 53  0.0020000  0  6G25G16G20G17G24G 3
  -5189184.456 5  -4043521.91124  24951379.721
 -11588747.767 8  -9030172.23827  22296405.419
   2080774.094 9   1621384.84329  21414503.837
  -8646287.962 6  -6737353.22025  23423183.185
  17629620.599 6  13737366.30025  24056928.850
 -13795213.669 8 -10749498.79627  22505726.819
 92  5  9  3 53 30.0020000  0  6G25G16G20G17G24G 3
  -5144505.553 5  -4008707.22422  24959887.540
 -11566408.267 8  -9012764.81827  22300651.965
   2130731.552 9   1660312.71829  21424009.669
  -8719374.801 6  -6794303.90622  23409282.690
  17726318.648 6  13812715.43025  24075334.293
 -13837449.033 8 -10782409.45327  22497695.356
 92  5  9  3 54  0.0020000  0  6G25G16G20G17G24G 3
  -5099372.102 5  -3973538.30922  24968475.979
 -11543452.693 8  -8994877.34027  22305022.337
   2181253.696 9   1699680.61529  21433624.599
  -8792216.819 6  -6851063.84822  23395417.585
  17823078.938 6  13888113.03825  24093743.051
 -13879563.931 8 -10815226.23126  22489679.808
 92  5  9  3 54 30.0020000  0  6G25G16G20G17G24G 3
  -5053775.077 5  -3938008.22522  24977153.483
 -11519870.641 8  -8976501.69327  22309508.160
   2232348.228 9   1739494.51429  21443348.070
  -8864804.703 6  -6907625.78323  23381600.747
  17919910.661 6  13963566.34224  24112167.410
 -13921549.153 8 -10847941.97026  22481689.144
 92  5  9  3 55  0.0020000  0  6G25G16G20G17G24G 3
  -5007704.514 5  -3902109.14021  24985922.392
 -11495657.296 8  -8957634.12927  22314115.645
   2284015.705 9   1779754.88029  21453183.083
  -8937149.590 6  -6963998.35124  23367837.900
  18016813.955 6  14039075.42125  24130610.335
 -13963402.121 8 -10880554.65026  22473724.551
 92  5  9  3 55 30.0020000  0  6G25G16G20G17G24G 3
  -4961152.970 5  -3865835.30422  24994786.056
 -11470841.268 8  -8938296.94926  22318838.582
   2336255.350 9   1820461.08629  21463120.284
  -9009246.581 6  -7020177.75623  23354119.690
  18113789.896 6  14114641.06824  24149057.763
 -14005122.188 8 -10913063.76826  22465784.562
 92  5  9  3 56  0.0020000  0  6G25G16G20G17G24G 3
  -4914131.089 5  -3829194.96222  25003733.690
 -11445444.209 8  -8918507.02327  22323673.653
   2389059.636 9   1861607.27829  21473168.119
  -9081090.133 6  -7076159.66923  23340446.432
  18210828.662 6  14190255.70523  24167530.075
 -14046714.936 8 -10945473.67327  22457868.236
 92  5  9  3 56 30.0020000  0  6G25G16G20G17G24G 3
  -4866645.520 5  -3792193.21722  25012755.941
 -11419487.600 8  -8898281.06927  22328611.541
   2442431.805 9   1903195.96329  21483326.589
  -9152671.437 6  -7131937.25324  23326824.478
  18307941.947 6  14265928.39624  24186011.985
 -14088175.308 8 -10977780.44227  22449981.889
 92  5  9  3 57  0.0020000  0  6G25G16G20G17G24G 3
  -4818695.246 5  -3754829.41923  25021887.012
 -11392982.905 8  -8877628.04627  22333654.619
   2496368.566 9   1945224.59629  21493590.597
  -9223989.248 6  -7187509.48424  23313255.573
  18405117.720 6  14341649.77524  24204500.490
 -14129504.978 8 -11009985.35226  22442117.739
 92  5  9  3 57 30.0020000  0  6G25G16G20G17G24G 3
  -4770286.801 5  -3717108.60623  25031102.018
 -11365917.514 8  -8856538.12327  22338804.458
   2550872.786 9   1987695.40529  21503964.926
  -9295034.759 6  -7242869.55123  23299731.933
  18502360.071 6  14417423.03224  24223009.064
 -14170699.126 8 -11042084.66427  22434279.066
 92  5  9  3 58  0.0020000  0  6G25G16G20G17G24G 3
  -4721424.083 5  -3679033.85321  25040390.804
 -11338270.409 8  -8834994.89027  22344066.710
   2605943.571 9   2030607.68129  21514441.758
  -9365810.883 6  -7298019.70623  23286264.658
  18599659.005 6  14493240.38724  24241512.542
 -14211756.472 8 -11074077.37727  22426464.684
 92  5  9  3 58 30.0020000  0  6G25G16G20G17G24G 3
  -4672112.074 5  -3640608.94122  25049779.684
 -11310041.606 8  -8812998.40526  22349440.819
   2661572.921 9   2073955.21329  21525026.222
  -9436331.646 6  -7352970.90123  23272843.835
  18697009.224 6  14569097.67524  24260048.128
 -14252683.576 8 -11105968.60627  22418674.872
 92  5  9  3 59  0.0020000  0  6G25G16G20G17G24G 3
  -4622348.188 5  -3601831.98722  25059255.536
 -11281209.790 8  -8790532.04927  22354925.213
   2717759.876 9   2117737.23829  21535720.728
  -9506581.177 6  -7407710.73622  23259476.410
  18794398.079 6  14644985.08524  24278579.806
 -14293478.960 8 -11137757.19126  22410912.945
 92  5  9  3 59 30.0020000  0  6G25G16G20G17G24G 3
  -4572140.650 5  -3562709.24421  25068803.912
 -11251780.920 8  -8767600.43527  22360522.022
   2774506.124 8   2161955.07629  21546516.863
  -9576544.548 6  -7462227.56023  23246164.128
  18891846.140 6  14720918.62923  24297117.765
 -14334139.054 8 -11169440.37027  22403174.716
 92  5  9  4  0  0.0020000  0  6G25G16G20G17G24G 3
  -4521489.679 5  -3523241.01923  25078443.761
 -11221766.916 8  -8744212.86827  22366234.595
   2831811.490 9   2206608.59729  21557420.597
  -9646209.499 6  -7516511.88424  23232908.209
  18989366.787 6  14796908.72923  24315678.794
 -14374662.141 8 -11201016.77327  22395463.151
 92  5  9  4  0 30.0020000  0  6G25G16G20G17G24G 3
  -4470413.053 5  -3483441.07222  25088161.822
 -11191174.683 8  -8720374.75527  22372057.453
   2889669.560 9   2251692.77929  21568433.185
  -9715582.960 6  -7570569.07424  23219706.840
  19086970.896 6  14872963.91024  24334252.457
 -14415052.228 8 -11232489.55526  22387775.283
 92  5  9  4  1  0.0020000  0  6G25G16G20G17G24G 3
  -4418919.772 5  -3443316.51122  25097966.227
 -11160012.786 8  -8696092.73826  22377986.444
   2948076.864 9   2297204.95029  21579547.403
  -9784670.049 6  -7624403.09324  23206558.241
  19184655.054 6  14949081.40024  24352844.093
 -14455310.895 8 -11263859.93127  22380118.860
 92  5  9  4  1 30.0020000  0  6G25G16G20G17G24G 3
  -4366998.656 5  -3402858.57222  25107841.096
 -11128269.835 8  -8671357.94827  22384029.349
   3007046.467 9   2343155.27029  21590766.218
  -9853472.219 7  -7678015.09024  23193472.008
  19282434.475 6  15025273.18723  24371448.015
 -14495422.771 8 -11295115.93126  22372484.948
 92  5  9  4  2  0.0020000  0  6G25G16G20G17G24G 3
  -4314658.280 5  -3362073.92221  25117798.713
 -11095942.352 8  -8646167.68726  22390180.516
   3066569.961 9   2389537.20929  21602093.887
  -9922008.332 6  -7731419.80124  23180423.224
  19380276.360 6  15101513.61922  24390067.502
 -14535394.022 8 -11326262.35127  22364878.015
 92  5  9  4  2 30.0020000  0  6G25G16G20G17G24G 3
  -4261900.325 5  -3320963.89922  25127845.641
 -11063032.418 8  -8620523.56827  22396440.782
   3126647.757 9   2436351.05329  21613529.748
  -9990282.576 6  -7784620.44025  23167433.212
  19478157.312 6  15177784.45525  24408692.119
 -14575222.502 8 -11357297.51626  22357298.059
 92  5  9  4  3  0.0020000  0  6G25G16G20G17G24G 3
  -4208715.261 4  -3279521.05321  25137960.067
 -11029542.740 8  -8594427.69427  22402812.869
   3187281.062 9   2483597.76829  21625065.180
 -10058277.734 7  -7837603.59624  23154490.595
  19576061.651 6  15254073.56924  24427317.330
 -14614904.575 8 -11388218.59226  22349750.805
 92  5  9  4  3 30.0020000  0  6G25G16G20G17G24G 3
  -4155112.532 5  -3237752.74821  25148168.270
 -10995483.285 8  -8567887.83427  22409297.369
   3248456.503 9   2531266.91729  21636707.023
 -10125998.307 6  -7890372.76624  23141602.807
  19673970.200 5  15330365.95523  24445956.012
 -14654451.110 8 -11419034.05827  22342224.212
 92  5  9  4  4  0.0020000  0  6G25G16G20G17G24G 3
  -4101094.105 5  -3195660.54222  25158440.375
 -10960854.248 8  -8540904.15826  22415885.315
   3310171.892 9   2579356.81629  21648454.370
 -10193450.948 6  -7942933.19425  23128769.603
  19771884.819 5  15406663.03324  24464583.910
 -14693862.406 8 -11449744.14327  22334725.190
 92  5  9  4  4 30.0020000  0  6G25G16G20G17G24G 3
  -4046652.836 5  -3153238.86123  25168793.415
 -10925646.280 8  -8513469.34926  22422587.455
   3372435.768 9   2627874.10329  21660299.193
 -10260629.441 6  -7995279.97625  23115985.538
  19869845.433 6  15482995.99823  24483224.407
 -14733127.746 8 -11480340.49227  22327248.365
 92  5  9  4  5  0.0020000  0  6G25G16G20G17G24G 3
  -3991797.539 5  -3110494.50023  25179243.268
 -10889852.736 8  -8485578.26427  22429392.168
   3435243.598 9   2676815.25529  21672254.023
 -10327546.578 7  -8047423.10226  23103256.965
  19967866.424 6  15559376.01023  24501882.285
 -14772249.133 8 -11510824.67528  22319807.522
 92  5  9  4  5 30.0020000  0  6G25G16G20G17G24G 3
  -3936540.929 5  -3067437.57322  25189753.988
 -10853471.784 8  -8457229.44227  22436321.265
   3498594.112 9   2726179.27329  21684306.575
 -10394217.298 7  -8099374.25124  23090574.531
  20065959.287 6  15635811.98424  24520548.294
 -14811225.058 8 -11541195.50027  22312390.971
 92  5  9  4  6  0.0020000  0  6G25G16G20G17G24G 3
  -3880891.178 5  -3024074.20421  25200346.864
 -10816500.621 8  -8428420.74326  22443354.680
   3562483.986 9   2775963.57929  21696467.352
 -10460642.153 6  -8151133.78725  23077924.798
  20164125.770 6  15712305.32722  24539226.553
 -14850056.816 8 -11571453.99827  22305000.768
 92  5  9  4  6 30.0020000  0  6G25G16G20G17G24G 3
  -3824854.393 5  -2980409.23721  25211014.670
 -10778943.998 8  -8399155.81527  22450504.139
   3626911.363 9   2826166.70929  21708723.478
 -10526797.674 7  -8202683.44025  23065337.398
  20262354.108 6  15788846.90323  24557925.509
 -14888744.141 8 -11601599.95327  22297638.452
 92  5  9  4  7  0.0020000  0  6G25G16G20G17G24G 3
  -3768433.355 5  -2936444.81322  25221744.565
 -10740802.777 8  -8369435.36126  22457759.416
   3691873.660 9   2876786.66129  21721090.517
 -10592671.846 7  -8254013.85924  23052799.765
  20360607.925 5  15865408.32424  24576614.552
 -14927286.484 8 -11631632.91727  22290302.555
 92  5  9  4  7 30.0020000  0  6G25G16G20G17G24G 3
  -3711614.934 5  -2892170.80221  25232552.078
 -10702082.530 8  -8339263.73627  22465129.516
   3757369.004 9   2927821.98729  21733552.869
 -10658245.768 6  -8305110.31325  23040323.907
  20458867.558 6  15941974.20423  24595317.416
 -14965683.641 8 -11661552.76727  22282997.510
 92  5  9  4  8  0.0020000  0  6G25G16G20G17G24G 3
  -3654389.643 5  -2847579.72522  25243458.534
 -10662792.438 8  -8308648.06727  22472599.744
   3823394.747 9   2979270.60029  21746114.478
 -10723501.203 6  -8355958.65924  23027898.130
  20557125.144 6  16018538.59822  24614012.463
 -15003935.900 8 -11691359.70226  22275720.629
 92  5  9  4  8 30.0030000  0  6G25G16G20G17G24G 3
  -3596747.914 5  -2802664.1912   25254416.524
 -10622944.309 8  -8277597.56426  22480185.689
   3889957.836 9   3031137.92529  21758781.612
 -10788442.708 7  -8406562.33224  23015546.957
  20655393.389 6  16095111.26922  24632711.439
 -15042036.911 8 -11721048.78227  22268468.374
 92  5  9  4  9  0.0030000  0  6G25G16G20G17G24G 3
  -3538693.830 4  -2757427.37221  25265466.595
 -10582552.186 8  -8246123.16227  22487878.059
   3957046.880 8   3083415.08329  21771545.574
 -10853089.604 7  -8456936.44925  23003247.101
  20753678.829 6  16171697.31522  24651420.585
 -15079988.823 8 -11750621.66927  22261245.450
 92  5  9  4  9 30.0030000  0  6G25G16G20G17G24G 3
  -3480222.162 4  -2711865.09822  25276594.878
 -10541624.701 8  -8214231.60826  22495662.461
   4024664.860 9   3136104.40529  21784414.760
 -10917442.781 7  -8507081.69425  22990998.479
  20852013.417 5  16248321.66723  24670120.134
 -15117789.586 8 -11780076.76927  22254052.854
 92  5  9  4 10  0.0030000  0  6G25G16G20G17G24G 3
  -3421348.956 4  -2665989.96922  25287787.622
 -10500150.546 8  -8181914.07527  22503552.124
   4092811.924 8   3189206.01028  21797381.982
 -10981517.386 7  -8557009.88525  22978805.314
  20950412.391 5  16324996.19123  24688852.070
 -15155436.360 8 -11809411.90128  22246889.016
 92  5  9  4 10 30.0030000  0  6G25G16G20G17G24G 3
  -3362092.546 5  -2619816.26022  25299074.807
 -10458113.546 8  -8149157.96127  22511553.572
   4161483.193 9   3242716.06529  21810451.427
 -11045334.745 7  -8606737.61126  22966660.102
  21048872.268 6  16401718.15723  24707594.197
 -15192931.270 8 -11838628.68927  22239753.622
 92  5  9  4 11  0.0030000  0  6G25G16G20G17G24G 3
  -3302455.556 5  -2573345.91121  25310433.363
 -10415487.146 8  -8115942.56827  22519670.157
   4230677.341 9   3296633.57029  21823615.941
 -11108883.954 7  -8656256.40325  22954571.289
  21147385.045 6  16478481.35623  24726330.007
 -15230272.945 8 -11867726.07827  22232648.243
 92  5  9  4 11 30.0030000  0  6G25G16G20G17G24G 3
  -3242450.792 4  -2526589.12422  25321830.275
 -10372258.118 8  -8082257.59326  22527889.279
   4300390.468 9   3350955.46929  21836883.831
 -11172158.337 7  -8705561.02925  22942529.208
  21245929.121 6  16555268.95623  24745087.421
 -15267462.398 8 -11896704.84527  22225572.842
 92  5  9  4 12  0.0030000  0  6G25G16G20G17G24G 3
  -3182076.978 4  -2479544.55422  25333330.317
 -10328404.330 8  -8048085.79326  22536234.287
   4370630.633 9   3405688.05829  21850254.571
 -11235159.984 7  -8754653.16225  22930539.931
  21344502.064 6  16632079.05424  24763846.056
 -15304489.094 9 -11925556.77927  22218527.142
 92  5  9  4 12 30.0030000  0  6G25G16G20G17G24G 3
  -3121336.704 5  -2432214.59022  25344890.284
 -10283948.276 8  -8013444.71427  22544695.933
   4441383.550 9   3460820.18329  21863716.472
 -11297886.175 7  -8803530.63125  22918603.982
  21443095.609 6  16708905.19622  24782610.066
 -15341364.271 9 -11954290.66827  22211509.886
 92  5  9  4 13  0.0030000  0  6G25G16G20G17G24G 3
  -3060214.767 5  -2384587.07622  25356518.062
 -10238910.287 8  -7978350.15426  22553267.585
   4512652.130 8   3516354.13829  21877275.187
 -11360319.936 7  -8852180.22426  22906726.212
  21541715.941 6  16785752.21023  24801374.669
 -15378082.446 8 -11982902.21327  22204516.642
 92  5  9  4 13 30.0030000  0  6G25G16G20G17G24G 3
  -2998723.357 4  -2336671.81822  25368212.953
 -10193310.021 8  -7942817.46827  22561943.274
   4584435.939 8   3572289.57728  21890934.938
 -11422462.415 7  -8900602.86226  22894898.489
  21640370.877 6  16862626.15823  24820143.181
 -15414641.155 9 -12011389.48128  22197562.032
 92  5  9  4 14  0.0030000  0  6G25G16G20G17G24G 3
  -2936859.854 5  -2288466.59023  25379987.907
 -10147161.126 8  -7906857.28427  22570725.097
   4656732.613 8   3628624.62728  21904694.504
 -11484311.058 7  -8948796.57526  22883126.852
  21739070.978 5  16939535.33123  24838925.164
 -15451040.238 9 -12039752.35927  22190639.531
 92  5  9  4 14 30.0030000  0  6G25G16G20G17G24G 3
  -2874627.727 5  -2239974.11421  25391837.791
 -10100487.571 8  -7870488.27226  22579608.863
   4729534.472 8   3685353.33628  21918551.199
 -11545850.942 7  -8996749.64725  22871419.361
  21837796.086 5  17016463.97123  24857713.465
 -15487284.209 9 -12067994.38628  22183739.226
 92  5  9  4 15  0.0030000  0  6G25G16G20G17G24G 3
  -2812036.569 5  -2191201.76022  25403743.446
 -10053293.286 8  -7833713.48526  22588586.756
   4802845.879 8   3742479.09429  21932503.555
 -11607088.189 7  -9044466.93125  22859766.106
  21936537.354 5  17093405.21123  24876502.044
 -15523366.142 9 -12096110.15527  22176872.461
 92  5  9  4 15 30.0030000  0  6G25G16G20G17G24G 3
  -2749097.838 5  -2142158.62922  25415723.475
 -10005576.766 8  -7796531.77226  22597667.465
   4876659.479 8   3799996.17429  21946542.220
 -11668033.024 7  -9091956.31425  22848169.529
  22035281.324 6  17170348.56124  24895299.035
 -15559290.428 8 -12124103.08728  22170035.989
 92  5  9  4 16  0.0030000  0  6G25G16G20G17G24G 3
  -2685784.898 4  -2092823.95122  25427769.430
  -9957336.275 8  -7758941.77127  22606848.304
   4950978.301 8   3857906.94129  21960686.739
 -11728683.658 7  -9139216.50225  22836623.034
  22134029.564 6  17247295.25523  24914089.150
 -15595050.502 8 -12151968.04627  22163231.905
 92  5  9  4 16 30.0030000  0  6G25G16G20G17G24G 3
  -2622108.607 5  -2043206.14223  25439892.131
  -9908580.944 8  -7720950.58126  22616125.084
   5025793.057 8   3916204.13828  21974921.789
 -11789051.282 7  -9186256.15226  22825139.778
  22232772.601 5  17324237.86121  24932876.543
 -15630652.834 9 -12179710.10127  22156456.613
 92  5  9  4 17  0.0030000  0  6G25G16G20G17G24G 3
  -2558071.402 4  -1993307.10222  25452072.383
  -9859289.772 8  -7682541.86826  22625506.495
   5101107.887 8   3974891.01428  21989256.968
 -11849150.086 7  -9233086.30126  22813694.913
  22331532.746 5  17401193.81022  24951674.127
 -15666090.623 9 -12207323.92827  22149713.675
 92  5  9  4 17 30.0030000  0  6G25G16G20G17G24G 3
  -2493660.993 5  -1943117.25122  25464328.229
  -9809442.145 8  -7643699.55627  22634995.505
   5176925.893 8   4033969.97328  22003681.458
 -11908961.618 7  -9279692.64226  22802318.698
  22430323.001 5  17478173.19223  24970474.084
 -15701357.539 9 -12234804.62328  22143004.310
 92  5  9  4 18  0.0030000  0  6G25G16G20G17G24G 3
  -2428901.068 4  -1892655.04022  25476660.473
  -9759045.002 8  -7604429.03926  22644582.585
   5253236.147 8   4093432.49329  22018204.611
 -11968485.233 7  -9326074.61226  22790989.842
  22529137.071 6  17555171.25021  24989280.079
 -15736461.712 9 -12262158.50428  22136322.552
 92  5  9  4 18 30.0030000  0  5G16G20G17G24G 3
  -9708094.229 8  -7564727.12027  22654281.171
   5330034.320 8   4153275.22628  22032819.203
 -12027724.091 7  -9372234.69526  22779721.224
  22627964.654 6  17632179.75923  25008080.350
 -15771404.225 9 -12289386.40528  22129671.960
 92  5  9  4 19  0.0030000  0  5G16G20G17G24G 3
  -9656585.686 8  -7524590.57526  22664079.294
   5407323.128 8   4213500.26228  22047526.421
 -12086669.629 7  -9418166.22226  22768505.376
  22726812.527 5  17709204.08323  25026886.660
 -15806179.233 9 -12316483.78428  22123058.223
 92  5  9  4 19 30.0030000  0  5G16G20G17G24G 3
  -9604528.602 8  -7484026.61726  22673987.737
   5485099.472 8   4274105.19928  22062326.858
 -12145308.198 7  -9463858.57026  22757339.016
  22825676.590 5  17786241.05824  25045696.214
 -15840787.003 9 -12343450.84627  22116468.776
 92  5  9  4 20  0.0030000  0  5G16G20G17G24G 3
  -9551924.560 8  -7443036.44126  22683995.681
   5563365.507 8   4335091.71028  22077219.642
 -12203643.623 7  -9509314.67026  22746240.399
  22924555.413 5  17863289.46522  25064519.590
 -15875221.824 9 -12370283.15128  22109915.626
 92  5  9  4 20 30.0030000  0  5G16G20G17G24G 3
  -9498767.878 8  -7401615.64226  22694108.606
   5642115.715 8   4396455.50228  22092207.773
 -12261692.697 7  -9554547.64826  22735197.238
  23023453.699 5  17940353.08321  25083338.184
 -15909486.532 9 -12396982.89528  22103395.736
 92  5  9  4 21  0.0030000  0  5G16G20G17G24G 3
  -9445062.487 8  -7359767.27227  22704334.224
   5721350.401 8   4458196.79728  22107283.749
 -12319441.226 7  -9599546.44025  22724205.660
  23122371.416 5  18017431.82223  25102166.340
 -15943577.062 9 -12423546.93228  22096909.735
 92  5  9  4 21 30.0030000  0  5G16G20G17G24G 3
  -9390812.447 8  -7317494.50226  22714654.283
   5801063.600 8   4520310.97528  22122450.257
 -12376894.833 7  -9644315.42926  22713272.226
  23221291.267 6  18094512.21923  25120997.185
 -15977496.511 9 -12449977.64628  22090451.898
 92  5  9  4 22  0.0030000  0  5G16G20G17G24G 3
  -9336025.355 8  -7274803.25926  22725080.160
   5881256.159 8   4582798.68227  22137713.265
 -12434047.718 7  -9688850.10026  22702397.564
  23320212.876 6  18171593.99325  25139811.870
 -16011240.278 9 -12476271.46028  22084033.359
 92  5  9  4 22 30.0030000  0  5G16G20G17G24G 3
  -9280721.238 8  -7231709.12927  22735603.479
   5961918.847 8   4645652.71328  22153064.745
 -12490897.819 7  -9733148.81726  22691581.640
  23419128.447 5  18248671.11923  25158637.653
 -16044814.585 9 -12502433.25128  22077643.577
 92  5  9  4 23  0.0030000  0  5G16G20G17G24G 3
  -9224912.158 8  -7188221.52726  22746225.706
   6043058.826 8   4708878.65127  22168507.071
 -12547423.061 7  -9777194.40126  22680820.579
  23518035.112 5  18325741.20922  25177450.524
 -16078209.292 9 -12528455.08328  22071290.372
 92  5  9  4 23 30.0030000  0  5G16G20G17G24G 3
  -9168591.532 8  -7144335.30926  22756939.686
   6124671.189 8   4772472.68728  22184032.425
 -12603641.598 7  -9821001.00726  22670128.203
  23616954.435 5  18402821.15422  25196280.495
 -16111425.645 9 -12554337.93228  22064968.333
 92  5  9  4 24  0.0030000  0  5G16G20G17G24G 3
  -9111765.921 8  -7100055.60327  22767752.608
   6206749.654 8   4836429.93027  22199650.090
 -12659566.738 7  -9864578.99026  22659480.778
  23715900.036 5  18479921.65123  25215102.649
 -16144466.518 9 -12580084.05328  22058681.682
 92  5  9  4 24 30.0030000  0  5G16G20G17G24G 3
  -9054429.086 8  -7055377.56026  22778665.974
   6289289.966 8   4900747.03628  22215358.323
 -12715213.701 7  -9907940.20426  22648894.499
  23814867.417 6  18557039.17322  25233944.312
 -16177332.635 9 -12605693.99528  22052426.826
 92  5  9  4 25  0.0030000  0  5G16G20G17G24G 3
  -8996566.305 8  -7010289.66327  22789675.526
   6372292.826 8   4965424.57828  22231152.899
 -12770589.463 7  -9951090.10026  22638356.487
  23913860.154 5  18634176.36422  25252774.284
 -16210020.502 9 -12631165.04027  22046205.824
 92  5  9  4 25 30.0030000  0  5G16G20G17G24G 3
  -8938169.669 8  -6964785.77926  22800788.558
   6455754.850 8   5030459.91427  22247037.099
 -12825699.216 7  -9994032.71326  22627869.150
  24012881.470 4  18711335.80522  25271626.103
 -16242529.778 9 -12656496.92128  22040018.709
 92  5  9  4 26  0.0030000  0  5G16G20G17G24G 3
  -8879251.521 8  -6918875.52126  22812001.370
   6539678.049 8   5095854.59128  22263007.957
 -12880510.426 7 -10036742.69426  22617441.772
  24111902.897 5  18788495.33323  25290456.389
 -16274854.782 9 -12681685.21427  22033868.171
 92  5  9  4 26 30.0030000  0  5G16G20G17G24G 3
  -8819805.485 8  -6872553.93827  22823315.253
   6624065.398 8   5161610.95527  22279067.532
 -12934990.784 7 -10079194.84926  22607070.166
  24210907.967 5  18865642.13322  25309305.835
 -16306989.300 9 -12706725.07128  22027754.487
 92  5  9  4 27  0.0030000  0  5G16G20G17G24G 3
  -8759830.959 8  -6825820.53527  22834725.951
   6708910.030 8   5227723.63827  22295211.357
 -12989142.320 7 -10121390.82426  22596767.767
  24309895.536 6  18942775.31921  25328147.777
 -16338936.618 9 -12731619.05528  22021673.505
 92  5  9  4 27 30.0030000  0  5G16G20G17G24G 3
  -8699337.789 8  -6778682.99126  22846236.463
   6794200.716 8   5294183.89727  22311440.024
 -13042963.793 7 -10163329.58826  22586526.862
  24408857.890 6  19019888.90522  25346984.345
 -16370704.591 9 -12756373.28727  22015627.598
 92  5  9  4 28  0.0030000  0  5G16G20G17G24G 3
  -8638323.797 8  -6731139.62726  22857848.327
   6879940.794 8   5360994.32427  22327755.001
 -13096457.943 7 -10205013.30126  22576343.229
  24507791.535 5  19096980.03221  25365793.341
 -16402286.082 9 -12780982.22229  22009619.767
 92  5  9  4 28 30.0030000  0  5G16G20G17G24G 3
  -8576781.238 8  -6683184.38727  22869557.039
   6966123.532 8   5428149.69327  22344157.263
 -13149660.669 7 -10246469.90526  22566219.834
  24606708.314 5  19174058.08222  25384618.182
 -16433684.643 9 -12805448.60028  22003644.882
 92  5  9  4 29  0.0030000  0  5G16G20G17G24G 3
  -8514711.562 8  -6634818.38326  22881370.662
   7052749.659 8   5495650.54427  22360637.144
 -13202588.262 7 -10287712.16126  22556146.801
  24705627.964 5  19251138.37422  25403450.248
 -16464895.984 9 -12829769.09528  21997706.608
 92  5  9  4 29 30.0030000  0  6G16G20G17G24G 3G23
  -8452140.728 8  -6586061.89226  22893276.631
   7139819.400 8   5563497.08127  22377214.188
 -13255227.834 7 -10328729.96426  22546132.225
  24804550.814 5  19328221.11921  25422263.746
 -16495916.081 9 -12853940.57928  21991800.407
   -251002.826 5   -195586.53323  25630780.796
 92  5  9  4 30  0.0030000  0  6G16G20G17G24G 3G23
  -8389087.064 8  -6536929.16526  22905278.507
   7227330.331 8   5631687.39627  22393860.160
 -13307584.378 7 -10369527.23626  22536166.232
  24903475.261 5  19405305.11322  25441098.185
 -16526743.609 9 -12877962.00428  21985937.657
   -350651.178 4   -273234.83322  25611809.303
 92  5  9  4 30 30.0030000  0  6G16G20G17G24G 3G23
  -8325558.717 7  -6487426.55526  22917366.133
   7315278.948 8   5700218.76227  22410599.665
 -13359651.866 7 -10410099.26126  22526259.883
  25002417.387 5  19482402.87922  25459928.750
 -16557378.586 9 -12901833.39228  21980107.575
   -450247.836 4   -350842.87122  25592856.133
 92  5  9  4 31  0.0030000  0  6G16G20G17G24G 3G23
  -8261574.012 8  -6437568.33827  22929541.325
   7403657.306 8   5769084.98427  22427416.510
 -13411418.387 7 -10450436.77226  22516408.711
  25101372.542 5  19559510.81722  25478750.939
 -16587825.488 9 -12925558.22728  21974314.102
   -549803.243 4   -428418.71522  25573902.963
 92  5  9  4 31 30.0030000  0  6G16G20G17G24G 3G23
  -8197120.041 7  -6387344.46626  22941804.326
   7492468.045 8   5838288.14027  22444319.105
 -13462885.613 7 -10490541.06226  22506617.185
  25200339.798 6  19636628.16223  25497590.194
 -16618077.523 9 -12949131.21928  21968556.298
   -649319.622 4   -505963.72621  25554978.551
 92  5  9  4 32  0.0030000  0  6G16G20G17G24G 3G23
  -8132163.831 8  -6336729.22826  22954165.676
   7581706.264 8   5907824.38327  22461298.481
 -13514067.763 7 -10530423.21326  22496875.426
  25299314.643 5  19713751.43422  25516424.354
 -16648135.959 9 -12972553.35428  21962835.035
   -748800.998 5   -583481.45624  25536049.671
 92  5  9  4 32 30.0030000  0  6G16G20G17G24G 3G23
  -8066688.825 8  -6285709.73827  22966627.121
   7671371.321 8   5977693.24726  22478359.070
 -13564951.026 7 -10570072.48126  22487192.126
  25398297.209 5  19790880.73221  25535262.108
 -16677998.386 9 -12995822.75528  21957153.977
   -848245.597 4   -660970.98421  25517119.256
 92  5  9  4 33  0.0030000  0  6G16G20G17G24G 3G23
  -8000690.748 8  -6234282.66826  22979187.543
   7761462.219 8   6047893.90727  22495502.094
 -13615528.044 7 -10609483.09826  22477569.413
  25497277.922 4  19868008.6722   25554092.987
 -16707661.697 9 -13018937.00528  21951507.680
   -947647.100 5   -738426.51222  25498205.349
 92  5  9  4 33 30.0030000  0  6G16G20G17G24G 3G23
  -7934170.957 8  -6182449.05126  22991845.687
   7851980.354 8   6118427.49627  22512729.647
 -13665787.929 7 -10648646.60426  22468003.308
  25596247.046 4  19945127.43522  25572936.430
 -16737120.457 9 -13041891.86029  21945904.275
  -1047001.816 5   -815845.50123  25479296.852
 92  5  9  4 34  0.0030000  0  6G16G20G17G24G 3G23
  -7867154.995 8  -6130228.81226  23004598.550
   7942920.526 8   6189289.94627  22530034.574
 -13715706.151 7 -10687543.88526  22458504.701
  25695199.636 5  20022233.29921  25591752.581
 -16766376.339 9 -13064688.62829  21940335.911
  -1146313.473 5   -893231.00323  25460402.419
 92  5  9  4 34 30.0030000  0  6G16G20G17G24G 3G23
  -7799668.507 8  -6077641.94326  23017438.072
   8034283.899 8   6260482.15627  22547422.250
 -13765275.425 7 -10726169.23927  22449072.334
  25794147.720 5  20099335.82122  25610582.553
 -16795424.422 9 -13087323.47728  21934807.752
  -1245566.932 4   -970571.59722  25441520.899
 92  5  9  4 35  0.0030000  0  6G16G20G17G24G 3G23
  -7731721.047 7  -6024695.86326  23030371.091
   8126060.090 8   6331996.04427  22564885.172
 -13814515.694 7 -10764538.23627  22439702.300
  25893081.625 6  20176427.16923  25629407.743
 -16824271.059 9 -13109801.36128  21929319.135
  -1344761.147 4  -1047865.58022  25422634.284
 92  5  9  4 35 30.0030000  0  6G16G20G17G24G 3G23
  -7663311.166 8  -5971389.47326  23043388.395
   8218250.539 8   6403832.73227  22582433.495
 -13863435.253 7 -10802657.33127  22430391.353
  25992005.534 6  20253510.76323  25648238.587
 -16852911.137 9 -13132118.28229  21923869.222
  -1443891.270 4  -1125109.60921  25403772.519
 92  5  9  4 36  0.0030000  0  6G16G20G17G24G 3G23
  -7594425.305 7  -5917712.16925  23056492.322
   8310853.986 8   6475991.23327  22600050.222
 -13912051.540 8 -10840540.10727  22421143.680
  26090931.775 6  20330596.16223  25667061.369
 -16881342.140 9 -13154272.29528  21918457.665
  -1542941.659 5  -1202291.59723  25384926.388
 92  5  9  4 36 30.0030000  0  6G16G20G17G24G 3G23
  -7525057.777 7  -5863659.56326  23069696.972
   8403860.467 8   6548463.79028  22617746.977
 -13960391.344 8 -10878207.43326  22411946.926
  26189847.289 5  20407673.20023  25685888.025
 -16909570.016 9 -13176268.02928  21913086.000
  -1641911.346 5  -1279410.59324  25366090.134
 92  5  9  4 37  0.0030000  0  6G16G20G17G24G 3G23
  -7455203.717 8  -5809227.80826  23082993.968
   8497268.973 8   6621249.61227  22635523.444
 -14008455.445 8 -10915659.93027  22402798.754
  26288733.192 4  20484727.17522  25704702.710
 -16937591.696 9 -13198103.09029  21907752.376
  -1740803.503 5  -1356469.24523  25347270.354
 92  5  9  4 37 30.0030000  0  6G16G20G17G24G 3G23
  -7384870.645 7  -5754422.83026  23096369.211
   8591081.481 8   6694350.25127  22653377.006
 -14056231.648 8 -10952888.09127  22393708.168
  26387594.867 4  20561762.16221  25723512.579
 -16965401.488 9 -13219773.03629  21902460.458
  -1839617.860 5  -1433467.23522  25328465.860
 92  5  9  4 38  0.0030000  0  5G16G20G17G 3G23
  -7314063.530 8  -5699248.43326  23109847.584
   8685296.380 8   6767764.42926  22671302.777
 -14103713.521 7 -10989886.90627  22384668.223
 -16992997.252 9 -13241276.21729  21897211.991
  -1938347.657 4  -1510399.38224  25309670.090
 92  5  9  4 38 30.0030000  0  5G16G20G17G 3G23
  -7242791.127 7  -5643711.49326  23123410.487
   8779910.404 8   6841489.61527  22689310.424
 -14150887.858 8 -11026646.08627  22375693.331
 -17020378.299 9 -13262612.08129  21891999.471
  -2036991.122 4  -1587264.19221  25290903.673
 92  5  9  4 39  0.0030000  0  5G16G20G17G 3G23
  -7171060.786 8  -5587817.72326  23137060.955
   8874915.027 7   6915519.17227  22707385.220
 -14197765.181 7 -11063173.83027  22366771.524
 -17047548.899 9 -13283783.96229  21886831.065
  -2135547.557 5  -1664061.25422  25272156.450
 92  5  9  4 39 30.0030000  0  5G16G20G17G 3G23
  -7098868.725 7  -5531564.15626  23150798.638
   8970313.199 7   6989855.38227  22725540.636
 -14244336.867 7 -11099463.40227  22357909.326
 -17074502.577 9 -13304786.80929  21881703.109
  -2234006.927 5  -1740782.64023  25253415.230
 92  5  9  4 40  0.0030000  0  5G16G20G17G 3G23
  -7026207.518 7  -5474945.04026  23164623.259
   9066099.981 8   7064494.40726  22743771.298
 -14290611.178 7 -11135521.24127  22349108.343
 -17101239.973 9 -13325621.12429  21876612.043
  -2332367.567 4  -1817427.12424  25234689.576
 92  5  9  4 40 30.0030000  0  5G16G20G17G 3G23
  -6953070.221 8  -5417954.93226  23178545.043
   9162273.540 8   7139434.80927  22762072.144
 -14336577.553 7 -11171339.15227  22340356.187
 -17127758.872 9 -13346285.18029  21871567.430
  -2430635.281 5  -1893999.11822  25216002.033
 92  5  9  4 41  0.0030000  0  5G16G20G17G 3G23
  -6879469.082 7  -5360603.37326  23192550.727
   9258826.799 8   7214671.08027  22780443.140
 -14382242.328 8 -11206922.03626  22331669.713
 -17154062.127 9 -13366781.20228  21866562.393
  -2528824.454 4  -1970510.04222  25197300.076
 92  5  9  4 41 30.0030000  0  5G16G20G17G 3G23
  -6805410.209 7  -5302895.17027  23206639.475
   9355760.273 8   7290203.64027  22798891.161
 -14427583.446 7 -11242252.72927  22323036.880
 -17180145.263 9 -13387105.70429  21861597.841
  -2626947.496 4  -2046969.36121  25178633.509
 92  5  9  4 42  0.0030000  0  5G16G20G17G 3G23
  -6730889.988 7  -5244827.46325  23220822.069
   9453072.432 8   7366031.27227  22817408.145
 -14472599.233 7 -11277329.92427  22314474.198
 -17206006.147 9 -13407257.01029  21856676.740
  -2725000.311 4  -2123373.96823  25159971.129
 92  5  9  4 42 30.0030000  0  5G16G20G17G 3G23
  -6655929.359 7  -5186416.56326  23235084.691
   9550756.100 8   7442148.40426  22835996.152
 -14517298.876 7 -11312160.76927  22305965.786
 -17231647.738 9 -13427237.44229  21851797.310
  -2822977.499 5  -2199719.66522  25141335.413
 92  5  9  4 43  0.0030000  0  5G16G20G17G 3G23
  -6580538.521 7  -5127670.45526  23249427.967
   9648809.374 8   7518553.52326  22854654.064
 -14561691.658 8 -11346752.50227  22297522.463
 -17257067.794 9 -13447045.25529  21846962.867
  -2920866.962 4  -2275996.92922  25122708.423
 92  5  9  4 43 30.0030000  0  5G16G20G17G 3G23
  -6504704.884 7  -5068579.32227  23263867.150
   9747234.065 8   7595248.05427  22873385.372
 -14605778.925 8 -11381106.17827  22289130.654
 -17282260.187 9 -13466675.67029  21842166.186
  -3018642.135 5  -2352185.23923  25104098.498
 92  5  9  4 44  0.0030000  0  5G16G20G17G 3G23
  -6428421.914 7  -5009138.03826  23278379.798
   9846028.513 7   7672230.70827  22892182.677
 -14649563.406 8 -11415223.92028  22280797.930
 -17307222.732 9 -13486126.97829  21837414.771
  -3116272.257 4  -2428260.45323  25085509.863
 92  5  9  4 44 30.0030000  0  5G16G20G17G 3G23
  -6351701.067 7  -4949355.54626  23292979.697
   9945187.237 7   7749497.22427  22911054.913
 -14693041.290 8 -11449102.74427  22272522.444
 -17331956.600 9 -13505400.09729  21832708.028
  -3213753.588 5  -2504219.75124  25066970.996
 92  5  9  4 45  0.0030000  0  5G16G20G17G 3G23
  -6274531.072 7  -4889223.09526  23307662.938
  10044707.375 7   7827045.34626  22929993.704
 -14736196.525 8 -11482730.16526  22264309.045
 -17356460.621 9 -13524494.10929  21828044.458
  -3311100.489 5  -2580074.30023  25048455.198
 92  5  9  4 45 30.0030000  0  5G16G20G17G 3G23
  -6196911.349 7  -4828740.17826  23322432.524
  10144579.862 7   7904868.03226  22948994.548
 -14779033.489 8 -11516109.57127  22256158.572
 -17380739.643 9 -13543412.80329  21823426.746
  -3408326.184 5  -2655834.41722  25029950.813
 92  5  9  4 46  0.0030000  0  5G16G20G17G 3G23
  -6118850.178 7  -4767913.29026  23337286.917
  10244807.301 7   7982967.30826  22968073.046
 -14821544.424 8 -11549234.94627  22248070.187
 -17404786.817 9 -13562150.83929  21818850.113
  -3505439.236 5  -2731506.75121  25011467.438
 92  5  9  4 46 30.0030000  0  5G16G20G17G 3G23
  -6040358.583 7  -4706751.00527  23352222.000
  10345386.029 8   8061340.31926  22987213.282
 -14863740.667 8 -11582115.08827  22240039.038
 -17428601.826 9 -13580707.96129  21814319.059
  -3602460.297 5  -2807107.41425  24993011.599
 92  5  9  4 47  0.0030000  0  5G16G20G17G 3G23
  -5961434.210 7  -4645251.47825  23367244.299
  10446314.340 7   8139985.72326  23006417.387
 -14905632.216 7 -11614757.82627  22232065.475
 -17452182.250 9 -13599082.29529  21809832.084
  -3699399.260 5  -2882644.10023  24974557.575
 92  5  9  4 47 30.0030000  0  5G16G20G17G 3G23
  -5882093.610 7  -4583427.63127  23382338.249
  10547587.285 7   8218899.69026  23025687.139
 -14947231.489 8 -11647172.80127  22224154.244
 -17475528.810 9 -13617274.39828  21805388.561
  -3796234.604 5  -2958100.03823  24956134.438
 92  5  9  4 48  0.0030000  0  5G16G20G17G 3G23
  -5802343.936 7  -4521285.03126  23397509.258
  10649204.425 7   8298081.86426  23045027.075
 -14988539.306 8 -11679360.68528  22216292.468
 -17498637.295 9 -13635280.99829  21800990.897
  -3892957.665 5  -3033468.52823  24937717.583
 92  5  9  4 48 30.0030000  0  5G16G20G17G 3G23
  -5722179.139 7  -4458818.96126  23412771.079
  10751164.243 7   8377531.03326  23064427.529
 -15029545.109 8 -11711313.21927  22208488.870
 -17521504.806 9 -13653099.81229  21796638.184
  -3989562.692 5  -3108745.00422  24919336.710
 92  5  9  4 49  0.0030000  0  5G16G20G17G 3G23
  -5641595.207 7  -4396026.27126  23428107.273
  10853465.004 7   8457245.89626  23083897.540
 -15070246.201 8 -11743028.33128  22200742.230
 -17544129.188 9 -13670729.18129  21792334.367
  -4086028.576 5  -3183913.08523  24900982.815
 92  5  9  4 49 30.0030000  0  5G16G20G17G 3G23
  -5560599.344 7  -4332912.60426  23443518.677
  10956099.211 7   8537220.56625  23103424.543
 -15110642.943 8 -11774506.27328  22193057.049
 -17566513.809 9 -13688171.72828  21788074.036
  -4182345.155 5  -3258964.83223  24882643.613
 92  5  9  4 50  0.0030000  0  5G16G20G17G 3G23
  -5479187.155 7  -4269474.54426  23459013.179
  11059066.028 7   8617454.41326  23123021.661
 -15150724.591 8 -11805738.69228  22185427.360
 -17588655.104 9 -13705424.66228  21783861.344
  -4278520.805 5  -3333906.71722  24864349.364
 92  5  9  4 50 30.0030000  0  5G16G20G17G 3G23
  -5397353.826 7  -4205708.29325  23474585.579
  11162362.452 7   8697945.10726  23142676.958
 -15190482.044 8 -11836718.49128  22177860.283
 -17610551.655 9 -13722486.88429  21779696.326
  -4374546.410 5  -3408731.78022  24846077.310
 92  5  9  4 51  0.0030000  0  5G16G20G17G 3G23
  -5315091.946 7  -4141608.13025  23490238.040
  11265992.782 7   8778695.98025  23162392.493
 -15229918.074 8 -11867447.82028  22170360.388
 -17632194.789 9 -13739351.64529  21775572.386
  -4470424.400 5  -3483441.75522  24827831.956
 92  5  9  4 51 30.0030000  0  5G16G20G17G 3G23
  -5232414.807 7  -4077184.38026  23505974.437
  11369941.497 7   8859694.95026  23182180.307
 -15269034.606 8 -11897928.20728  22162911.728
 -17653596.028 9 -13756027.91328  21771502.088
  -4566193.060 5  -3558066.56321  24809609.357
 92  5  9  4 52  0.0030000  0  5G16G20G17G 3G23
  -5149315.145 7  -4012431.38625  23521784.893
  11474208.746 7   8940942.11126  23202017.261
 -15307829.493 8 -11928157.95628  22155533.846
 -17674750.576 9 -13772511.95728  21767475.590
  -4661853.003 5  -3632606.68323  24791413.177
 92  5  9  4 52 30.0030000  0  5G16G20G17G 3G23
  -5065782.893 7  -3947341.31426  23537681.692
  11578801.260 7   9022442.75426  23221920.212
 -15346301.850 8 -11958136.38627  22148209.326
 -17695647.614 9 -13788795.33528  21763500.953
  -4757396.482 5  -3707056.00724  24773227.153
 92  5  9  4 53  0.0030000  0  5G16G20G17G 3G23
  -4981842.424 7  -3881933.17026  23553650.456
  11683709.632 7   9104189.50225  23241884.587
 -15384464.683 8 -11987873.63027  22140948.954
 -17716292.030 9 -13804881.87529  21759573.049
  -4852834.218 6  -3781422.95923  24755063.920
 92  5  9  4 53 30.0030000  0  5G16G20G17G 3G23
  -4897504.043 7  -3816214.94126  23569708.217
  11788931.981 7   9186180.90425  23261908.607
 -15422316.275 8 -12017368.33627  22133747.912
 -17736681.597 9 -13820769.83329  21755692.854
  -4948128.217 5  -3855677.94822  24736943.858
 92  5  9  4 54  0.0030000  0  5G16G20G17G 3G23
  -4812778.253 7  -3750194.84126  23585824.191
  11894462.334 7   9268412.32626  23281989.026
 -15459873.432 8 -12046633.61828  22126600.582
 -17756817.948 9 -13836460.46629  21751860.890
  -5043260.757 5  -3929807.07822  24718830.392
 92  5  9  4 54 30.0030000  0  5G16G20G17G 3G23
  -4727676.945 7  -3683882.13625  23602025.252
  12000302.976 7   9350885.52625  23302133.279
 -15497129.678 8 -12075664.42128  22119513.490
 -17776693.959 9 -13851948.24529  21748079.603
  -5138226.627 5  -4003806.33422  24700758.319
 92  5  9  4 55  0.0030000  0  5G16G20G17G 3G23
  -4642213.772 7  -3617287.41725  23618285.400
  12106443.900 7   9433592.70425  23322330.893
 -15534087.977 8 -12104463.06628  22112481.262
 -17796315.442 9 -13867237.68429  21744343.302
  -5233018.792 5  -4077670.27223  24682716.504
 92  5  9  4 55 30.0030000  0  5G16G20G17G 3G23
  -4556371.271 7  -3550397.15825  23634619.606
  12212887.183 7   9516535.48125  23342584.873
 -15570742.315 8 -12133024.85828  22105502.990
 -17815675.989 9 -13882323.80529  21740660.957
  -5327627.378 5  -4151391.13924  24664716.081
 92  5  9  4 56  0.0030000  0  5G16G20G17G 3G23
  -4470146.205 7  -3483208.78725  23651028.151
  12319631.711 7   9599713.01625  23362894.902
 -15607077.685 8 -12161338.09128  22098586.456
 -17834772.327 9 -13897204.04229  21737029.252
  -5422069.177 6  -4224982.02723  24646744.415
 92  5  9  4 56 30.0030000  0  5G16G20G17G 3G23
  -4383553.760 7  -3415734.14125  23667506.217
  12426663.868 7   9683114.66725  23383262.796
 -15643093.423 8 -12189402.27528  22091732.604
 -17853613.447 9 -13911885.41629  21733441.069
  -5516341.995 5  -4298441.28223  24628803.323
 92  5  9  4 57  0.0030000  0  5G16G20G17G 3G23
  -4296580.796 7  -3347963.00525  23684057.469
  12533987.389 7   9766743.34825  23403687.962
 -15678784.358 8 -12217213.35328  22084942.026
 -17872191.500 9 -13926361.79429  21729907.993
  -5610431.191 5  -4371757.43723  24610894.932
 92  5  9  4 57 30.0030000  0  5G16G20G17G 3G23
  -4209216.549 7  -3279886.94625  23700682.152
  12641604.714 7   9850600.97025  23424163.175
 -15714148.721 8 -12244769.96328  22078212.873
 -17890499.117 9 -13940627.45129  21726423.813
  -5704338.237 5  -4444931.64422  24593020.709
 92  5  9  4 58  0.0030000  0  5G16G20G17G 3G23
  -4121471.388 7  -3211514.10224  23717379.707
  12749505.525 7   9934679.48826  23444698.067
 -15749193.029 8 -12272077.17328  22071544.901
 -17908542.302 9 -13954687.05629  21722985.178
  -5798068.819 5  -4517968.34324  24575189.658
 92  5  9  4 58 30.0030000  0  5G16G20G17G 3G23
  -4033341.095 7  -3142841.12124  23734145.283
  12857689.982 7  10018979.02325  23465287.230
 -15783935.580 8 -12299149.26229  22064935.980
 -17926316.706 9 -13968537.21529  21719605.943
  -5891616.950 6  -4590862.90224  24557390.680
 92  5  9  4 59  0.0030000  0  5G16G20G17G 3G23
  -3944823.916 7  -3073866.69925  23750992.142
  12966152.979 7  10103495.61825  23485928.220
 -15818380.932 8 -12325989.77128  22058381.887
 -17943822.599 9 -13982178.15429  21716273.719
  -5985002.708 5  -4663630.89824  24539614.178
 92  5  9  4 59 30.0030000  0  5G16G20G17G 3G23
  -3855914.576 7  -3004586.69525  23767910.617
  13074896.034 7  10188230.42625  23506620.793
 -15852522.861 8 -12352593.83528  22051883.008
 -17961054.372 9 -13995605.48929  21712994.893
  -6078223.002 5  -4736269.99024  24521877.847
 92  5  9  5  0  0.0030000  0  5G16G20G17G 3G23
  -3766630.540 7  -2935014.70625  23784896.868
  13183912.725 7  10273178.46326  23527358.632
 -15886358.781 8 -12378959.45128  22045442.551
 -17978014.000 9 -14008820.75829  21709767.336
  -6171278.059 6  -4808780.32724  24504174.810
 92  5  9  5  0 30.0030000  0  5G16G20G17G 3G23
  -3676977.199 7  -2865154.98425  23801962.553
  13293201.830 7  10358338.75825  23548162.747
 -15919887.671 8 -12405085.82628  22039060.588
 -17994697.802 9 -14021821.11029  21706594.048
  -6264169.493 6  -4881163.15423  24486492.156
 92  5  9  5  1  0.0030000  0  5G16G20G17G 3G23
  -3586960.522 7  -2795012.10026  23819091.477
  13402758.637 7  10443707.66125  23569008.218
 -15953101.505 8 -12430966.70429  22032742.457
 -18011106.662 9 -14034607.21029  21703471.716
  -6356902.593 6  -4953422.59723  24468845.763
 92  5  9  5  1 30.0030000  0  5G16G20G17G 3G23
  -3496589.424 7  -2724593.06225  23836287.271
  13512576.130 7  10529279.69826  23589904.366
 -15986013.014 8 -12456611.99829  22026472.873
 -18027242.610 9 -14047180.66129  21700400.617
  -6449472.886 6  -5025555.19124  24451241.075
 92  5  9  5  2  0.0030000  0  5G16G20G17G 3G23
  -3405876.927 7  -2653907.98225  23853552.621
  13622658.235 7  10615057.91926  23610852.340
 -16018611.305 8 -12482013.23228  22020274.695
 -18043097.457 9 -14059535.07429  21697386.825
  -6541873.121 6  -5097555.28824  24433649.232
 92  5  9  5  2 30.0030000  0  5G16G20G17G 3G23
  -3314814.070 7  -2582949.89024  23870879.151
  13733009.345 7  10701045.76824  23631853.712
 -16050889.266 8 -12507164.85428  22014132.847
 -18058662.081 9 -14071663.33029  21694420.079
  -6634089.087 6  -5169411.77523  24416111.379
 92  5  9  5  3  0.0030000  0  5G16G20G17G 3G23
  -3223408.437 7  -2511724.73226  23888276.390
  13843616.961 7  10787233.49325  23652907.818
 -16082849.014 8 -12532068.52128  22008051.551
 -18073944.312 9 -14083571.55429  21691511.476
  -6726121.309 6  -5241125.09425  24398593.594
 92  5  9  5  3 30.0030000  0  5G16G20G17G 3G23
  -3131656.879 7  -2440230.00425  23905731.808
  13954480.255 7  10873620.42425  23674002.130
 -16114485.244 8 -12556720.09228  22002032.307
 -18088940.716 9 -14095257.03529  21688654.457
  -6817958.917 6  -5312686.77423  24381112.699
 92  5  9  5  4  0.0030000  0  5G16G20G17G 3G23
  -3039553.799 7  -2368461.37025  23923256.783
  14065596.205 7  10960204.24424  23695143.209
 -16145778.946 8 -12581104.75528  21996074.245
 -18103649.823 9 -14106718.65729  21685862.178
  -6909592.385 5  -5384089.37224  24363678.291
 92  5  9  5  4 30.0030000  0  5G16G20G17G 3G23
  -2947086.960 7  -2296409.30424  23940850.406
  14176958.956 6  11046980.37625  23716332.240
 -16176744.309 8 -12605233.58128  21990183.295
 -18118072.893 9 -14117957.39529  21683117.293
  -7001015.526 6  -5455328.07025  24346281.611
 92  5  9  5  5  0.0030000  0  5G16G20G17G 3G23
  -2854259.084 7  -2224075.86925  23958518.647
  14288566.322 7  11133947.11026  23737572.226
 -16207388.423 8 -12629112.07729  21984351.154
 -18132207.755 9 -14128971.55429  21680425.458
  -7092225.556 6  -5526400.71724  24328919.132
 92  5  9  5  5 30.0030000  0  5G16G20G17G 3G23
  -2761087.132 7  -2151474.34725  23976249.883
  14400411.050 6  11221098.81625  23758852.104
 -16237723.963 8 -12652750.12728  21978580.750
 -18146056.707 9 -14139762.92829  21677789.672
  -7183228.451 6  -5597311.97324  24311601.013
 92  5  9  5  6  0.0030000  0  5G16G20G17G 3G23
  -2667578.271 6  -2078610.28423  23994042.579
  14512500.881 7  11308441.50524  23780186.810
 -16267750.012 8 -12676147.01429  21972865.490
 -18159607.420 9 -14150321.90829  21675213.252
  -7274015.261 6  -5668054.83824  24294325.786
 92  5  9  5  6 30.0030000  0  5G16G20G17G 3G23
  -2573751.595 6  -2005498.59525  24011891.918
  14624828.841 6  11395969.72224  23801559.034
 -16297488.301 8 -12699319.67929  21967207.536
 -18172862.368 9 -14160650.42029  21672688.415
  -7364596.400 6  -5738637.43625  24277090.415
 92  5  9  5  7  0.0030000  0  5G16G20G17G 3G23
  -2479628.737 7  -1932156.11425  24029807.219
  14737387.038 6  11483677.37725  23822980.677
 -16326936.664 8 -12722266.41728  21961604.097
 -18185825.369 9 -14170751.43829  21670222.629
  -7454987.588 6  -5809072.06024  24259885.338
 92  5  9  5  7 30.0030000  0  5G16G20G17G 3G23
  -2385211.366 6  -1858584.12625  24047775.882
  14850174.338 6  11571563.53924  23844444.933
 -16356088.609 8 -12744982.17829  21956055.556
 -18198492.740 9 -14180622.10429  21667814.081
  -7545191.352 6  -5879360.57623  24242729.994
 92  5  9  5  8  0.0030000  0  5G16G20G17G 3G23
  -2290491.873 6  -1784776.71825  24065798.188
  14963187.257 6  11659625.51124  23865949.953
 -16384939.868 8 -12767463.64729  21950560.657
 -18210863.113 9 -14190261.34129  21665455.928
  -7635203.453 6  -5949499.79625  24225591.472
 92  5  9  5  8 30.0030000  0  5G16G20G17G 3G23
  -2195457.154 6  -1710723.68825  24083885.583
  15076422.561 6  11747860.77424  23887498.425
 -16413488.826 8 -12789709.55329  21945132.313
 -18222935.493 9 -14199668.37529  21663159.514
  -7725015.371 6  -6019483.03324  24208500.904
 92  5  9  5  9  0.0030000  0  5G16G20G17G 3G23
  -2100094.780 7  -1636415.34625  24102031.995
  15189880.147 6  11836269.24724  23909089.474
 -16441725.340 8 -12811712.00729  21939761.834
 -18234705.060 9 -14208839.45329  21660919.744
  -7814618.406 6  -6089303.49322  24191450.191
 92  5  9  5  9 30.0030000  0  5G16G20G17G 3G23
  -2004390.233 7  -1561840.35525  24120244.403
  15303556.355 6  11924848.06524  23930720.101
 -16469652.045 8 -12833473.04429  21934441.088
 -18246171.272 9 -14217774.13829  21658741.782
  -7904000.654 6  -6158951.88425  24174442.685
 92  5  9  5 10  0.0030000  0  5G16G20G17G 3G23
  -1908351.732 6  -1487005.15824  24138523.052
  15417444.932 6  12013592.36225  23952387.897
 -16497266.319 8 -12854990.63129  21929192.027
 -18257335.401 9 -14226473.44629  21656615.648
  -7993156.154 6  -6228423.60725  24157476.223
 92  5  9  5 10 30.0030000  0  5G16G20G17G 3G23
  -1811989.894 6  -1411918.01725  24156864.034
  15531544.275 7  12102500.89225  23974109.963
 -16524570.860 8 -12876266.86229  21923994.236
 -18268195.079 9 -14234935.52129  21654550.065
  -8082080.044 6  -6297714.87024  24140556.247
 92  5  9  5 11  0.0030000  0  5G16G20G17G 3G23
  -1715313.500 7  -1336585.74923  24175256.005
  15645849.503 7  12191569.84025  23995853.318
 -16551557.270 8 -12897295.20929  21918858.183
 -18278750.054 9 -14243160.16029  21652540.254
  -8170776.864 6  -6366829.17323  24123679.409
 92  5  9  5 11 30.0030000  0  5G16G20G17G 3G23
  -1618327.664 6  -1261012.38224  24193708.528
  15760361.899 6  12280800.26223  24017646.720
 -16578223.319 8 -12918073.92029  21913784.811
 -18288994.535 9 -14251142.85529  21650588.901
  -8259241.168 6  -6435762.30825  24106842.775
 92  5  9  5 12  0.0030000  0  5G16G20G17G 3G23
  -1521049.488 7  -1185211.19325  24212222.826
  15875079.669 6  12370190.67324  24039478.827
 -16604571.162 8 -12938604.67329  21908773.179
 -18298925.786 9 -14258881.47729  21648696.006
  -8347476.623 6  -6504517.11124  24090052.909
 92  5  9  5 12 30.0030000  0  5G16G20G17G 3G23
  -1423463.484 7  -1109170.12923  24230794.673
  15989996.296 6  12459736.03325  24061344.474
 -16630614.308 8 -12958898.00429  21903814.001
 -18308545.358 9 -14266377.23129  21646869.387
  -8435484.155 6  -6573094.30424  24073308.901
 92  5  9  5 13  0.0030000  0  5G16G20G17G 3G23
  -1325560.694 6  -1032882.21524  24249426.760
  16105107.296 6  12549432.86124  24083248.511
 -16656356.048 9 -12978956.47529  21898918.098
 -18317853.833 9 -14273630.58429  21645095.223
  -8523263.841 6  -6641493.97424  24056601.156
 92  5  9  5 13 30.0030000  0  5G16G20G17G 3G23
  -1227337.118 6   -956344.38124  24268113.744
  16220415.435 6  12639283.30023  24105188.530
 -16681798.356 9 -12998781.63029  21894078.245
 -18326843.295 9 -14280635.34029  21643388.208
  -8610811.100 6  -6709712.53225  24039942.305
 92  5  9  5 14  0.0030000  0  5G16G20G17G 3G23
  -1128801.355 6   -879563.23324  24286859.745
  16335910.463 6  12729279.37924  24127178.910
 -16706942.273 9 -13018374.25329  21889289.068
 -18335519.787 9 -14287396.22729  21641736.650
  -8698119.715 6  -6777745.10724  24023327.813
 92  5  9  5 14 30.0030000  0  5G16G20G17G 3G23
  -1029945.271 6   -802532.54425  24305672.336
  16451596.179 6  12819424.04824  24149182.483
 -16731772.336 9 -13037722.32729  21884565.224
 -18343875.044 9 -14293906.80129  21640144.457
  -8785172.211 6  -6845578.13124  24006761.554
 92  5  9  5 15  0.0030000  0  5G16G20G17G 3G23
   -930805.098 6   -725280.44125  24324537.383
  16567463.401 6  12909710.13624  24171233.416
 -16756294.327 8 -13056830.34729  21879897.745
 -18351913.067 9 -14300170.18229  21638616.690
  -8871975.189 6  -6913216.71525  23990247.191
 92  5  9  5 15 30.0030000  0  5G16G20G17G 3G23
   -831385.540 6   -647810.66125  24343455.478
  16683517.936 6  13000142.19623  24193317.015
 -16780493.248 9 -13075686.61929  21875295.948
 -18359623.581 9 -14306178.36729  21637147.731
  -8958519.980 6  -6980654.13225  23973773.906
 92  5  9  5 16  0.0030000  0  5G16G20G17G 3G23
   -731699.367 6   -570133.09623  24362426.343
  16799752.084 6  13090714.21925  24215435.690
 -16804380.796 9 -13094300.26329  21870748.386
 -18367010.000 9 -14311934.00829  21635743.477
  -9044802.974 6  -7047887.53724  23957357.265
 92  5  9  5 16 30.0030000  0  5G16G20G17G 3G23
   -631751.392 6   -492251.54125  24381449.977
  16916160.128 6  13181421.74524  24237584.379
 -16827971.637 9 -13112682.70729  21866262.005
 -18374073.163 9 -14317437.75529  21634395.936
  -9130839.745 6  -7114929.08723  23940986.483
 92  5  9  5 17  0.0030000  0  5G16G20G17G 3G23
   -531539.932 6   -414164.67322  24400517.690
  17032743.219 6  13272265.65024  24259775.890
 -16851260.226 9 -13130829.64729  21861829.266
 -18380807.759 9 -14322685.48629  21633117.289
  -9216632.267 6  -7181780.34625  23924658.000
 92  5  9  5 17 30.0030000  0  5G16G20G17G 3G23
   -431054.145 6   -335864.04022  24419641.418
  17149498.021 6  13363243.34024  24281989.913
 -16874232.039 9 -13148729.74129  21857454.392
 -18387212.623 9 -14327676.27429  21631900.136
  -9302175.641 6  -7248437.44324  23908379.564
 92  5  9  5 18  0.0030000  0  5G16G20G17G 3G23
   -330290.157 6   -257346.65925  24438813.763
  17266419.882 6  13454351.23323  24304239.918
 -16896886.906 9 -13166382.84829  21853141.884
 -18393287.253 9 -14332409.74029  21630741.756
  -9387468.156 6  -7314899.04725  23892148.210
 92  5  9  5 18 30.0030000  0  5G16G20G17G 3G23
   -229254.244 6   -178617.39024  24458036.749
  17383504.107 6  13545585.68724  24326519.902
 -16919210.565 9 -13183777.88429  21848898.026
 -18399032.109 9 -14336886.23229  21629648.116
  -9472512.874 6  -7381167.57825  23875968.123
 92  5  9  5 19  0.0030000  0  5G16G20G17G 3G23
   -127957.263 6    -99684.63122  24477317.913
  17500742.873 6  13636940.48824  24348829.273
 -16941205.395 9 -13200916.69229  21844711.126
 -18404449.949 9 -14341107.92029  21628618.623
  -9557305.657 6  -7447239.81326  23859832.989
 92  5  9  5 19 30.0030000  0  5G16G20G17G 3G23
    -26388.452 6    -20540.10523  24496652.126
  17618138.128 6  13728417.26124  24371166.179
 -16962885.099 9 -13217809.94429  21840585.371
 -18409534.462 9 -14345069.86529  21627654.498
  -9641839.212 6  -7513110.03925  23843743.434
 92  5  9  5 20  0.0030000  0  5G16G20G17G 3G23
     75444.244 6     58810.03724  24516016.912
  17735688.538 6  13820014.92624  24393535.509
 -16984268.117 9 -13234472.00629  21836516.608
 -18414282.581 9 -14348769.68829  21626747.611
  -9726113.953 6  -7578778.59324  23827703.334
 92  5  9  5 20 30.0030000  0  5G16G20G17G 3G23
    177536.822 6    138362.72224  24535451.568
  17853392.155 6  13911731.98624  24415937.191
 -17005362.639 9 -13250909.27629  21832501.767
 -18418691.354 9 -14352205.08829  21625907.906
  -9810129.391 6  -7644245.09325  23811717.189
 92  5  9  5 21  0.0030000  0  5G16G20G17G 3G23
    279891.464 6    218119.58622  24554928.769
  17971243.051 6  14003563.77823  24438358.068
 -17026179.070 9 -13267129.84129  21828542.103
 -18422762.710 9 -14355377.55329  21625134.443
  -9893894.579 6  -7709516.59425  23795780.220
 92  5  9  5 21 30.0040000  0  5G16G20G17G 3G23
    382503.052 6    298076.69924  24574456.071
  18089240.317 6  14095509.66625  24460819.416
 -17046713.706 9 -13283130.83029  21824633.729
 -18426496.795 9 -14358287.22229  21624423.018
  -9977415.402 6  -7774597.68024  23779886.128
 92  5  9  5 22  0.0040000  0  5G16G20G17G 3G23
    485343.118 6    378211.79724  24594022.023
  18207377.782 6  14187564.79824  24483300.880
 -17066947.442 9 -13298897.36629  21820783.478
 -18429886.955 9 -14360928.89529  21623773.381
 -10060679.030 6  -7839478.36324  23764038.783
 92  5  9  5 22 30.0040000  0  5G16G20G17G 3G23
    588426.984 6    458536.85823  24613642.525
  18325657.992 6  14279731.14424  24505806.880
 -17086872.646 8 -13314423.47029  21816989.905
 -18432929.981 9 -14363300.07129  21623197.768
 -10143688.623 6  -7904161.08825  23748241.240
 92  5  9  5 23  0.0040000  0  5G16G20G17G 3G23
    691750.721 6    539048.89124  24633302.324
  18444077.580 6  14372006.10724  24528344.395
 -17106486.192 9 -13329706.72629  21813262.888
 -18435625.006 9 -14365400.07529  21622687.524
 -10226436.987 6  -7968640.26525  23732497.026
 92  5  9  5 23 30.0040000  0  5G16G20G17G 3G23
    795314.287 6    619747.75923  24653010.076
  18562633.616 6  14464387.39124  24550905.258
 -17125785.623 8 -13344745.22129  21809585.638
 -18437970.391 9 -14367227.63929  21622240.833
 -10308910.855 7  -8032905.56025  23716807.709
 92  5  9  5 24  0.0040000  0  5G16G20G17G 3G23
    899125.511 6    700639.64425  24672764.595
  18681322.142 6  14556871.88224  24573491.040
 -17144772.751 9 -13359540.36129  21805975.537
 -18439965.591 9 -14368782.32429  21621858.883
 -10391097.474 7  -8096947.01424  23701161.844
 92  5  9  5 24 30.0040000  0  5G16G20G17G 3G23
   1003195.616 6    781733.23823  24692569.476
  18800131.539 6  14649450.56422  24596098.390
 -17163450.850 9 -13374094.70129  21802419.985
 -18441617.124 9 -14370069.22229  21621542.301
 -10472998.442 7  -8160765.89325  23685579.219
 92  5  9  5 25  0.0040000  0  5G16G20G17G 3G23
   1107514.810 6    863020.90024  24712419.657
  18919068.297 6  14742128.54723  24618732.998
 -17181799.160 9 -13388392.06729  21798928.022
 -18442914.559 9 -14371080.19929  21621301.872
 -10554593.772 7  -8224346.61225  23670050.270
 92  5  9  5 25 30.0040000  0  5G16G20G17G 3G23
   1212078.419 6    944499.04224  24732322.258
  19038129.290 6  14834903.30522  24641380.239
 -17199817.624 9 -13402432.40329  21795497.798
 -18443856.079 9 -14371813.83829  21621117.528
 -10635878.791 7  -8287685.51724  23654585.468
 92  5  9  5 26  0.0040000  0  5G16G20G17G 3G23
   1316884.128 6   1026165.81925  24752256.061
  19157313.754 6  14927774.25424  24664067.930
 -17217506.546 8 -13416215.95529  21792130.220
 -18444438.115 9 -14372267.36229  21621008.673
 -10716850.291 7  -8350780.13125  23639175.251
 92  5  9  5 26 30.0040000  0  5G16G20G17G 3G23
   1421927.426 6   1108017.74124  24772252.824
  19276619.586 6  15020739.78823  24686766.092
 -17234875.864 9 -13429750.47029  21788827.103
 -18444658.153 9 -14372438.80629  21620969.410
 -10797522.014 7  -8413641.12325  23623824.364
 92  5  9  5 27  0.0040000  0  5G16G20G17G 3G23
   1527193.149 6   1190042.98324  24792280.474
  19396040.258 6  15113794.83323  24709495.768
 -17251939.411 9 -13443046.71729  21785580.351
 -18444518.117 9 -14372329.68729  21620994.888
 -10877892.357 7  -8476267.30325  23608530.155
 92  5  9  5 27 30.0040000  0  5G16G20G17G 3G23
   1632694.724 6   1272251.98323  24812357.856
  19515570.580 6  15206935.27823  24732239.823
 -17268719.664 9 -13456122.21529  21782386.368
 -18444018.896 9 -14371940.67729  21621091.422
 -10957974.528 7  -8538668.92526  23593290.496
 92  5  9  5 28  0.0040000  0  5G16G20G17G 3G23
   1738431.743 6   1354644.48424  24832485.915
  19635204.826 6  15300156.70923  24755000.387
 -17285220.370 9 -13468979.88629  21779247.527
 -18443161.489 9 -14371272.54729  21621251.231
 -11037784.430 7  -8600858.39926  23578106.608
 92  5  9  5 28 30.0040000  0  5G16G20G17G 3G23
   1844407.264 6   1437222.80525  24852642.766
  19754947.781 6  15393462.85322  24777790.895
 -17301434.381 8 -13481614.16129  21776156.675
 -18441936.533 9 -14370318.01729  21621488.659
 -11117319.262 7  -8662833.51526  23562969.801
 92  5  9  5 29  0.0040000  0  5G16G20G17G 3G23
   1950619.271 6   1519985.38724  24872858.390
  19874790.802 6  15486846.98822  24800602.692
 -17317359.299 9 -13494023.17329  21773132.971
 -18440348.435 9 -14369080.53229  21621788.454
 -11196582.886 7  -8724597.31526  23547883.948
 92  5  9  5 29 30.0040000  0  5G16G20G17G 3G23
   2057076.192 6   1602938.82923  24893110.868
  19994733.266 6  15580308.59224  24823428.309
 -17332990.729 9 -13506203.49029  21770159.942
 -18438393.029 9 -14367556.81229  21622158.678
 -11275577.294 7  -8786151.33325  23532852.959
 92  5  9  5 30  0.0040000  0  5G16G20G17G 3G23
   2163760.780 6   1686069.68223  24913413.394
  20114772.538 6  15673845.60722  24846263.176
 -17348318.235 9 -13518146.97729  21767239.055
 -18436068.277 9 -14365745.31229  21622602.367
 -11354280.373 7  -8847478.35226  23517878.298
 92  5  9  5 30 30.0040000  0  5G16G20G17G 3G23
   2270669.057 5   1769374.84323  24933759.719
  20234910.127 6  15767459.27822  24869131.965
 -17363333.528 9 -13529847.19229  21764381.722
 -18433368.633 9 -14363641.68329  21623115.019
 -11432668.774 7  -8908560.15125  23502959.444
 92  5  9  5 31  0.0040000  0  5G16G20G17G 3G23
   2377781.037 6   1852838.70523  24954135.710
  20355138.886 6  15861143.96022  24892007.316
 -17378036.059 9 -13541303.69029  21761585.568
 -18430296.260 9 -14361247.60729  21623701.417
 -11510728.641 7  -8969385.95526  23488103.236
 92  5  9  5 31 30.0040000  0  5G16G20G17G 3G23
   2485075.147 6   1936444.52423  24974561.469
  20475457.734 6  15954898.89023  24914897.674
 -17392422.386 9 -13552513.79929  21758845.465
 -18426848.379 9 -14358560.93329  21624357.056
 -11588435.892 7  -9029937.00925  23473319.272
 92  5  9  5 32  0.0040000  0  5G16G20G17G 3G23
   2592532.200 6   2020177.27524  24995016.615
  20595862.159 6  16048720.44023  24937814.696
 -17406486.673 9 -13563472.96429  21756171.603
 -18423024.567 9 -14355581.32329  21625081.380
 -11665789.811 7  -9090212.73026  23458595.546
 92  5  9  5 32 30.0040000  0  5G16G20G17G 3G23
   2700158.822 5   2104042.14923  25015488.233
  20716349.305 6  16142606.46823  24960748.226
 -17420231.964 9 -13574183.55329  21753552.919
 -18418823.853 9 -14352308.03028  21625885.102
 -11742813.581 7  -9150231.18525  23443939.004
 92  5  9  5 33  0.0040000  0  5G16G20G17G 3G23
   2807959.308 6   2188042.57023  25036007.525
  20836915.228 6  16236553.87222  24983687.445
 -17433658.196 8 -13584645.54029  21750996.009
 -18414244.927 9 -14348740.02029  21626753.913
 -11819518.775 7  -9210001.39926  23429347.515
 92  5  9  5 33 30.0040000  0  5G16G20G17G 3G23
   2915949.387 6   2272190.66023  25056549.607
  20957551.761 5  16330556.30023  25006637.762
 -17446775.601 8 -13594866.86829  21748502.023
 -18409292.242 9 -14344880.76529  21627697.063
 -11895929.902 7  -9269542.47326  23414802.480
 92  5  9  5 34  0.0040000  0  5G16G20G17G 3G23
   3024156.585 6   2356507.90823  25077149.834
  21078264.089 6  16424617.77123  25029614.463
 -17459577.682 9 -13604842.49629  21746068.905
 -18403955.729 9 -14340722.43229  21628713.049
 -11972062.982 7  -9328866.89026  23400318.904
 92  5  9  5 34 30.0040000  0  5G16G20G17G 3G23
   3132587.545 6   2440999.57222  25097780.668
  21199046.310 6  16518733.73522  25052596.260
 -17472071.092 9 -13614577.60129  21743690.056
 -18398237.138 9 -14336266.38028  21629802.815
 -12047917.201 7  -9387974.02126  23385880.280
 92  5  9  5 35  0.0040000  0  5G16G20G17G 3G23
   3241232.730 6   2525658.17223  25118454.953
  21319899.052 5  16612904.64822  25075590.622
 -17484250.969 9 -13624068.38729  21741370.852
 -18392131.321 9 -14331508.59129  21630964.197
 -12123470.586 7  -9446846.71426  23371500.742
 92  5  9  5 35 30.0040000  0  5G16G20G17G 3G23
   3350069.783 6   2610466.23523  25139164.313
  21440809.874 5  16707120.77022  25098602.992
 -17496139.711 9 -13633332.32829  21739111.328
 -18385646.131 9 -14326455.18829  21632196.357
 -12198725.665 7  -9505486.98626  23357184.443
 92  5  9  5 36  0.0040000  0  5G16G20G17G 3G23
   3459085.587 5   2695413.58022  25159910.842
  21561783.268 5  16801385.72923  25121619.271
 -17507737.925 9 -13642369.87329  21736899.164
 -18378772.803 9 -14321099.34729  21633507.322
 -12273657.210 7  -9563875.14426  23342923.044
 92  5  9  5 36 30.0040000  0  5G16G20G17G 3G23
   3568266.788 6   2780489.83524  25180684.070
  21682817.384 5  16895697.94024  25144652.616
 -17519047.008 9 -13651182.13429  21734750.554
 -18371509.058 9 -14315439.27929  21634886.692
 -12348250.720 7  -9621999.89426  23328729.071
 92  5  9  5 37  0.0040000  0  5G16G20G17G 3G23
   3677609.305 6   2865691.79321  25201491.465
  21803906.515 6  16990053.07021  25167704.563
 -17530075.076 9 -13659775.40929  21732647.209
 -18363855.895 9 -14309475.76429  21636343.087
 -12422514.048 7  -9679867.34626  23314598.339
 92  5  9  5 37 30.0040000  0  5G16G20G17G 3G23
   3787114.359 6   2951020.38922  25222329.433
  21925047.178 5  17084448.29222  25190746.005
 -17540825.022 9 -13668151.97329  21730604.417
 -18355812.519 9 -14303208.18129  21637874.728
 -12496454.093 7  -9737482.90926  23300526.693
 92  5  9  5 38  0.0040000  0  5G16G20G17G 3G23
   3896795.967 6   3036486.59522  25243197.415
  22046237.781 6  17178882.46323  25213818.927
 -17551276.717 9 -13676296.12529  21728617.675
 -18347375.953 9 -14296634.23629  21639479.799
 -12570068.530 7  -9794844.74126  23286516.785
 92  5  9  5 38 30.0040000  0  5G16G20G17G 3G23
   4006663.554 6   3122097.68923  25264107.034
  22167478.068 5  17273355.34722  25236881.065
 -17561417.377 9 -13684197.91129  21726686.424
 -18338542.454 9 -14289750.98629  21641161.651
 -12643358.641 7  -9851953.86126  23272571.339
 92  5  9  5 39  0.0040000  0  5G16G20G17G 3G23
   4116708.146 5   3207846.69623  25285043.945
  22288760.045 5  17367860.72323  25259962.084
 -17571244.260 9 -13691855.21229  21724816.633
 -18329315.423 9 -14282561.08929  21642918.120
 -12716320.443 7  -9908807.15926  23258687.946
 92  5  9  5 39 30.0040000  0  5G16G20G17G 3G23
   4226927.956 6   3293732.22522  25306025.214
  22410086.937 5  17462401.11622  25283049.420
 -17580735.428 9 -13699250.90329  21723013.084
 -18319687.340 9 -14275058.68129  21644748.368
 -12788941.439 7  -9965394.88527  23244872.608
 92  5  9  5 40  0.0040000  0  5G16G20G17G 3G23
   4337325.792 6   3379756.59423  25327031.054
  22531452.086 5  17556971.29123  25306140.037
 -17589895.344 8 -13706388.48529  21721263.490
 -18309660.688 9 -14267245.71629  21646658.644
 -12861222.883 7 -10021718.02826  23231113.321
 92  5  9  5 40 30.0040000  0  5G16G20G17G 3G23
   4447885.982 6   3465907.39422  25348073.503
  22652852.178 6  17651568.66422  25329247.441
 -17598738.712 9 -13713279.40029  21719587.327
 -18299234.400 9 -14259121.32929  21648639.662
 -12933158.706 7 -10077771.86027  23217425.405
 92  5  9  5 41  0.0040000  0  5G16G20G17G 3G23
   4558601.834 5   3552179.47422  25369148.620
  22774286.195 6  17746192.50823  25352360.533
 -17607270.403 9 -13719927.45829  21717963.060
 -18288405.101 9 -14250682.91029  21650701.615
 -13004753.546 7 -10133559.98826  23203800.729
 92  5  9  5 41 30.0040000  0  5G16G20G17G 3G23
   4669481.437 5   3638579.10623  25390244.397
  22895753.122 6  17840841.99523  25375472.718
 -17615512.436 9 -13726349.80429  21716389.470
 -18277169.935 9 -14241928.22828  21652840.349
 -13076005.323 7 -10189080.80527  23190240.235
 92  5  9  5 42  0.0040000  0  5G16G20G17G 3G23
   4780520.348 6   3725102.95024  25411370.189
  23017243.502 5  17935509.76624  25398588.812
 -17623490.137 9 -13732566.16529  21714875.803
 -18265533.668 9 -14232861.00029  21655053.420
 -13146904.401 7 -10244326.79326  23176748.669
 92  5  9  5 42 30.0040000  0  5G16G20G17G 3G23
   4891708.056 6   3811742.75822  25432528.613
  23138756.657 5  18030195.25324  25421708.815
 -17631200.442 9 -13738574.18829  21713410.403
 -18253493.033 9 -14223478.67828  21657344.738
 -13217452.063 7 -10299298.95627  23163324.565
 92  5  9  5 43  0.0040000  0  5G16G20G17G 3G23
   5003040.896 5   3898495.60623  25453710.176
  23260288.357 5  18124895.20822  25444833.600
 -17638643.493 9 -13744373.94829  21711989.397
 -18241047.928 9 -14213781.19529  21659709.801
 -13287658.282 7 -10354005.05127  23149969.111
 92  5  9  5 43 30.0040000  0  5G16G20G17G 3G23
   5114527.711 5   3985368.38722  25474928.280
  23381843.862 5  18219613.73723  25467972.798
 -17645811.646 9 -13749959.50229  21710631.037
 -18228188.678 9 -14203760.98829  21662159.986
 -13357506.004 7 -10408431.79726  23136674.802
 92  5  9  5 44  0.0040000  0  5G16G20G17G 3G23
   5226154.273 5   4072350.13422  25496169.767
  23503414.200 5  18314343.76422  25491108.680
 -17652683.880 9 -13755314.47629  21709320.666
 -18214920.353 9 -14193422.03429  21664683.358
 -13427003.410 7 -10462585.57626  23123447.956
 92  5  9  5 44 30.0040000  0  5G16G20G17G 3G23
   5337909.715 5   4159432.34623  25517436.731
  23624993.403 5  18409080.72822  25514240.968
 -17659251.630 9 -13760432.18329  21708072.312
 -18201244.668 9 -14182765.65729  21667283.161
 -13496170.001 7 -10516481.59226  23110288.572
 92  5  9  5 45  0.0040000  0  5G16G20G17G 3G23
   5449798.595 5   4246618.50923  25538721.111
  23746581.489 5  18503824.62223  25537377.444
 -17665507.888 9 -13765307.17929  21706879.450
 -18187156.946 9 -14171788.20128  21669968.994
 -13564988.248 7 -10570106.14426  23097192.742
 92  5  9  5 45 30.0040000  0  5G16G20G17G 3G23
   5561830.844 5   4333916.33922  25560046.254
  23868178.527 5  18598575.46823  25560516.014
 -17671441.746 9 -13769930.94329  21705750.107
 -18172653.104 9 -14160486.51129  21672727.070
 -13633432.164 7 -10623439.03627  23084167.062
 92  5  9  5 46  0.0040000  0  5G16G20G17G 3G23
   5674013.657 5   4421331.50823  25581393.280
  23989779.951 5  18693329.70822  25583657.306
 -17677050.479 9 -13774301.36929  21704687.074
 -18157733.736 9 -14148861.02828  21675564.336
 -13701505.633 7 -10676483.25826  23071213.626
 92  5  9  5 46 30.0040000  0  5G16G20G17G 3G23
   5786347.310 5   4508864.23724  25602773.566
  24111380.595 5  18788083.37621  25606794.096
 -17682350.734 9 -13778431.42129  21703674.054
 -18142399.957 9 -14136912.62428  21678487.911
 -13769214.698 7 -10729243.53427  23058322.242
 92  5  9  5 47  0.0040000  0  5G16G20G17G 3G23
   5898841.015 5   4596521.66223  25624183.238
  24232976.090 5  18882832.99922  25629932.666
 -17687350.833 9 -13782327.59029  21702724.623
 -18126651.776 9 -14124641.30829  21681481.321
 -13836545.266 7 -10781708.88127  23045513.608
 92  5  9  5 47 30.0040000  0  5G16G20G17G 3G23
   6011501.600 5   4684309.12122  25645622.296
  24354571.090 5  18977582.27923  25653077.239
 -17692048.581 9 -13785988.16429  21701826.146
 -18110480.715 9 -14112040.47128  21684561.389
 -13903493.430 7 -10833876.24826  23032773.344
 92  5  9  5 48  0.0040000  0  5G16G20G17G 3G23
   6124311.711 5   4772213.13822  25667083.831
  24476159.559 5  19072326.44622  25676217.309
 -17696448.093 9 -13789416.33129  21700993.003
 -18093888.507 9 -14099111.47829  21687717.296
 -13970083.242 7 -10885764.38527  23020106.196
 92  5  9  5 48 30.0040000  0  5G16G20G17G 3G23
   6237249.618 5   4860216.66922  25688583.755
  24597739.558 5  19167064.01622  25699340.628
 -17700549.333 9 -13792612.09329  21700210.849
 -18076872.856 9 -14085852.53129  21690956.580
 -14036300.125 7 -10937361.91727  23007504.137
 92  5  9  5 49  0.0040000  0  5G16G20G17G 3G23
   6350296.817 5   4948305.44722  25710092.370
  24719306.214 5  19261791.16923  25722486.981
 -17704355.397 9 -13795577.84329  21699486.560
 -18059435.023 8 -14072264.59328  21694272.261
 -14102148.095 7 -10988671.98526  22994974.008
 92  5  9  5 49 30.0040000  0  5G16G20G17G 3G23
   6463434.542 5   5036464.72121  25731622.553
  24840860.490 5  19356508.67423  25745612.393
 -17707860.699 9 -13798309.23029  21698819.229
 -18041569.755 9 -14058343.60228  21697673.727
 -14167643.467 7 -11039707.31526  22982508.934
 92  5  9  5 50  0.0040000  0  5G16G20G17G 3G23
   6576655.034 6   5124688.51522  25753168.058
  24962394.801 5  19451210.62223  25768741.679
 -17711078.500 9 -13800816.59629  21698206.447
 -18023280.470 9 -14044092.20729  21701147.717
 -14232796.698 7 -11090476.03826  22970110.729
 92  5  9  5 50 30.0040000  0  5G16G20G17G 3G23
   6689961.882 5   5212979.59822  25774721.031
  25083909.720 5  19545897.44422  25791863.776
 -17714017.494 9 -13803106.69929  21697651.530
 -18004562.339 9 -14029506.64629  21704716.740
 -14297598.348 7 -11140970.79927  22957778.764
 92  5  9  5 51  0.0040000  0  5G16G20G17G 3G23
   6803367.777 5   5301347.85023  25796305.799
  25205408.720 5  19640571.87322  25814984.372
 -17716677.304 9 -13805179.26829  21697144.288
 -17985408.214 9 -14014581.34628  21708362.230
 -14362057.681 7 -11191198.82026  22945510.354
 92  5  9  5 51 30.0040000  0  5G16G20G17G 3G23
   6916871.990 4   5389792.69524  25817904.632
  25326878.172 5  19735223.30621  25838095.057
 -17719068.474 9 -13807042.50129  21696690.407
 -17965827.621 9 -13999323.73328  21712087.433
 -14426167.680 7 -11241154.61626  22933310.593
 92  5  9  5 52  0.0040000  0  5G16G20G17G 3G23
   7030475.877 4   5478315.09323  25839520.565
  25448311.796 5  19829846.79622  25861202.461
 -17721188.683 9 -13808694.60229  21696285.981
 -17945822.780 9 -13983735.54029  21715893.290
 -14489912.077 7 -11290825.54227  22921179.794
 92  5  9  5 52 30.0040000  0  5G16G20G17G 3G23
   7144186.336 5   5566920.59023  25861162.290
  25569713.867 5  19924445.67722  25884308.050
 -17723014.474 9 -13810117.28129  21695937.012
 -17925385.693 9 -13967810.53729  21719783.118
 -14553272.912 7 -11340197.59127  22909126.929
 92  5  9  5 53  0.0040000  0  5G16G20G17G 3G23
   7258019.826 6   5655622.01021  25882817.208
  25691087.692 5  20019022.57823  25907398.667
 -17724519.551 9 -13811290.05629  21695649.816
 -17904508.848 9 -13951542.86128  21723750.251
 -14616234.018 8 -11389258.15826  22897145.121
 92  5  9  5 53 30.0040000  0  5G16G20G17G 3G23
   7371961.266 6   5744407.60821  25904507.480
  25812421.513 5  20113568.28023  25930493.506
 -17725705.306 9 -13812214.01329  21695428.582
 -17883200.150 9 -13934938.67628  21727808.857
 -14678797.360 8 -11438008.78727  22885242.467
 92  5  9  5 54  0.0040000  0  5G16G20G17G 3G23
   7486008.906 5   5833275.98822  25926209.164
  25933714.005 5  20208081.78624  25953576.899
 -17726561.404 9 -13812881.08729  21695261.584
 -17861456.997 9 -13917995.96629  21731946.897
 -14740976.673 8 -11486460.17727  22873409.370
 92  5  9  5 54 30.0040000  0  5G16G20G17G 3G23
   7600173.641 4   5922235.57222  25947930.915
  26054965.746 5  20302563.55821  25976650.135
 -17727091.270 9 -13813293.95729  21695158.453
 -17839275.128 9 -13900711.38128  21736168.873
 -14802781.948 8 -11534620.10027  22861645.829
 92  5  9  5 55  0.0040000  0  5G16G20G17G 3G23
   7714443.958 5   6011277.29623  25969676.958
  26176170.597 5  20397008.75722  25999720.963
 -17727313.032 9 -13813466.74829  21695121.563
 -17816656.671 9 -13883086.61528  21740474.190
 -14864220.986 8 -11582494.65327  22849956.591
 92  5  9  5 55 30.0040000  0  5G16G20G17G 3G23
   7828807.139 5   6100391.44924  25991435.320
  26297324.743 5  20491414.44222  26022765.721
 -17727243.666 9 -13813412.69229  21695130.567
 -17793601.562 9 -13865121.58328  21744857.755
 -14925301.149 8 -11630089.55027  22838331.535
 92  5  9  5 56  0.0040000  0  5G16G20G17G 3G23
   7943273.353 5   6189585.89724  26013219.439
  26418425.863 5  20585778.87322  26045811.351
 -17726897.313 9 -13813142.80529  21695199.531
 -17770108.416 9 -13846815.23128  21749326.756
 -14986014.090 8 -11677398.29826  22826778.758
 92  5  9  5 56 30.0040000  0  5G16G20G17G 3G23
   8057832.757 5   6278852.95723  26035016.437
  26539470.412 5  20680099.19321  26068848.919
 -17726289.082 9 -13812668.84629  21695314.039
 -17746176.317 9 -13828166.84428  21753882.693
 -15046339.123 8 -11724404.79027  22815298.190
 92  5  9  5 57  0.0040000  0  4G20G17G 3G23
  26660461.131 4  20774377.56822  26091864.290
 -17725415.191 9 -13811987.87329  21695481.038
 -17721799.324 9 -13809171.77528  21758524.696
 -15106257.899 8 -11771094.70726  22803900.092
 92  5  9  5 57 30.0040000  0  3G17G 3G23
 -17724270.590 9 -13811095.96829  21695698.397
 -17696977.596 9 -13789830.15728  21763246.724
 -15165776.424 8 -11817472.75027  22792572.143
 92  5  9  5 58  0.0040000  0  3G17G 3G23
 -17722848.061 9 -13809987.49529  21695969.085
 -17671711.576 9 -13770142.35128  21768054.783
 -15224887.134 8 -11863533.01127  22781321.534
 92  5  9  5 58 30.0040000  0  3G17G 3G23
 -17721131.408 9 -13808649.83729  21696294.078
 -17645996.939 9 -13750104.96828  21772946.812
 -15283590.024 8 -11909275.48827  22770152.139
 92  5  9  5 59  0.0040000  0  3G17G 3G23
 -17719117.197 9 -13807080.30529  21696674.493
 -17619838.867 9 -13729722.04228  21777926.964
 -15341906.393 8 -11954716.78527  22759051.148
 92  5  9  5 59 30.0040000  0  3G17G 3G23
 -17716798.403 9 -13805273.44929  21697122.091
 -17593231.044 9 -13708988.66428  21782990.459
 -15399827.095 8 -11999849.76227  22748034.965
 92  5  9  6  0  0.0040000  0  3G17G 3G23
 -17714180.206 9 -13803233.28929  21697618.864
 -17566173.113 9 -13687904.56228  21788137.296
 -15457349.154 8 -12044672.11627  22737086.838
 92  5  9  6  0 30.0040000  0  3G17G 3G23
 -17711272.378 9 -13800967.43229  21698170.465
 -17538668.243 9 -13666472.18528  21793371.978
 -15514496.905 8 -12089202.80128  22726210.676
 92  5  9  6  1  0.0040000  0  3G17G 3G23
 -17708076.960 9 -13798477.48029  21698781.153
 -17510708.497 9 -13644685.36728  21798691.188
 -15571267.971 8 -12133439.95428  22715408.851
 92  5  9  6  1 30.0040000  0  3G17G 3G23
 -17704599.465 9 -13795767.74829  21699442.202
 -17482298.328 9 -13622547.56028  21804098.836
 -15627662.382 8 -12177383.61827  22704672.395
 92  5  9  6  2  0.0040000  0  3G17G 3G23
 -17700837.038 9 -13792835.96429  21700157.801
 -17453433.690 9 -13600055.63828  21809592.828
 -15683678.955 8 -12221032.85727  22694019.561
 92  5  9  6  2 30.0040000  0  3G17G 3G23
 -17696780.817 9 -13789675.26429  21700928.577
 -17424115.025 9 -13577209.92127  21815167.788
 -15739303.467 8 -12264376.60128  22683430.594
 92  5  9  6  3  0.0040000  0  3G17G 3G23
 -17692421.381 9 -13786278.29529  21701757.183
 -17394339.853 9 -13554008.47728  21820837.748
 -15794503.787 8 -12307389.80528  22672924.970
 92  5  9  6  3 30.0040000  0  3G17G 3G23
 -17687745.167 9 -13782634.48229  21702648.470
 -17364102.891 9 -13530447.20028  21826591.678
 -15849263.002 8 -12350059.29228  22662506.562
 92  5  9  6  4  0.0040000  0  3G17G 3G23
 -17682749.095 9 -13778741.42529  21703599.123
 -17333409.360 9 -13506530.16127  21832428.915
 -15903589.436 8 -12392391.54428  22652167.622
 92  5  9  6  4 30.0040000  0  4G21G17G 3G23
   -204996.778 4   -159738.17122  25630955.563
 -17677426.488 9 -13774593.93529  21704609.107
 -17302256.174 8 -13482254.94828  21838357.906
 -15957485.382 8 -12434388.34928  22641912.617
 92  5  9  6  5  0.0040000  0  4G21G17G 3G23
   -299361.952 5   -233269.33121  25613004.000
 -17671795.594 9 -13770206.20429  21705681.178
 -17270641.239 9 -13457619.93628  21844377.463
 -16010968.239 8 -12476063.27128  22631731.078
 92  5  9  6  5 30.0040000  0  4G21G17G 3G23
   -393588.701 5   -306692.69724  25595083.290
 -17665878.376 9 -13765595.38429  21706808.393
 -17238571.318 9 -13432630.38528  21850478.513
 -16064068.179 8 -12517439.81527  22621628.065
 92  5  9  6  6  0.0040000  0  4G21G17G 3G23
   -487676.794 5   -380007.98522  25577164.708
 -17659685.219 9 -13760769.53029  21707986.876
 -17206043.010 9 -13407283.65628  21856669.536
 -16116794.436 8 -12558525.17528  22611599.111
 92  5  9  6  6 30.0040000  0  4G21G17G 3G23
   -581650.452 5   -453234.08522  25559283.889
 -17653250.365 9 -13755755.35629  21709209.717
 -17173060.326 9 -13381582.86528  21862947.182
 -16169147.307 8 -12599319.59328  22601635.805
 92  5  9  6  7  0.0040000  0  4G21G17G 3G23
   -675509.128 5   -526370.64522  25541424.045
 -17646584.316 9 -13750561.02429  21710480.233
 -17139616.948 8 -13355523.08128  21869308.206
 -16221106.182 8 -12639807.00028  22591746.871
 92  5  9  6  7 30.0040000  0  4G21G17G 3G23
   -769255.856 4   -599419.99422  25523579.208
 -17639662.321 9 -13745167.24529  21711797.235
 -17105709.413 9 -13329101.61827  21875761.540
 -16272648.006 8 -12679969.42729  22581943.932
 92  5  9  6  8  0.0040000  0  4G21G17G 3G23
   -862893.507 5   -672384.27722  25505767.631
 -17632470.498 9 -13739563.21529  21713165.193
 -17071335.157 8 -13302316.48728  21882304.185
 -16323757.763 8 -12719795.18528  22572212.085
 92  5  9  6  8 30.0040000  0  4G21G17G 3G23
   -956420.837 5   -745262.63821  25487956.647
 -17625009.725 9 -13733749.62429  21714585.606
 -17036496.592 9 -13275169.55228  21888934.116
 -16374432.141 8 -12759281.68528  22562568.955
 92  5  9  6  9  0.0040000  0  4G21G17G 3G23
  -1049826.636 5   -818046.25223  25470186.742
 -17617251.272 9 -13727704.05529  21716066.571
 -17001196.195 9 -13247662.74628  21895647.669
 -16424681.208 8 -12798436.76627  22553007.981
 92  5  9  6  9 30.0040000  0  4G21G17G 3G23
  -1143104.301 5   -890730.06023  25452442.941
 -17609170.271 9 -13721407.17129  21717602.399
 -16965423.482 8 -13219787.91328  21902454.440
 -16474515.905 8 -12837268.96528  22543524.346
 92  5  9  6 10  0.0040000  0  4G21G17G 3G23
  -1236249.635 5   -963310.73221  25434717.394
 -17600795.436 9 -13714881.31229  21719193.405
 -16929182.535 9 -13191548.21828  21909352.965
 -16523953.189 8 -12875791.49828  22534115.049
 92  5  9  6 10 30.0040000  0  4G21G17G 3G23
  -1329254.825 5  -1035782.20723  25417014.079
 -17592132.180 9 -13708130.71529  21720843.463
 -16892473.627 8 -13162943.87128  21916340.242
 -16572991.707 8 -12914003.30629  22524784.906
 92  5  9  6 11  0.0040000  0  4G21G17G 3G23
  -1422104.731 5  -1108132.71522  25399353.586
 -17583163.995 9 -13701142.51229  21722550.792
 -16855291.853 8 -13133971.06028  21923415.328
 -16621619.316 8 -12951894.91328  22515535.104
 92  5  9  6 11 30.0040000  0  4G21G17G 3G23
  -1514798.536 5  -1180361.52023  25381712.323
 -17573919.288 9 -13693938.83229  21724312.671
 -16817640.032 8 -13104631.98128  21930574.978
 -16669826.867 8 -12989459.20828  22506356.674
 92  5  9  6 12  0.0040000  0  4G21G17G 3G23
  -1607325.172 5  -1252460.09524  25364114.197
 -17564401.100 9 -13686522.05629  21726119.222
 -16779517.609 8 -13074926.20227  21937835.036
 -16717600.405 8 -13026685.32128  22497267.867
 92  5  9  6 12 30.0040000  0  4G21G17G 3G23
  -1699683.694 5  -1324427.69024  25346529.578
 -17554583.523 9 -13678871.99229  21727983.918
 -16740924.966 8 -13044854.00928  21945180.252
 -16764934.758 8 -13063569.19028  22488261.496
 92  5  9  6 13  0.0040000  0  4G21G17G 3G23
  -1791877.812 5  -1396267.14823  25328981.220
 -17544462.684 9 -13670985.60929  21729914.610
 -16701857.638 8 -13014411.94227  21952610.938
 -16811835.600 8 -13100115.27229  22479334.872
 92  5  9  6 13 30.0040000  0  4G21G17G 3G23
  -1883929.257 5  -1467995.42622  25311473.033
 -17534050.992 9 -13662872.59529  21731895.628
 -16662317.710 8 -12983601.60627  21960134.530
 -16858321.231 8 -13136337.80928  22470486.809
 92  5  9  6 14  0.0040000  0  4G21G17G 3G23
  -1975841.259 5  -1539615.08223  25293973.256
 -17523336.971 9 -13654523.99829  21733935.698
 -16622303.325 8 -12952421.55927  21967749.840
 -16904395.662 8 -13172239.94228  22461722.960
 92  5  9  6 14 30.0040000  0  4G21G17G 3G23
  -2067612.040 5  -1611124.69823  25276511.242
 -17512330.699 9 -13645947.67029  21736028.259
 -16581815.019 9 -12920872.23727  21975454.809
 -16950060.790 8 -13207823.13428  22453031.705
 92  5  9  6 15  0.0040000  0  4G21G17G 3G23
  -2159243.757 5  -1682525.92522  25259076.520
 -17501055.811 9 -13637162.03429  21738171.180
 -16540854.894 8 -12888955.24827  21983250.624
 -16995326.226 8 -13243094.87029  22444418.068
 92  5  9  6 15 30.0040000  0  4G21G17G 3G23
  -2250706.510 5  -1753795.49523  25241679.840
 -17489511.803 9 -13628166.69129  21740370.152
 -16499419.566 8 -12856667.99027  21991131.561
 -17040168.147 8 -13278036.60729  22435881.770
 92  5  9  6 16  0.0040000  0  4G21G17G 3G23
  -2341979.300 5  -1824917.07123  25224308.078
 -17477694.512 9 -13618958.40329  21742616.484
 -16457509.029 8 -12824010.42428  21999113.221
 -17084569.164 8 -13312634.77628  22427436.319
 92  5  9  6 16 30.0040000  0  4G21G17G 3G23
  -2433057.999 6  -1895887.38322  25206977.080
 -17465594.124 9 -13609529.53029  21744920.994
 -16415120.468 8 -12790980.38027  22007175.535
 -17128528.289 8 -13346888.61228  22419071.487
 92  5  9  6 17  0.0040000  0  4G21G17G 3G23
  -2523950.002 5  -1966712.21322  25189668.244
 -17453196.689 9 -13599869.17629  21747280.054
 -16372257.184 8 -12757580.41727  22015329.010
 -17172052.384 8 -13380803.47129  22410790.347
 92  5  9  6 17 30.0040000  0  4G21G17G 3G23
  -2614659.353 5  -2037394.74723  25172422.997
 -17440501.135 9 -13589976.53929  21749695.793
 -16328919.113 8 -12723810.50328  22023577.798
 -17215146.102 8 -13414382.95928  22402590.420
 92  5  9  6 18  0.0040000  0  4G21G17G 3G23
  -2705204.053 5  -2107948.96223  25155177.749
 -17427506.127 9 -13579850.55929  21752172.083
 -16285101.727 8 -12689667.08327  22031918.932
 -17257825.214 8 -13447639.39329  22394465.738
 92  5  9  6 18 30.0040000  0  5G21G28G17G 3G23
  -2795590.175 5  -2178379.57121  25137992.426
  -3853595.606 5  -3002801.98422  26113379.780
 -17414217.537 9 -13569495.81629  21754699.643
 -16240805.002 8 -12655150.16027  22040345.503
 -17300094.188 8 -13480576.22928  22386421.711
 92  5  9  6 19  0.0040000  0  5G21G28G17G 3G23
  -2885819.112 5  -2248687.74022  25120816.421
  -3951734.607 5  -3079273.73621  26094699.706
 -17400650.085 9 -13558923.77129  21757280.844
 -16196026.257 8 -12620257.61927  22048864.978
 -17341947.272 8 -13513188.99029  22378457.117
 92  5  9  6 19 30.0040000  0  5G21G28G17G 3G23
  -2975898.056 5  -2318879.05723  25103674.583
  -4049835.586 5  -3155715.96024  26076025.042
 -17386830.681 9 -13548155.41529  21759910.941
 -16150768.421 8 -12584991.79927  22057478.929
 -17383379.958 8 -13545474.17628  22370574.086
 92  5  9  6 20  0.0040000  0  5G21G28G17G 3G23
  -3065826.071 5  -2388952.72422  25086558.223
  -4147898.788 5  -3232128.71922  26057374.039
 -17372753.913 9 -13537186.49829  21762587.769
 -16105033.362 8 -12549354.09327  22066182.190
 -17424375.891 8 -13577419.03328  22362773.490
 92  5  9  6 20 30.0040000  0  5G21G28G17G 3G23
  -3155602.629 5  -2458908.37422  25069489.258
  -4245921.852 5  -3308510.18821  26038735.950
 -17358425.018 9 -13526021.12729  21765314.087
 -16058822.449 8 -12513345.60127  22074977.798
 -17464928.685 8 -13609018.58729  22355053.234
 92  5  9  6 21  0.0040000  0  5G21G28G17G 3G23
  -3245209.576 5  -2528731.91422  25052428.355
  -4343891.888 5  -3384850.39223  26020085.856
 -17343835.062 9 -13514652.33129  21768094.674
 -16012130.012 8 -12476961.89127  22083860.378
 -17505037.447 8 -13640272.15529  22347422.603
 92  5  9  6 21 30.0040000  0  5G21G28G17G 3G23
  -3334624.602 6  -2598405.88121  25035412.752
  -4441801.326 5  -3461143.34622  26001457.958
 -17328962.741 9 -13503063.51529  21770923.808
 -15964953.205 8 -12440200.75926  22092838.550
 -17544692.152 8 -13671171.89429  22339875.628
 92  5  9  6 22  0.0040000  0  5G21G28G17G 3G23
  -3423833.745 6  -2667919.38522  25018437.599
  -4539663.087 5  -3537399.10222  25982825.278
 -17313775.205 9 -13491229.07029  21773811.400
 -15917288.137 8 -12403059.15726  22101910.569
 -17583892.850 8 -13701717.87429  22332418.871
 92  5  9  6 22 30.0040000  0  5G21G28G17G 3G23
  -3512833.512 6  -2737269.79822  25001500.208
  -4637481.523 5  -3613621.20122  25964204.256
 -17298280.612 9 -13479155.36229  21776761.953
 -15869137.044 8 -12365538.83426  22111072.526
 -17622651.794 8 -13731919.63128  22325042.210
 92  5  9  6 23  0.0040000  0  5G21G28G17G 3G23
  -3601623.442 5  -2806456.69523  24984600.021
  -4735255.042 5  -3689808.2532   25945611.433
 -17282472.542 9 -13466837.38329  21779770.685
 -15820502.397 8 -12327641.71027  22120326.831
 -17660983.457 8 -13761788.43228  22317744.355
 92  5  9  6 23 30.0040000  0  5G21G28G17G 3G23
  -3690222.970 5  -2875495.20122  24967739.377
  -4832980.148 5  -3765957.57222  25927012.013
 -17266361.048 9 -13454282.96829  21782838.154
 -15771385.165 8 -12289368.57026  22129674.633
 -17698888.798 8 -13791325.04829  22310536.124
 92  5  9  6 24  0.0040000  0  5G21G28G17G 3G23
  -3778645.339 5  -2944395.67222  24950915.028
  -4930654.476 5  -3842067.35623  25908416.468
 -17249974.330 9 -13441514.10429  21785950.016
 -15721786.457 8 -12250720.22726  22139116.318
 -17736379.308 8 -13820538.40428  22303398.984
 92  5  9  6 24 30.0040000  0  5G21G28G17G 3G23
  -3866888.630 5  -3013156.57924  24934124.848
  -5028256.715 5  -3918120.98324  25889846.749
 -17233330.132 9 -13428544.58829  21789123.303
 -15671703.164 8 -12211694.29826  22148641.310
 -17773450.482 8 -13849425.01529  22296346.653
 92  5  9  6 25  0.0040000  0  5G21G28G17G 3G23
  -3954951.394 5  -3081776.87522  24917366.182
  -5125770.269 6  -3994105.41822  25871296.784
 -17216415.569 9 -13415364.41029  21792341.263
 -15621133.713 8 -12172289.54227  22158265.558
 -17810096.045 8 -13877979.97829  22289372.883
 92  5  9  6 25 30.0040000  0  5G21G28G17G 3G23
  -4042832.181 5  -3150255.32522  24900650.653
  -5223205.286 5  -4070028.72423  25852752.507
 -17199236.285 9 -13401977.95629  21795608.398
 -15570080.985 8 -12132508.21027  22167979.117
 -17846293.734 8 -13906185.94029  22282484.864
 92  5  9  6 26  0.0040000  0  5G21G28G17G 3G23
  -4130525.943 5  -3218588.03524  24883950.097
  -5320568.501 5  -4145896.09023  25834222.330
 -17181777.579 9 -13388373.76429  21798933.118
 -15518542.377 8 -12092348.26027  22177782.929
 -17882036.942 8 -13934037.77129  22275681.373
 92  5  9  6 26 30.0040000  0  5G21G28G17G 3G23
  -4218028.291 6  -3286771.62024  24867302.031
  -5417858.156 5  -4221706.08721  25815714.943
 -17164014.047 9 -13374532.05229  21802310.887
 -15466515.749 8 -12051808.04726  22187689.592
 -17917321.154 8 -13961531.94329  22268969.007
 92  5  9  6 27  0.0040000  0  5G21G28G17G 3G23
  -4305339.312 5  -3354806.15024  24850692.634
  -5515087.430 5  -4297468.99623  25797210.279
 -17145949.769 9 -13360455.99529  21805746.800
 -15414001.518 8 -12010887.87727  22197685.251
 -17952146.950 8 -13988668.90629  22262340.018
 92  5  9  6 27 30.0040000  0  5G21G28G17G 3G23
  -4392455.863 5  -3422689.09523  24834107.494
  -5612260.785 5  -4373188.46021  25778714.269
 -17127599.791 9 -13346157.30829  21809240.577
 -15361000.459 8 -11969588.36726  22207766.975
 -17986519.801 8 -14015452.92529  22255798.246
 92  5  9  6 28  0.0040000  0  5G21G28G17G 3G23
  -4479369.257 5  -3490413.77023  24817566.746
  -5709353.371 5  -4448844.94423  25760242.551
 -17108954.197 9 -13331628.27529  21812789.812
 -15307508.784 8 -11927906.55226  22217947.641
 -18020451.286 8 -14041893.02229  22249342.503
 92  5  9  6 28 30.0040000  0  5G21G28G17G 3G23
  -4566076.124 6  -3557977.48222  24801071.265
  -5806360.137 5  -4524434.50021  25741791.842
 -17090037.092 9 -13316887.67629  21816389.722
 -15253534.373 8 -11885848.57026  22228220.620
 -18053949.514 8 -14067995.51929  22242967.415
 92  5  9  6 29  0.0040000  0  5G21G28G17G 3G23
  -4652566.926 6  -3625372.86824  24784613.860
  -5903264.710 5  -4599944.45423  25723342.914
 -17070853.206 9 -13301939.19529  21820040.901
 -15199068.803 8 -11843407.89327  22238582.664
 -18087002.117 8 -14093750.77529  22236675.669
 92  5  9  6 29 30.0040000  0  5G21G28G17G 3G23
  -4738852.381 6  -3692608.21721  24768199.627
  -6000064.281 5  -4675372.62422  25704916.740
 -17051411.091 9 -13286789.49029  21823739.126
 -15144118.464 8 -11800589.46227  22249038.206
 -18119614.707 8 -14119163.16229  22230474.176
 92  5  9  6 30  0.0040000  0  5G21G28G17G 3G23
  -4824938.192 6  -3759688.03122  24751805.775
  -6096764.200 5  -4750723.13522  25686518.801
 -17031720.173 9 -13271445.90729  21827484.745
 -15088680.461 8 -11757391.01926  22259585.815
 -18151784.577 8 -14144230.57929  22224348.521
 92  5  9  6 30 30.0040000  0  5G21G28G17G 3G23
  -4910820.320 6  -3826609.11422  24735466.788
  -6193384.438 5  -4826011.52522  25668130.739
 -17011791.105 9 -13255916.75029  21831279.819
 -15032752.226 8 -11713810.57426  22270228.459
 -18183512.975 8 -14168953.98729  22218313.677
 92  5  9  6 31  0.0040000  0  5G21G28G17G 3G23
  -4996508.673 6  -3893379.20524  24719161.095
  -6289947.115 5  -4901255.07922  25649754.647
 -16991618.700 9 -13240197.99029  21835117.470
 -14976345.576 8 -11669857.34427  22280966.695
 -18214810.234 8 -14193341.43929  22212359.209
 92  5  9  6 31 30.0040000  0  5G21G28G17G 3G23
  -5081996.981 6  -3959993.42523  24702882.659
  -6386450.248 5  -4976452.24723  25631389.969
 -16971175.200 9 -13224267.98729  21839004.576
 -14919451.723 8 -11625524.49527  22291794.904
 -18245676.767 8 -14217393.27229  22206482.081
 92  5  9  6 32  0.0040000  0  5G21G28G17G 3G23
  -5167274.623 6  -4026443.48123  24686673.780
  -6482890.312 5  -5051600.28122  25613051.954
 -16950445.709 9 -13208115.12529  21842954.328
 -14862072.090 8 -11580813.09526  22302708.863
 -18276117.999 8 -14241113.69129  22200689.167
 92  5  9  6 32 30.0040000  0  5G21G28G17G 3G23
  -5252336.413 6  -4092725.31723  24670482.281
  -6579248.448 5  -5126684.42822  25594703.748
 -16929410.205 9 -13191723.81629  21846957.164
 -14804203.948 8 -11535721.03627  22313723.231
 -18306123.760 8 -14264494.78929  22194980.223
 92  5  9  6 33  0.0040000  0  5G21G28G17G 3G23
  -5337182.904 6  -4158839.39422  24654332.768
  -6675495.650 5  -5201682.19822  25576394.525
 -16908058.530 9 -13175086.14129  21851018.458
 -14745844.336 8 -11490246.02727  22324828.759
 -18335680.739 8 -14287526.18229  22189358.531
 92  5  9  6 33 30.0040000  0  5G21G28G17G 3G23
  -5421814.800 6  -4224786.26824  24638224.297
  -6771615.539 5  -5276580.75223  25558094.308
 -16886405.108 9 -13158213.33629  21855138.489
 -14686992.214 8 -11444387.25027  22336025.098
 -18364783.856 8 -14310203.91229  22183815.679
 92  5  9  6 34  0.0040000  0  5G21G28G17G 3G23
  -5506220.498 6  -4290556.87824  24622169.539
  -6867602.734 5  -5351375.84922  25539835.447
 -16864472.155 9 -13141122.72629  21859310.697
 -14627648.563 8 -11398145.45526  22347321.881
 -18393423.232 8 -14332520.29329  22178366.045
 92  5  9  6 34 30.0040000  0  5G21G28G17G 3G23
  -5590405.625 6  -4356155.64122  24606147.133
  -6963462.637 5  -5426071.78722  25521585.276
 -16842265.168 9 -13123818.57329  21863539.582
 -14567816.594 8 -11351523.14226  22358706.786
 -18421603.294 8 -14354478.75829  22173006.037
 92  5  9  6 35  0.0040000  0  5G21G28G17G 3G23
  -5674361.687 6  -4421575.87623  24590172.087
  -7059198.401 6  -5500671.01722  25503378.871
 -16819780.158 9 -13106297.77929  21867817.608
 -14507495.791 8 -11304519.94527  22370187.948
 -18449332.745 8 -14376086.09929  22167729.405
 92  5  9  6 35 30.0050000  0  5G21G28G17G 3G23
  -5758094.471 6  -4486822.14324  24574240.198
  -7154829.178 6  -5575188.44622  25485176.081
 -16797023.096 9 -13088565.00029  21872146.330
 -14446690.793 8 -11257139.44126  22381756.346
 -18476631.005 8 -14397357.45729  22162534.286
 92  5  9  6 36  0.0050000  0  5G21G28G17G 3G23
  -5841586.452 6  -4551880.79324  24558344.899
  -7250343.505 6  -5649615.09722  25466994.559
 -16773971.760 9 -13070602.90629  21876534.396
 -14385398.223 8 -11209379.01326  22393414.662
 -18503502.487 8 -14418296.25629  22157420.744
 92  5  9  6 36 30.0050000  0  5G21G28G17G 3G23
  -5924846.568 6  -4616758.75022  24542505.092
  -7345741.540 6  -5723951.17422  25448850.835
 -16750614.650 9 -13052402.55029  21880981.829
 -14323616.661 8 -11161237.54925  22405174.329
 -18529951.367 8 -14438905.76129  22152388.730
 92  5  9  6 37  0.0050000  0  5G21G28G17G 3G23
  -6007879.200 6  -4681459.44023  24526706.328
  -7441023.229 5  -5798196.57924  25430721.175
 -16726970.874 9 -13033978.82929  21885478.087
 -14261350.378 8 -11112718.39326  22417021.526
 -18555969.576 8 -14459179.66029  22147437.056
 92  5  9  6 37 30.0050000  0  5G21G28G17G 3G23
  -6090679.808 6  -4745979.33823  24510952.516
  -7536186.606 5  -5872349.80123  25412600.206
 -16703051.387 9 -13015340.26929  21890029.243
 -14198596.907 8 -11063819.61226  22428968.259
 -18581544.589 8 -14479108.23729  22142569.004
 92  5  9  6 38  0.0050000  0  5G21G28G17G 3G23
  -6173247.578 6  -4810317.81723  24495234.407
  -7631221.451 6  -5946402.85722  25394520.943
 -16678865.104 9 -12996493.80329  21894633.762
 -14135353.488 8 -11014539.02026  22441002.523
 -18606660.410 8 -14498678.99229  22137785.829
 92  5  9  6 38 30.0050000  0  5G21G28G17G 3G23
  -6255594.432 6  -4874484.17824  24479563.064
  -7726131.164 6  -6020358.38721  25376455.745
 -16654437.159 9 -12977459.03529  21899281.139
 -14071622.949 8 -10964878.87926  22453129.133
 -18631298.352 8 -14517877.37429  22133100.376
 92  5  9  6 39  0.0050000  0  5G21G28G17G 3G23
  -6337715.952 6  -4938474.95922  24463939.675
  -7820915.011 6  -6094215.87223  25358416.338
 -16629773.999 9 -12958240.97929  21903973.782
 -14007405.442 8 -10914839.26826  22465347.147
 -18655458.475 8 -14536703.42829  22128505.768
 92  5  9  6 39 30.0050000  0  5G21G28G17G 3G23
  -6419618.758 6  -5002295.28224  24448355.270
  -7915573.576 6  -6167975.74022  25340402.408
 -16604852.493 9 -12938821.62129  21908713.819
 -13942702.875 8 -10864421.69825  22477662.324
 -18679157.524 8 -14555170.20429  22123993.561
 92  5  9  6 40  0.0050000  0  5G21G28G17G 3G23
  -6501305.762 6  -5065947.46323  24432808.312
  -8010099.072 6  -6241631.92722  25322419.051
 -16579661.437 9 -12919192.21929  21913507.499
 -13877513.830 8 -10813625.04926  22490066.846
 -18702397.378 8 -14573279.16129  22119572.827
 92  5  9  6 40 30.0050000  0  5G21G28G17G 3G23
  -6582769.318 6  -5129425.53724  24417300.653
  -8104495.368 6  -6315187.40323  25304463.580
 -16554180.872 9 -12899337.23229  21918358.136
 -13811843.091 8 -10762453.05526  22502564.587
 -18725195.257 8 -14591043.72429  22115231.841
 92  5  9  6 41  0.0050000  0  5G21G28G17G 3G23
  -6663993.697 6  -5192717.23124  24401852.045
  -8198758.294 6  -6388638.98622  25286525.803
 -16528389.817 9 -12879240.29629  21923266.045
 -13745689.275 8 -10710904.65527  22515151.080
 -18747573.357 8 -14608481.18629  22110972.976
 92  5  9  6 41 30.0050000  0  5G21G28G17G 3G23
  -6744974.479 6  -5255819.13323  24386443.607
  -8292881.174 6  -6461981.41423  25268611.410
 -16502283.774 9 -12858897.91729  21928233.005
 -13679048.085 8 -10658976.47425  22527831.700
 -18769528.117 8 -14625588.76929  22106796.581
 92  5  9  6 42  0.0050000  0  5G21G28G17G 3G23
  -6825704.136 6  -5318725.34124  24371073.560
  -8386867.858 6  -6535217.77424  25250721.900
 -16475891.683 9 -12838332.64329  21933254.514
 -13611922.765 8 -10606671.03027  22540608.854
 -18791053.143 8 -14642361.51729  22102703.213
 92  5  9  6 42 30.0050000  0  5G21G28G17G 3G23
  -6906175.977 6  -5381430.65324  24355762.250
  -8480722.180 6  -6608350.96422  25232858.461
 -16449209.567 9 -12817541.38129  21938331.795
 -13544310.986 8 -10553986.52525  22553473.853
 -18812149.600 8 -14658800.29129  22098689.908
 92  5  9  6 43  0.0050000  0  5G21G28G17G 3G23
  -6986412.423 6  -5443952.53122  24340487.237
  -8574440.144 6  -6681377.86823  25215030.411
 -16422260.293 9 -12796541.93129  21943462.159
 -13476213.509 8 -10500923.59527  22566429.697
 -18832811.047 8 -14674900.11029  22094756.314
 92  5  9  6 43 30.0050000  0  5G21G28G17G 3G23
  -7066428.497 6  -5506302.68824  24325269.182
  -8668015.436 6  -6754293.60322  25197227.525
 -16395054.898 9 -12775342.92129  21948637.789
 -13407632.560 8 -10447483.88826  22579478.446
 -18853024.973 8 -14690651.20629  22090909.065
 92  5  9  6 44  0.0050000  0  5G21G28G17G 3G23
  -7146219.378 6  -5568477.36924  24310082.571
  -8761445.694 6  -6827096.35723  25179441.146
 -16367582.007 9 -12753935.46529  21953869.748
 -13338565.243 8 -10393665.22725  22592621.636
 -18872786.567 8 -14706049.82829  22087150.881
 92  5  9  6 44 30.0050000  0  5G21G28G17G 3G23
  -7225800.068 6  -5630488.27225  24294944.263
  -8854721.923 6  -6899779.09223  25161688.935
 -16339837.903 9 -12732316.68329  21959145.193
 -13269020.674 8 -10339474.66926  22605859.302
 -18892106.656 8 -14721104.43629  22083472.724
 92  5  9  6 45  0.0050000  0  5G21G28G17G 3G23
  -7305162.871 6  -5692329.39825  24279841.623
  -8947829.211 6  -6972330.18722  25143973.579
 -16311830.992 9 -12710493.09729  21964475.502
 -13198995.757 8 -10284909.81126  22619186.277
 -18910980.313 8 -14735811.16429  22079880.911
 92  5  9  6 45 30.0050000  0  5G21G28G17G 3G23
  -7384281.246 6  -5753980.03325  24264778.246
  -9040772.775 6  -7044753.70121  25126289.737
 -16283548.860 9 -12688455.07429  21969857.079
 -13128487.156 8 -10229968.05526  22632599.876
 -18929397.275 8 -14750162.02829  22076373.662
 92  5  9  6 46  0.0050000  0  5G21G28G17G 3G23
  -7463146.033 6  -5815433.07022  24249782.925
  -9133545.044 6  -7117043.69723  25108634.968
 -16254991.142 9 -12666202.30529  21975291.426
 -13057493.012 8 -10174647.95326  22646110.637
 -18947366.926 8 -14764164.33829  22072958.096
 92  5  9  6 46 30.0050000  0  5G21G28G17G 3G23
  -7541763.933 6  -5876693.72524  24234818.770
  -9226142.632 6  -7189197.63923  25091016.460
 -16226170.345 9 -12643744.53129  21980779.135
 -12986018.075 8 -10118953.21326  22659711.616
 -18964897.946 8 -14777824.85329  22069619.625
 92  5  9  6 47  0.0050000  0  5G21G28G17G 3G23
  -7620126.765 6  -5937755.62324  24219903.825
  -9318577.457 6  -7261224.74022  25073430.934
 -16197087.290 9 -12621082.41429  21986310.889
 -12914062.455 8 -10062883.94026  22673404.941
 -18981987.454 8 -14791141.33829  22066371.685
 92  5  9  6 47 30.0050000  0  5G21G28G17G 3G23
  -7698230.697 6  -5998615.80623  24205047.302
  -9410844.147 6  -7333120.81723  25055871.792
 -16167730.865 9 -12598207.27329  21991898.414
 -12841626.959 8 -10006440.70926  22687189.671
 -18998629.972 8 -14804109.51929  22063203.180
 92  5  9  6 48  0.0050000  0  5G21G28G17G 3G23
  -7776082.191 6  -6059279.27525  24190224.669
  -9502929.956 6  -7404875.93222  25038350.098
 -16138103.724 9 -12575121.18729  21997535.428
 -12768713.422 8  -9949624.97625  22701063.467
 -19014830.025 8 -14816732.91329  22060117.388
 92  5  9  6 48 30.0050000  0  5G21G28G17G 3G23
  -7853669.868 6  -6119737.16425  24175463.774
  -9594830.177 6  -7476486.45022  25020856.918
 -16108195.142 9 -12551815.79429  22003226.397
 -12695318.021 8  -9892433.77826  22715032.924
 -19030570.623 8 -14828998.30329  22057120.976
 92  5  9  6 49  0.0050000  0  5G21G28G17G 3G23
  -7930983.934 6  -6179981.83923  24160749.960
  -9686539.511 6  -7547948.23124  25003402.721
 -16078004.838 9 -12528290.87429  22008972.789
 -12621440.650 8  -9834867.01926  22729091.971
 -19045848.298 8 -14840902.97129  22054214.782
 92  5  9  6 49 30.0050000  0  5G21G28G17G 3G23
  -8008033.416 6  -6240020.34524  24146089.508
  -9778051.900 6  -7619256.57024  24985988.660
 -16047547.890 9 -12504558.18729  22014765.703
 -12547091.646 7  -9776932.74625  22743233.488
 -19060676.131 8 -14852457.12329  22051395.245
 92  5  9  6 50  0.0050000  0  5G21G28G17G 3G23
  -8084812.052 6  -6299847.81324  24131480.640
  -9869357.329 6  -7690403.61323  24968614.491
 -16016810.537 9 -12480607.00629  22020617.633
 -12472257.192 7  -9718620.20325  22757478.136
 -19075047.710 8 -14863655.74229  22048657.237
 92  5  9  6 50 30.0050000  0  5G21G28G17G 3G23
  -8161320.230 6  -6359464.53824  24116918.189
  -9960458.611 6  -7761391.56723  24951278.677
 -15985792.999 9 -12456437.49929  22026521.740
 -12396940.359 7  -9659931.77725  22771813.594
 -19088965.100 8 -14874500.44429  22046010.073
 92  5  9  6 51  0.0050000  0  5G21G28G17G 3G23
  -8237567.317 6  -6418877.80623  24102405.261
 -10051373.388 6  -7832234.22322  24933983.068
 -15954500.406 9 -12432053.65929  22032473.241
 -12321147.977 7  -9600872.80426  22786230.615
 -19102432.941 8 -14884994.85329  22043445.938
 92  5  9  6 51 30.0050000  0  5G21G28G17G 3G23
  -8313567.611 6  -6478098.75822  24087948.663
 -10142104.084 6  -7902933.41023  24916714.716
 -15922920.422 9 -12407445.87729  22038482.259
 -12244878.978 7  -9541442.44626  22800747.766
 -19115454.944 8 -14895141.85329  22040974.150
 92  5  9  6 52  0.0050000  0  5G21G28G17G 3G23
  -8389332.868 6  -6537136.57324  24073530.142
 -10232655.991 6  -7973493.31125  24899482.661
 -15891054.048 9 -12382614.92829  22044545.895
 -12168138.618 7  -9481644.76526  22815348.258
 -19128040.405 8 -14904948.68929  22038575.513
 92  5  9  6 52 30.0050000  0  5G21G28G17G 3G23
  -8464845.375 6  -6595977.46725  24059157.200
 -10323019.149 6  -8043906.14023  24882292.556
 -15858901.699 9 -12357561.14629  22050665.233
 -12090918.900 8  -9421473.59326  22830043.191
 -19140186.797 8 -14914413.40529  22036259.625
 92  5  9  6 53  0.0050000  0  5G21G28G17G 3G23
  -8540106.430 6  -6654622.41723  24044832.805
 -10413197.829 6  -8114175.20823  24865128.836
 -15826465.969 9 -12332286.55329  22056838.283
 -12013223.287 7  -9360931.59526  22844828.342
 -19151903.555 8 -14923543.32429  22034033.361
 92  5  9  6 53 30.0050000  0  5G21G28G17G 3G23
  -8615113.913 6  -6713069.75025  24030568.090
 -10503170.284 6  -8184283.57122  24848014.570
 -15793761.002 9 -12306802.16929  22063064.066
 -11935051.565 7  -9300018.58025  22859702.244
 -19163201.382 8 -14932346.81729  22031883.843
 92  5  9  6 54  0.0050000  0  5G21G28G17G 3G23
  -8689852.322 6  -6771307.43523  24016341.730
 -10592929.443 6  -8254225.72022  24830928.504
 -15760807.363 9 -12281124.00529  22069330.021
 -11856406.761 7  -9238736.94025  22874673.310
 -19174072.240 8 -14940817.59529  22029815.887
 92  5  9  6 54 30.0050000  0  5G21G28G17G 3G23
  -8764324.158 6  -6829337.39724  24002172.327
 -10682481.812 6  -8324006.77723  24813884.108
 -15727611.974 9 -12255257.46829  22075650.839
 -11777297.644 8  -9177093.50925  22889726.775
 -19184518.312 8 -14948957.38429  22027827.051
 92  5  9  6 55  0.0050000  0  5G21G28G17G 3G23
  -8838538.354 6  -6887166.61425  23988048.819
 -10771821.023 6  -8393621.70824  24796882.884
 -15694171.817 9 -12229200.20229  22082011.827
 -11697724.908 7  -9115088.81126  22904865.083
 -19194525.067 8 -14956754.84729  22025925.152
 92  5  9  6 55 30.0050000  0  5G21G28G17G 3G23
  -8912491.623 7  -6944792.51225  23973970.263
 -10860928.223 6  -8463055.88623  24779926.927
 -15660481.999 9 -12202948.39629  22088424.119
 -11617682.695 7  -9052718.29126  22920098.460
 -19204084.911 8 -14964204.05029  22024101.534
 92  5  9  6 56  0.0050000  0  5G21G28G17G 3G23
  -8986173.990 7  -7002207.30524  23959953.166
 -10949811.121 6  -8532315.26423  24763014.734
 -15626518.779 9 -12176483.54729  22094885.830
 -11537167.718 7  -8989979.36725  22935423.241
 -19213192.405 8 -14971300.78829  22022372.043
 92  5  9  6 56 30.0050000  0  5G21G28G17G 3G23
  -9059587.677 7  -7059412.73223  23945983.743
 -11038479.123 6  -8601407.17223  24746138.489
 -15592264.035 9 -12149791.54229  22101407.814
 -11456182.935 7  -8926874.37424  22950832.272
 -19221846.853 8 -14978044.50229  22020725.266
 92  5  9  6 57  0.0050000  0  5G21G28G17G 3G23
  -9132720.732 7  -7116399.49225  23932070.370
 -11126929.006 6  -8670329.10224  24729308.452
 -15557715.178 9 -12122870.35029  22107981.067
 -11374726.109 7  -8863401.55226  22966330.648
 -19230039.993 8 -14984428.75629  22019160.959
 92  5  9  6 57 30.0050000  0  5G21G28G17G 3G23
  -9205572.233 6  -7173166.85925  23918201.984
 -11215168.745 6  -8739087.30224  24712522.180
 -15522880.160 9 -12095726.18929  22114608.275
 -11292805.732 7  -8799567.53525  22981918.963
 -19237789.326 8 -14990467.18829  22017695.280
 92  5  9  6 58  0.0050000  0  5G21G28G17G 3G23
  -9278129.809 7  -7229705.20725  23904395.616
 -11303199.377 6  -8807682.57923  24695765.574
 -15487764.149 9 -12068363.06929  22121293.942
 -11210420.282 7  -8735371.11625  22997601.997
 -19245080.871 8 -14996148.89429  22016301.217
 92  5  9  6 58 30.0050000  0  5G21G28G17G 3G23
  -9350397.998 7  -7286018.04625  23890644.147
 -11391007.397 6  -8876104.40724  24679056.955
 -15452373.579 9 -12040786.00929  22128023.689
 -11127569.912 7  -8670812.41224  23013358.776
 -19251919.152 8 -15001477.40929  22015004.038
 92  5  9  6 59  0.0050000  0  5G21G28G17G 3G23
  -9422384.594 7  -7342111.46024  23876941.224
 -11478590.446 6  -8944350.93324  24662388.786
 -15416722.969 9 -12013006.30829  22134807.077
 -11044257.807 7  -8605893.92326  23029221.093
 -19258338.822 8 -15006479.74229  22013781.790
 92  5  9  6 59 30.0050000  0  5G21G28G17G 3G23
  -9494089.146 7  -7397985.08824  23863304.577
 -11565945.165 6  -9012419.52023  24645765.883
 -15380819.751 9 -11985029.78129  22141643.863
 -10960485.878 7  -8540617.15726  23045157.784
 -19264352.280 8 -15011165.53429  22012634.473
 92  5  9  7  0  0.0050000  0  5G21G28G17G 3G23
  -9565515.708 7  -7453642.13125  23849709.286
 -11653057.294 6  -9080299.09223  24629188.875
 -15344650.400 9 -11956845.86529  22148524.100
 -10876251.296 7  -8474979.84325  23061191.253
 -19269957.403 8 -15015533.15129  22011568.125
 92  5  9  7  0 30.0050000  0  5G21G28G17G 3G23
  -9636674.986 7  -7509090.88025  23836164.358
 -11739920.020 6  -9147984.28523  24612662.192
 -15308206.067 9 -11928447.68529  22155460.980
 -10791552.892 7  -8408981.14825  23077305.727
 -19275163.374 8 -15019589.73229  22010576.080
 92  5  9  7  1  0.0050000  0  5G21G28G17G 3G23
  -9707553.232 6  -7564320.64726  23822675.200
 -11826533.883 6  -9215475.57923  24596177.216
 -15271498.108 9 -11899844.08229  22162446.163
 -10706387.665 7  -8342618.65825  23093514.292
 -19279941.526 8 -15023312.96729  22009668.320
 92  5  9  7  1 30.0050000  0  5G21G28G17G 3G23
  -9778157.468 7  -7619336.90825  23809241.219
 -11912897.725 6  -9282772.05623  24579741.693
 -15234526.140 9 -11871034.75029  22169483.172
 -10620762.236 7  -8275897.59325  23109802.918
 -19284264.137 8 -15026681.21829  22008846.903
 92  5  9  7  2  0.0050000  0  5G21G28G17G 3G23
  -9848497.126 7  -7674146.99525  23795860.881
 -11999014.816 6  -9349876.28424  24563352.344
 -15197280.122 9 -11842011.88129  22176566.390
 -10534676.656 7  -8208817.97525  23126191.081
 -19288127.070 8 -15029691.28429  22008112.109
 92  5  9  7  2 30.0050000  0  5G21G28G17G 3G23
  -9918559.369 7  -7728740.91325  23782526.402
 -12084895.622 6  -9416796.38323  24547011.262
 -15159773.766 9 -11812786.14829  22183705.623
 -10448132.509 7  -8141381.00825  23142659.863
 -19291519.264 8 -15032334.54929  22007464.567
 92  5  9  7  3  0.0050000  0  5G21G28G17G 3G23
  -9988339.814 7  -7783115.24725  23769245.879
 -12170546.295 6  -9483537.14624  24530712.445
 -15122005.925 9 -11783356.66029  22190891.972
 -10361130.775 7  -8073587.47725  23159212.302
 -19294442.483 8 -15034612.35729  22006911.430
 92  5  9  7  3 30.0050000  0  5G21G28G17G 3G23
 -10057853.766 7  -7837281.94825  23756017.846
 -12255962.252 6  -9550095.01424  24514460.080
 -15083950.935 9 -11753703.42529  22198133.149
 -10273673.900 7  -8005439.30924  23175856.774
 -19296921.651 8 -15036544.17429  22006437.447
 92  5  9  7  4  0.0050000  0  5G21G28G17G 3G23
 -10127094.753 7  -7891235.94025  23742840.174
 -12341136.087 6  -9616464.22022  24498250.014
 -15045608.951 9 -11723826.56529  22205427.689
 -10185765.466 7  -7936939.28025  23192582.493
 -19298967.519 8 -15038138.34629  22006047.120
 92  5  9  7  4 30.0050000  0  5G21G28G17G 3G23
 -10196050.680 7  -7944967.78924  23729720.961
 -12426053.050 6  -9682633.25123  24482095.405
 -15006987.298 9 -11693731.76229  22212780.722
 -10097407.704 7  -7868089.13024  23209399.966
 -19300583.379 8 -15039397.44229  22005737.135
 92  5  9  7  5  0.0050000  0  5G21G28G17G 3G23
 -10264722.208 7  -7998478.04025  23716655.111
 -12510691.469 6  -9748585.24924  24465988.750
 -14968073.098 9 -11663409.01229  22220182.302
 -10008604.146 7  -7798891.57325  23226292.963
 -19301794.408 8 -15040341.09229  22005512.899
 92  5  9  7  5 30.0050000  0  5G21G28G17G 3G23
 -10333084.336 7  -8051747.19025  23703642.902
 -12595026.693 6  -9814300.99425  24449936.957
 -14928855.501 9 -11632849.85229  22227645.306
  -9919350.589 7  -7729343.37124  23243282.495
 -19302590.136 8 -15040961.12229  22005358.814
 92  5  9  7  6  0.0050000  0  5G21G28G17G 3G23
 -10401122.760 7  -8104764.11626  23690692.781
 -12679053.683 6  -9879776.56625  24433946.939
 -14889359.739 9 -11602073.93529  22235164.431
  -9829647.605 7  -7659444.97925  23260353.590
 -19302970.627 8 -15041257.59429  22005288.071
 92  5  9  7  6 30.0050000  0  5G21G28G17G 3G23
 -10468835.564 7  -8157527.31426  23677811.589
 -12762773.756 6  -9945012.97725  24418020.439
 -14849582.928 9 -11571079.00829  22242733.288
  -9739489.406 7  -7589191.89225  23277506.805
 -19302936.837 8 -15041231.26029  22005291.666
 92  5  9  7  7  0.0050000  0  5G21G28G17G 3G23
 -10536236.767 7  -8210047.70624  23664986.482
 -12846202.553 6 -10010022.40523  24402140.462
 -14809532.487 9 -11539870.87729  22250351.006
  -9648884.035 7  -7518590.32724  23294747.271
 -19302483.168 8 -15040877.74829  22005378.288
 92  5  9  7  7 30.0050000  0  5G21G28G17G 3G23
 -10603333.853 7  -8262331.10825  23652214.702
 -12929359.841 6 -10074820.26125  24386315.906
 -14769227.800 9 -11508464.63429  22258022.087
  -9557830.621 7  -7447639.66325  23312072.580
 -19301588.728 8 -15040180.75429  22005550.976
 92  5  9  7  8  0.0050000  0  5G21G28G17G 3G23
 -10670145.448 7  -8314392.06626  23639503.510
 -13012254.027 7 -10139413.12825  24370540.840
 -14728679.519 9 -11476868.57629  22265739.935
  -9466329.966 7  -7376340.49326  23329486.327
 -19300257.868 8 -15039143.72829  22005803.411
 92  5  9  7  8 30.0050000  0  5G21G28G17G 3G23
 -10736674.297 7  -8366232.68325  23626844.459
 -13094885.167 7 -10203801.00024  24354818.822
 -14687870.058 9 -11445068.99129  22273504.863
  -9374380.258 7  -7304691.41425  23346987.011
 -19298474.742 8 -15037754.25629  22006141.561
 92  5  9  7  9  0.0050000  0  5G21G28G17G 3G23
 -10802916.461 7  -8417849.92825  23614238.491
 -13177256.539 6 -10267986.46924  24339140.848
 -14646802.258 9 -11413068.10729  22281320.466
  -9281988.128 7  -7232697.57924  23364572.851
 -19296246.786 8 -15036018.17629  22006565.182
 92  5  9  7  9 30.0050000  0  5G21G28G17G 3G23
 -10868877.979 7  -8469248.47626  23601684.700
 -13259358.744 7 -10331962.20025  24323517.773
 -14605483.049 9 -11380871.32929  22289183.115
  -9189160.855 7  -7160364.68324  23382234.217
 -19293600.116 8 -15033955.82429  22007068.237
 92  5  9  7 10  0.0050000  0  5G21G28G17G 3G23
 -10934552.830 7  -8520423.66425  23589186.959
 -13341173.810 7 -10395714.20225  24307949.840
 -14563883.359 9 -11348455.98929  22297096.754
  -9095894.040 7  -7087689.28524  23399975.923
 -19290534.920 8 -15031567.34529  22007652.820
 92  5  9  7 10 30.0050000  0  5G21G28G17G 3G23
 -10999917.383 7  -8571357.04626  23576748.548
 -13422687.016 7 -10459230.96525  24292439.179
 -14521982.537 9 -11315805.99629  22305070.910
  -9002181.819 7  -7014666.82125  23417813.291
 -19287040.838 8 -15028844.67129  22008318.371
 92  5  9  7 11  0.0050000  0  5G21G28G17G 3G23
 -11064976.484 7  -8622052.41925  23564368.317
 -13503893.725 7 -10522508.91125  24276986.977
 -14479794.856 9 -11282932.47829  22313098.778
  -8908033.748 7  -6941304.70424  23435730.093
 -19283142.878 8 -15025807.30229  22009059.761
 92  5  9  7 11 30.0050000  0  5G21G28G17G 3G23
 -11129749.217 7  -8672524.65226  23552045.950
 -13584794.803 6 -10585548.68724  24261590.859
 -14437327.221 9 -11249840.81129  22321184.756
  -8813451.738 7  -6867604.47824  23453724.234
 -19278836.025 8 -15022451.28929  22009877.862
 92  5  9  7 12  0.0050000  0  5G21G28G17G 3G23
 -11194227.446 7  -8722767.41126  23539776.039
 -13665399.132 6 -10648357.23424  24246252.571
 -14394576.485 9 -11216528.55329  22329318.128
  -8718434.507 7  -6793565.10325  23471807.720
 -19274108.145 8 -15018767.22329  22010780.248
 92  5  9  7 12 30.0050000  0  5G21G28G17G 3G23
 -11258404.979 7  -8772775.83425  23527558.304
 -13745696.637 7 -10710926.69726  24230973.929
 -14351564.871 9 -11183013.01229  22337502.175
  -8622980.152 7  -6719185.12324  23489973.641
 -19268962.139 8 -15014757.33329  22011756.971
 92  5  9  7 13  0.0050000  0  5G21G28G17G 3G23
 -11322297.503 7  -8822562.18526  23515404.437
 -13825693.722 7 -10773262.08225  24215749.870
 -14308308.043 9 -11149306.39529  22345735.956
  -8527095.350 7  -6644469.73224  23508215.087
 -19263398.281 8 -15010421.85929  22012817.944
 92  5  9  7 13 30.0050000  0  5G21G28G17G 3G23
 -11385904.589 7  -8872126.12225  23503297.022
 -13905388.399 7 -10835361.83425  24200586.678
 -14264808.434 9 -11115410.60029  22354010.535
  -8430781.348 7  -6569419.85824  23526547.413
 -19257404.632 8 -15005751.47029  22013954.442
 92  5  9  7 14  0.0050000  0  5G21G28G17G 3G23
 -11449201.223 7  -8921448.15426  23491254.941
 -13984764.108 7 -10897213.02725  24185475.941
 -14221058.680 9 -11081319.89529  22362336.383
  -8334038.002 7  -6494035.45925  23544957.078
 -19250985.178 8 -15000749.29729  22015182.100
 92  5  9  7 14 30.0050000  0  5G21G28G17G 3G23
 -11512174.442 7  -8970518.17126  23479268.037
 -14063794.449 7 -10958795.08824  24170443.137
 -14177049.261 9 -11047026.83929  22370708.369
  -8236861.233 7  -6418313.30825  23563445.270
 -19244134.255 8 -14995410.89029  22016483.223
 92  5  9  7 15  0.0050000  0  5G21G28G17G 3G23
 -11574836.342 7  -9019345.60526  23467345.001
 -14142481.900 7 -11020109.97224  24155468.512
 -14132772.759 9 -11012525.67429  22379135.254
  -8139260.953 7  -6342261.19624  23582018.898
 -19236859.286 8 -14989742.07729  22017867.933
 92  5  9  7 15 30.0050000  0  5G21G28G17G 3G23
 -11637180.733 7  -9067925.61725  23455483.704
 -14220812.324 7 -11081146.64325  24140563.129
 -14088221.001 9 -10977810.02429  22387613.372
  -8041235.031 7  -6265877.35223  23600675.310
 -19229172.408 8 -14983752.29029  22019332.739
 92  5  9  7 16  0.0050000  0  5G21G28G17G 3G23
 -11699206.470 7  -9116257.33225  23443676.364
 -14298787.842 7 -11141906.78725  24125721.893
 -14043392.925 9 -10942879.05929  22396141.573
  -7942791.085 7  -6189167.81224  23619409.340
 -19221081.887 8 -14977447.99829  22020866.473
 92  5  9  7 16 30.0050000  0  5G21G28G17G 3G23
 -11760916.234 7  -9164342.83225  23431940.394
 -14376408.586 7 -11202390.48124  24110951.122
 -13998286.623 9 -10907731.29729  22404729.418
  -7843923.845 7  -6112128.43223  23638222.803
 -19212573.906 8 -14970818.39129  22022485.958
 92  5  9  7 17  0.0050000  0  5G21G28G17G 3G23
 -11822316.669 7  -9212187.30225  23420250.284
 -14453687.076 7 -11262607.48425  24096247.812
 -13952902.300 9 -10872366.88529  22413366.752
  -7744633.176 7  -6034759.10824  23657116.608
 -19203653.463 8 -14963867.39529  22024186.657
 92  5  9  7 17 30.0050000  0  5G21G28G17G 3G23
 -11883391.863 7  -9259778.32826  23408630.358
 -14530636.758 7 -11322568.25825  24081605.963
 -13907244.968 9 -10836789.75929  22422052.319
  -7644918.938 6  -5957059.72024  23676091.381
 -19194327.928 8 -14956600.73229  22025958.761
 92  5  9  7 18  0.0050000  0  5G21G28G17G 3G23
 -11944148.215 7  -9307120.92425  23397066.448
 -14607278.745 7 -11382289.27024  24067016.848
 -13861324.720 9 -10801007.74629  22430792.784
  -7544785.029 6  -5879033.33224  23695147.089
 -19184589.562 8 -14949012.39829  22027813.545
 92  5  9  7 18 30.0050000  0  5G21G28G17G 3G23
 -12004597.800 7  -9354224.45025  23385565.219
 -14683619.668 7 -11441775.70124  24052493.416
 -13815148.676 9 -10765026.42829  22439578.794
  -7444232.234 7  -5800680.54123  23714278.949
 -19174443.543 8 -14941106.39929  22029743.015
 92  5  9  7 19  0.0050000  0  5G21G28G17G 3G23
 -12064743.774 7  -9401091.42026  23374118.539
 -14759659.095 7 -11501027.20224  24038020.310
 -13768715.738 9 -10728844.92229  22448410.698
  -7343265.850 6  -5722005.44923  23733492.337
 -19163908.228 8 -14932897.05129  22031749.232
 92  5  9  7 19 30.0050000  0  5G21G28G17G 3G23
 -12124577.886 7  -9447715.37526  23362731.504
 -14835380.061 7 -11560030.53324  24023612.293
 -13722022.607 9 -10692460.67329  22457299.839
  -7241883.091 7  -5643005.92323  23752788.194
 -19152961.512 8 -14924367.13529  22033832.788
 92  5  9  7 20  0.0050000  0  5G21G28G17G 3G23
 -12184115.304 7  -9494108.14826  23351403.870
 -14910761.220 7 -11618769.08125  24009266.923
 -13675060.704 9 -10655866.99229  22466241.156
  -7140087.358 6  -5563684.60523  23772154.481
 -19141586.678 8 -14915503.61329  22035996.685
 92  5  9  7 20 30.0050000  0  5G21G28G17G 3G23
 -12243359.281 7  -9540272.26527  23340129.564
 -14985767.648 7 -11677215.65025  23994996.205
 -13627825.814 9 -10619060.58629  22475226.239
  -7037885.248 6  -5484046.63922  23791608.298
 -19129798.401 8 -14906317.93529  22038238.549
 92  5  9  7 21  0.0050000  0  5G21G28G17G 3G23
 -12302300.192 7  -9586200.22226  23328913.715
 -15060390.685 7 -11735363.45725  23980794.450
 -13580301.314 9 -10582028.51529  22484270.058
  -6935276.444 6  -5404091.72523  23811125.703
 -19117591.461 8 -14896806.03229  22040564.035
 92  5  9  7 21 30.0050000  0  5G21G28G17G 3G23
 -12360938.848 7  -9631892.65926  23317752.172
 -15134624.048 7 -11793207.63424  23966669.127
 -13532485.606 9 -10544769.52629  22493365.775
  -6832264.569 7  -5323822.77122  23830736.921
 -19104968.793 8 -14886970.18129  22042960.264
 92  5  9  7 22  0.0050000  0  5G21G28G17G 3G23
 -12419262.699 7  -9677339.78325  23306656.521
 -15208454.701 7 -11850738.01524  23952621.736
 -13484368.577 9 -10507275.74229  22502522.323
  -6728843.436 6  -5243234.91024  23850418.289
 -19091950.755 8 -14876826.24629  22045445.838
 92  5  9  7 22 30.0050000  0  5G21G28G17G 3G23
 -12477255.459 7  -9722528.91826  23295621.178
 -15281902.036 7 -11907969.68824  23938643.937
 -13435952.672 9 -10469549.07229  22511738.865
  -6625016.054 6  -5162330.48723  23870173.715
 -19078543.570 8 -14866379.09329  22047992.907
 92  5  9  7 23  0.0050000  0  5G21G28G17G 3G23
 -12534915.318 7  -9767458.66026  23284646.666
 -15355006.746 7 -11964934.38524  23924729.971
 -13387255.865 9 -10431603.51529  22521005.419
  -6520790.877 6  -5081116.09223  23890012.798
 -19064745.841 9 -14855627.60929  22050621.468
 92  5  9  7 23 30.0050000  0  5G21G28G17G 3G23
 -12592244.595 7  -9812130.79626  23273740.210
 -15427765.760 7 -12021629.71825  23910887.935
 -13338297.959 9 -10393454.50729  22530319.682
  -6416167.794 6  -4999591.63424  23909920.495
 -19050552.652 8 -14844567.97029  22053320.493
 92  5  9  7 24  0.0050000  0  5G21G28G17G 3G23
 -12649246.959 7  -9856548.19225  23262891.026
 -15500184.074 7 -12078059.56225  23897101.390
 -13289088.090 9 -10355109.16029  22539685.807
  -6311147.482 6  -4917757.68824  23929901.378
 -19035950.841 8 -14833189.93229  22056097.765
 92  5  9  7 24 30.0050000  0  5G21G28G17G 3G23
 -12705928.685 7  -9900715.75526  23252101.521
 -15572266.728 7 -12134227.86125  23883389.184
 -13239627.031 9 -10316568.09229  22549097.478
  -6205730.929 6  -4835614.91622  23949958.693
 -19020925.704 8 -14821482.02329  22058957.507
 92  5  9  7 25  0.0050000  0  5G21G28G17G 3G23
 -12762296.071 7  -9944638.36526  23241379.130
 -15643988.994 7 -12190115.34926  23869739.030
 -13189919.020 9 -10277834.57929  22558555.042
  -6099916.758 6  -4753162.36822  23970099.351
 -19005482.450 8 -14809448.30829  22061896.682
 92  5  9  7 25 30.0050000  0  5G21G28G17G 3G23
 -12818355.266 7  -9988320.83127  23230711.917
 -15715334.968 7 -12245709.60324  23856163.808
 -13139958.165 8 -10238904.04129  22568062.653
  -5993715.539 6  -4670408.17524  23990302.654
 -18989635.611 8 -14797100.11429  22064911.975
 92  5  9  7 26  0.0050000  0  5G21G28G17G 3G23
 -12874093.447 7 -10031753.15327  23220103.162
 -15786296.512 7 -12301004.31025  23842656.362
 -13089727.065 9 -10199762.92229  22577622.720
  -5887129.083 6  -4587353.85623  24010589.300
 -18973388.158 8 -14784439.76729  22068002.234
 92  5  9  7 26 30.0050000  0  5G21G28G17G 3G23
 -12929494.976 7 -10074923.14726  23209564.242
 -15856857.278 7 -12355986.71424  23829234.353
 -13039213.232 9 -10160401.50829  22587234.370
  -5780148.165 6  -4503992.10923  24030946.724
 -18956732.704 8 -14771461.47729  22071173.462
 92  5  9  7 27  0.0050000  0  5G21G28G17G 3G23
 -12984564.411 7 -10117834.37026  23199080.501
 -15927016.239 7 -12410656.01925  23815879.527
 -12988428.311 9 -10120828.83729  22596897.603
  -5672782.356 6  -4420330.45723  24051380.860
 -18939679.800 8 -14758173.50029  22074418.400
 92  5  9  7 27 30.0050000  0  5G21G28G17G 3G23
 -13039302.576 7 -10160487.45726  23188667.816
 -15996768.845 7 -12465008.69126  23802605.914
 -12937362.086 9 -10081036.98729  22606618.665
  -5565029.925 6  -4336367.57123  24071880.084
 -18922232.604 8 -14744578.27329  22077739.490
 92  5  9  7 28  0.0050000  0  5G21G28G17G 3G23
 -13093720.458 7 -10202890.97627  23178309.681
 -16066119.562 7 -12519048.20225  23789412.328
 -12886026.229 8 -10041035.02329  22616385.901
  -5456894.012 6  -4252105.85823  24092459.929
 -18904404.861 8 -14730686.51929  22081131.359
 92  5  9  7 28 30.0050000  0  5G21G28G17G 3G23
 -13147818.262 7 -10245045.08326  23168016.914
 -16135064.565 7 -12572771.58726  23776292.521
 -12834418.271 8 -10000821.03229  22626206.814
  -5348370.072 6  -4167541.77223  24113113.553
 -18886196.484 8 -14716498.17429  22084594.564
 92  5  9  7 29  0.0050000  0  5G21G28G17G 3G23
 -13201592.016 7 -10286946.68827  23157785.014
 -16203593.070 7 -12626170.42726  23763245.552
 -12782542.720 9  -9960398.53129  22636077.181
  -5239463.726 6  -4082679.70623  24133833.103
 -18867623.646 8 -14702025.82129  22088128.791
 92  5  9  7 29 30.0050000  0  5G21G28G17G 3G23
 -13255038.429 7 -10328593.22127  23147615.132
 -16271706.962 7 -12679246.18225  23750285.833
 -12730397.469 8  -9919765.87329  22646002.411
  -5130176.816 6  -3997521.11224  24154634.182
 -18848683.925 8 -14687267.59129  22091731.703
 92  5  9  7 30  0.0050000  0  5G21G28G17G 3G23
 -13308150.918 7 -10369979.55227  23137501.055
 -16339417.127 7 -12732007.33825  23737401.325
 -12677991.465 8  -9878930.03729  22655971.406
  -5020515.085 6  -3912070.48923  24175499.756
 -18829362.107 8 -14672211.62729  22095410.453
 92  5  9  7 30 30.0050000  0  5G21G28G17G 3G23
 -13360933.843 7 -10411109.07526  23127464.004
 -16406729.137 7 -12784458.24725  23724595.692
 -12625326.897 8  -9837892.71729  22665994.671
  -4910481.347 6  -3826329.93623  24196443.542
 -18809653.081 8 -14656853.93229  22099164.170
 92  5  9  7 31  0.0050000  0  5G21G28G17G 3G23
 -13413391.134 7 -10451984.86527  23117478.815
 -16473635.674 7 -12836593.21725  23711864.118
 -12572392.854 8  -9796645.41029  22676065.297
  -4800072.033 6  -3740296.70822  24217451.196
 -18789556.833 8 -14641194.51429  22102988.315
 92  5  9  7 31 30.0050000  0  5G21G28G17G 3G23
 -13465545.530 7 -10492624.63827  23107556.587
 -16540163.931 7 -12888433.41525  23699205.381
 -12519190.312 8  -9755188.89729  22686188.063
  -4689296.386 6  -3653978.06723  24238526.906
 -18769078.977 8 -14625237.73629  22106882.610
 92  5  9  7 32  0.0050000  0  5G21G28G17G 3G23
 -13517400.496 7 -10533031.08426  23097684.719
 -16606303.534 7 -12939970.75826  23686614.700
 -12465713.713 8  -9713518.82128  22696370.231
  -4578152.010 6  -3567372.12124  24259681.770
 -18748225.067 8 -14608987.93429  22110849.778
 92  5  9  7 32 30.0050000  0  5G21G28G17G 3G23
 -13568947.039 7 -10573197.20426  23087879.407
 -16672038.019 7 -12991192.42526  23674106.768
 -12411952.303 8  -9671626.82128  22706599.164
  -4466636.270 6  -3480476.77923  24280903.469
 -18727001.712 8 -14592450.24429  22114889.782
 92  5  9  7 33  0.0050000  0  5G21G28G17G 3G23
 -13620176.086 7 -10613115.92127  23078127.143
 -16737364.977 7 -13042096.55626  23661677.676
 -12357918.117 8  -9629522.26429  22716882.333
  -4354758.346 6  -3393299.18023  24302190.256
 -18705405.957 8 -14575622.37729  22118998.436
 92  5  9  7 33 30.0050000  0  5G21G28G17G 3G23
 -13671073.683 7 -10652776.36927  23068440.842
 -16802266.532 7 -13092669.18926  23649329.204
 -12303626.374 8  -9587217.02528  22727208.674
  -4242518.962 6  -3305839.97422  24323548.974
 -18683421.821 8 -14558491.87429  22123181.742
 92  5  9  7 34  0.0050000  0  5G21G28G17G 3G23
 -13721622.206 7 -10692164.81126  23058829.506
 -16866719.695 7 -13142892.43226  23637062.015
 -12249077.350 8  -9544711.30328  22737593.194
  -4129918.751 6  -3218099.63224  24344975.119
 -18661038.140 9 -14541050.04729  22127443.888
 92  5  9  7 34 30.0050000  0  5G21G28G17G 3G23
 -13771809.959 7 -10731272.13027  23049272.720
 -16930720.595 7 -13192763.25227  23624881.728
 -12194271.156 8  -9502005.18128  22748021.479
  -4016957.304 6  -3130077.75223  24366469.634
 -18638252.064 8 -14523294.65629  22131779.499
 92  5  9  7 35  0.0050000  0  5G21G28G17G 3G23
 -13821653.207 7 -10770110.99527  23039789.678
 -16994268.987 7 -13242281.46826  23612788.413
 -12139206.806 8  -9459097.90229  22758502.813
  -3903636.936 6  -3041776.19123  24388035.800
 -18615062.994 8 -14505225.24529  22136189.134
 92  5  9  7 35 30.0050000  0  5G21G28G17G 3G23
 -13871159.333 8 -10808687.18327  23030372.005
 -17057359.562 7 -13291442.94626  23600784.408
 -12083874.664 8  -9415981.95928  22769029.133
  -3789961.545 6  -2953197.99424  24409670.336
 -18591473.588 8 -14486843.88029  22140681.239
 92  5  9  7 36  0.0050000  0  5G21G28G17G 3G23
 -13920334.376 8 -10847005.37627  23021013.383
 -17119998.824 7 -13340252.75926  23588865.561
 -12028260.379 8  -9372646.15328  22779610.596
  -3675932.214 6  -2864344.05623  24431369.332
 -18567493.277 8 -14468157.92529  22145243.180
 92  5  9  7 36 30.0050000  0  5G21G28G17G 3G23
 -13969205.253 7 -10885086.55828  23011711.440
 -17182204.623 7 -13388724.80527  23577024.052
 -11972373.421 8  -9329097.87928  22790249.645
  -3561561.372 6  -2775223.92522  24453130.661
 -18543137.142 8 -14449179.10329  22149874.956
 92  5  9  7 37  0.0050000  0  5G21G28G17G 3G23
 -14017760.688 8 -10922921.95127  23002472.422
 -17243961.130 7 -13436846.75727  23565274.297
 -11916208.883 8  -9285333.32829  22800934.553
  -3446836.461 6  -2685827.95323  24474959.139
 -18518384.241 8 -14429891.12729  22154590.110
 92  5  9  7 37 30.0050000  0  5G21G28G17G 3G23
 -14065997.218 7 -10960508.82927  22993292.770
 -17305274.175 7 -13484623.15026  23553606.977
 -11859781.846 8  -9241364.20828  22811671.009
  -3331765.017 6  -2596161.92124  24496856.579
 -18493248.912 8 -14410305.15029  22159374.785
 92  5  9  7 38  0.0050000  0  5G21G28G17G 3G23
 -14113910.052 7 -10997843.48427  22984173.984
 -17366156.681 7 -13532064.05826  23542022.091
 -11803096.472 8  -9197193.78828  22822459.641
  -3216348.332 6  -2506226.88724  24518824.484
 -18467754.771 8 -14390439.59129  22164223.921
 92  5  9  7 38 30.0050000  0  5G21G28G17G 3G23
 -14161477.515 8 -11034909.01727  22975125.348
 -17426609.115 7 -13579169.85026  23530519.362
 -11746157.080 8  -9152825.43728  22833295.633
  -3100585.999 6  -2416022.52623  24540852.313
 -18441909.715 8 -14370300.57929  22169139.019
 92  5  9  7 39  0.0050000  0  5G21G28G17G 3G23
 -14208671.053 7 -11071683.18427  22966139.987
 -17486616.751 7 -13625929.03526  23519096.379
 -11688965.163 8  -9108260.32228  22844179.298
  -2984480.638 6  -2325550.80523  24562941.636
 -18415734.450 8 -14349904.26929  22174122.173
 92  5  9  7 39 30.0050000  0  5G21G28G17G 3G23
 -14255494.609 8 -11108169.05827  22957234.338
 -17546173.706 7 -13672337.04926  23507763.929
 -11631502.951 8  -9063484.57728  22855110.045
  -2868037.406 6  -2234815.87923  24585107.077
 -18389250.485 8 -14329267.40729  22179163.471
 92  5  9  7 40  0.0050000  0  6G21G28G17G11G 3G23
 -14301949.910 8 -11144367.97427  22948395.245
 -17605280.336 7 -13718394.15926  23496517.193
 -11573760.734 8  -9018490.64928  22866098.622
  -1867100.263 5  -1454883.15721  26791033.948
  -2751262.914 6  -2143822.82522  24607322.007
 -18362460.558 8 -14308392.14529  22184258.446
 92  5  9  7 40 30.0050000  0  6G21G28G17G11G 3G23
 -14348046.356 7 -11180287.25727  22939618.832
 -17663913.871 8 -13764082.62926  23485362.526
 -11515734.605 8  -8973275.48829  22877141.783
  -1966664.336 5  -1532465.50622  26772086.781
  -2634152.458 6  -2052568.04021  24629606.179
 -18335341.165 8 -14287260.13929  22189421.791
 92  5  9  7 41  0.0050000  0  6G21G28G17G11G 3G23
 -14393812.979 8 -11215949.54427  22930911.976
 -17722065.187 8 -13809395.34426  23474296.296
 -11457421.184 8  -8927836.47528  22888238.585
  -2066247.259 4  -1610062.53322  26753135.984
  -2516709.225 6  -1961053.79521  24651956.592
 -18307878.360 8 -14265860.55329  22194648.062
 92  5  9  7 41 30.0050000  0  6G21G28G17G11G 3G23
 -14439282.415 8 -11251380.25728  22922258.448
 -17779747.745 8 -13854342.78626  23463318.189
 -11398829.950 8  -8882180.96529  22899389.379
  -2165849.845 5  -1687674.90822  26734190.597
  -2398938.244 6  -1869284.24222  24674367.000
 -18280049.003 8 -14244175.33829  22199944.203
 92  5  9  7 42  0.0050000  0  6G21G28G17G11G 3G23
 -14484452.018 8 -11286577.32227  22913665.786
 -17836969.188 7 -13898930.92226  23452427.613
 -11339973.496 8  -8836318.80128  22910589.627
  -2265470.772 5  -1765301.58122  26715228.737
  -2280842.438 6  -1777261.60622  24696843.648
 -18251832.252 8 -14222188.25629  22205311.087
 92  5  9  7 42 30.0050000  0  6G21G28G17G11G 3G23
 -14529312.393 8 -11321533.44628  22905131.304
 -17893717.658 8 -13943150.50426  23441632.385
 -11280860.627 8  -8790256.84528  22921839.329
  -2365102.112 5  -1842936.3472   26696268.342
  -2162418.676 6  -1684983.42923  24719382.628
 -18223215.063 8 -14199889.14129  22210756.497
 92  5  9  7 43  0.0050000  0  6G21G28G17G11G 3G23
 -14573849.841 8 -11356237.93927  22896648.683
 -17949996.532 8 -13987004.17426  23430921.999
 -11221495.723 8  -8743998.48328  22933135.518
  -2464744.388 5  -1920579.59821  26677307.669
  -2043671.473 6  -1592453.17422  24741972.005
 -18194202.757 8 -14177282.14429  22216280.189
 92  5  9  7 43 30.0050000  0  6G21G28G17G11G 3G23
 -14618036.804 8 -11390669.31828  22888244.588
 -18005813.101 7 -14030497.60626  23420296.178
 -11161875.526 8  -8697541.19228  22944479.660
  -2564392.813 4  -1998227.68322  26658337.711
  -1924600.323 6  -1499670.48023  24764633.905
 -18164798.396 8 -14154369.65929  22221874.903
 92  5  9  7 44  0.0050000  0  6G21G28G17G11G 3G23
 -14661853.972 8 -11424812.54427  22879908.864
 -18061160.859 7 -14073625.73126  23409768.043
 -11102006.025 8  -8650889.64828  22955871.476
  -2664046.285 5  -2075879.64422  26639378.538
  -1805208.709 6  -1406638.13422  24787351.575
 -18135016.007 9 -14131162.60629  22227541.582
 92  5  9  7 44 30.0050000  0  6G21G28G17G11G 3G23
 -14705304.230 8 -11458669.87627  22871637.879
 -18116036.133 7 -14116385.68726  23399323.599
 -11041894.771 8  -8604049.72528  22967308.279
  -2763703.757 5  -2153534.81322  26620415.771
  -1685500.338 6  -1313358.98423  24810131.892
 -18104872.789 8 -14107674.37529  22233275.724
 92  5  9  7 45  0.0050000  0  6G21G28G17G11G 3G23
 -14748394.452 8 -11492246.65028  22863437.359
 -18170441.406 8 -14158779.40226  23388975.061
 -10981534.165 8  -8557015.48827  22978796.002
  -2863361.971 5  -2231190.55122  26601453.910
  -1565475.876 6  -1219833.49624  24832974.891
 -18074373.427 9 -14083908.63729  22239081.202
 92  5  9  7 45 30.0050000  0  6G21G28G17G11G 3G23
 -14791135.169 8 -11525551.09128  22855305.208
 -18224368.838 8 -14200800.78226  23378710.145
 -10920924.591 8  -8509787.25028  22990331.119
  -2963021.844 5  -2308847.52722  26582485.140
  -1445141.072 6  -1126066.17922  24855868.250
 -18043523.472 8 -14059869.70929  22244953.549
 92  5  9  7 46  0.0050000  0  6G21G28G17G11G 3G23
 -14833539.648 8 -11558593.52628  22847233.575
 -18277798.197 8 -14242434.05127  23368538.797
 -10860053.630 8  -8462355.34328  23001914.190
  -3062677.431 4  -2386501.19122  26563520.871
  -1324494.312 6  -1032055.75423  24878835.354
 -18012327.206 8 -14035560.92429  22250890.916
 92  5  9  7 46 30.0050000  0  6G21G28G17G11G 3G23
 -14875628.424 8 -11591389.95527  22839224.344
 -18330731.018 7 -14283680.41026  23358467.579
 -10798901.540 8  -8414704.38127  23013555.160
  -3162329.104 5  -2464151.80622  26544558.976
  -1203540.741 6   -937806.26822  24901843.501
 -17980794.456 9 -14010989.95029  22256888.870
 92  5  9  7 47  0.0050000  0  6G21G28G17G11G 3G23
 -14917412.944 8 -11623949.31028  22831273.536
 -18383163.094 8 -14324536.57426  23348493.767
 -10737448.714 8  -8366819.07227  23025247.958
  -3261972.369 5  -2541795.88522  26525599.803
  -1082280.401 6   -843317.78223  24924925.428
 -17948934.888 8 -13986164.30129  22262949.470
 92  5  9  7 47 30.0050000  0  6G21G28G17G11G 3G23
 -14958883.601 8 -11656264.09127  22823378.220
 -18435078.322 8 -14364990.01127  23338612.616
 -10675676.849 8  -8318685.15428  23037001.308
  -3361596.007 5  -2619424.71021  26506639.444
   -960706.378 6   -748584.87322  24948058.623
 -17916741.469 9 -13961078.52629  22269078.126
 92  5  9  7 48  0.0050000  0  6G21G28G17G11G 3G23
 -15000054.902 8 -11688345.60028  22815549.110
 -18486504.112 7 -14405062.06027  23328829.187
 -10613602.371 8  -8270315.44627  23048812.523
  -3461209.657 5  -2697045.69422  26487681.771
   -838833.013 6   -653618.64122  24971252.056
 -17884230.765 9 -13935745.50229  22275266.741
 92  5  9  7 48 30.0050000  0  6G21G28G17G11G 3G23
 -15040917.610 8 -11720186.66428  22807771.025
 -18537440.678 8 -14444752.89427  23319135.381
 -10551250.050 8  -8221729.23727  23060681.637
  -3560812.669 5  -2774658.38322  26468731.568
   -716664.316 5   -558422.32223  24994493.757
 -17851395.127 9 -13910159.29429  22281514.722
 92  5  9  7 49  0.0050000  0  6G21G28G17G11G 3G23
 -15081447.704 8 -11751768.53027  22800060.332
 -18587878.182 8 -14484054.84926  23309536.959
 -10488645.068 8  -8172946.13927  23072591.481
  -3660400.306 5  -2852259.05724  26449777.804
   -594200.220 6   -462995.81822  25017805.642
 -17818219.644 8 -13884308.26129  22287823.255
 92  5  9  7 49 30.0050000  0  6G21G28G17G11G 3G23
 -15121612.646 8 -11783065.87927  22792417.450
 -18637812.837 8 -14522964.97326  23300036.537
 -10425804.212 8  -8123979.25828  23084547.183
  -3759966.367 5  -2929843.06022  26430835.698
   -471438.945 6   -367337.78022  25041151.975
 -17784680.838 9 -13858174.13629  22294209.127
 92  5  9  7 50  0.0060000  0  6G21G28G17G11G 3G23
 -15161407.627 8 -11814074.93928  22784844.984
 -18687249.809 8 -14561487.29727  23290628.726
 -10362743.739 8  -8074841.22427  23096555.083
  -3859513.311 5  -3007412.06222  26411888.830
   -348380.583 6   -271448.19021  25064574.759
 -17750787.665 8 -13831763.87329  22300655.886
 92  5  9  7 50 30.0060000  0  6G21G28G17G11G 3G23
 -15200824.562 8 -11844789.40927  22777348.964
 -18736171.840 8 -14599608.36726  23281314.777
 -10299463.076 8  -8025531.63428  23108591.754
  -3959036.453 5  -3084962.53922  26392951.540
   -225039.577 6   -175338.38521  25088050.886
 -17716538.964 8 -13805076.57229  22307173.962
 92  5  9  7 51  0.0060000  0  6G21G28G17G11G 3G23
 -15239860.729 8 -11875207.18928  22769916.811
 -18784579.948 8 -14637328.96926  23272105.774
 -10235931.698 8  -7976026.67227  23120679.694
  -4058530.036 5  -3162489.93923  26374014.843
   -101407.580 6    -79001.80321  25111571.721
 -17681933.182 9 -13778111.01929  22313759.220
 92  5  9  7 51 30.0060000  0  6G21G28G17G11G 3G23
 -15278535.249 8 -11905343.16928  22762555.995
 -18832478.358 8 -14674652.41227  23262990.583
 -10172135.797 8  -7926315.58527  23132825.779
  -4157997.430 5  -3239997.01122  26355084.742
     22506.984 5     17554.93323  25135157.295
 -17646989.627 9 -13750882.28229  22320409.219
 92  5  9  7 52  0.0060000  0  6G21G28G17G11G 3G23
 -15316858.695 8 -11935205.57727  22755261.770
 -18879850.441 8 -14711565.74027  23253976.114
 -10108062.472 8  -7876388.32728  23145009.032
  -4257436.233 5  -3317481.74622  26336173.243
    146701.942 5    114330.14322  25158786.321
 -17611723.155 9 -13723401.91629  22327121.271
 92  5  9  7 52 30.0060000  0  6G21G28G17G11G 3G23
 -15354839.447 8 -11964800.95127  22748035.565
 -18926689.484 8 -14748063.70127  23245060.868
 -10043701.979 8  -7826237.30328  23157256.468
  -4356845.653 5  -3394943.61922  26317240.141
    271173.400 5    211320.73922  25182473.526
 -17576131.831 9 -13695668.41429  22333891.781
 92  5  9  7 53  0.0060000  0  6G21G28G17G11G 3G23
 -15392488.583 8 -11994137.92528  22740869.912
 -18973008.101 8 -14784156.13626  23236249.380
  -9979060.334 8  -7775867.20028  23169563.548
  -4456224.786 5  -3472381.84822  26298337.646
    395917.474 6    308523.92122  25206217.688
 -17540233.742 9 -13667695.86829  22340725.251
 92  5  9  7 53 30.0060000  0  6G21G28G17G11G 3G23
 -15429801.221 8 -12023212.68228  22733767.254
 -19018789.256 8 -14819829.77126  23227535.614
  -9914143.812 8  -7725282.89927  23181915.894
  -4555568.154 5  -3549792.25521  26279437.525
    520934.700 6    405939.90822  25230006.837
 -17504027.818 9 -13639483.46629  22347614.178
 92  5  9  7 54  0.0060000  0  6G21G28G17G11G 3G23
 -15466769.852 8 -12052019.39928  22726733.805
 -19064030.815 8 -14855082.94627  23218926.165
  -9848953.780 8  -7674485.49027  23194320.102
  -4654867.080 5  -3627168.00722  26260535.902
    646228.978 5    503571.71822  25253853.223
 -17467496.928 9 -13611017.82629  22354567.846
 92  5  9  7 54 30.0060000  0  6G21G28G17G11G 3G23
 -15503401.830 8 -12080563.79028  22719763.943
 -19108750.404 8 -14889929.37227  23210418.347
  -9783495.383 8  -7623478.96227  23206776.172
  -4754121.586 5  -3704509.13922  26241652.289
    771795.393 5    601415.59122  25277741.873
 -17430631.017 9 -13582291.14429  22361579.099
 92  5  9  7 55  0.0060000  0  6G21G28G17G11G 3G23
 -15539689.710 8 -12108840.03728  22712857.322
 -19152948.887 8 -14924369.75427  23202006.469
  -9717777.914 8  -7572270.54327  23219280.824
  -4853329.734 5  -3781814.14622  26222778.238
    897631.038 5    699469.25521  25301686.608
 -17393421.746 9 -13553296.90929  22368662.003
 92  5  9  7 55 30.0060000  0  6G21G28G17G11G 3G23
 -15575625.221 8 -12136841.71328  22706019.942
 -19196614.436 8 -14958394.86428  23193698.944
  -9651804.852 7  -7520862.97327  23231832.521
  -4952492.718 5  -3859083.99423  26203896.404
   1023729.973 5    797728.06921  25325687.079
 -17355867.605 9 -13524033.94729  22375807.867
 92  5  9  7 56  0.0060000  0  6G21G28G17G11G 3G23
 -15611213.942 8 -12164573.16628  22699248.246
 -19239751.988 8 -14992008.55127  23185490.327
  -9585577.457 8  -7469257.21527  23244439.710
  -5051601.173 5  -3936311.34121  26185040.676
   1150096.460 6    896195.44522  25349727.755
 -17317968.549 9 -13494502.20529  22383016.970
 92  5  9  7 56 30.0060000  0  6G21G28G17G11G 3G23
 -15646466.182 8 -12192042.43128  22692537.974
 -19282360.365 8 -15025209.88527  23177380.338
  -9519098.330 8  -7417455.29928  23257091.851
  -5150658.104 5  -4013498.50722  26166194.511
   1276722.628 5    994865.12922  25373830.764
 -17279740.846 9 -13464714.38629  22390294.409
 92  5  9  7 57  0.0060000  0  6G21G28G17G11G 3G23
 -15681377.328 8 -12219245.91628  22685895.793
 -19324413.110 8 -15057978.26326  23169377.982
  -9452364.022 8  -7365454.55526  23269791.945
  -5249658.558 5  -4090641.71722  26147349.253
   1403608.612 5   1093737.18822  25397968.254
 -17241197.951 9 -13434680.95329  22397629.434
 92  5  9  7 57 30.0060000  0  6G21G28G17G11G 3G23
 -15715961.336 8 -12246194.46928  22679311.442
 -19365905.143 8 -15090309.71527  23161481.445
  -9385365.546 8  -7313247.95527  23282540.620
  -5348596.319 5  -4167736.07822  26128523.784
   1530755.496 5   1192812.60922  25422166.297
 -17202357.494 9 -13404415.67729  22405019.636
 92  5  9  7 58  0.0060000  0  6G21G28G17G11G 3G23
 -15750232.986 8 -12272899.63227  22672792.459
 -19406846.951 8 -15122212.43027  23153693.133
  -9318102.265 8  -7260835.01927  23295336.376
  -5447472.059 5  -4244782.07223  26109709.133
   1658157.650 5   1292086.86922  25446412.606
 -17163211.850 9 -13373912.57329  22412470.984
 92  5  9  7 58 30.0060000  0  6G21G28G17G11G 3G23
 -15784176.617 8 -12299349.19929  22666336.716
 -19447223.650 8 -15153674.79228  23146009.139
  -9250550.446 8  -7208197.25027  23308190.870
  -5546283.767 5  -4321778.18622  26090906.733
   1785812.106 5   1391557.84922  25470708.405
 -17123755.408 9 -13343167.29429  22419978.381
 92  5  9  7 59  0.0060000  0  6G21G28G17G11G 3G23
 -15817784.290 8 -12325536.98028  22659940.339
 -19487042.951 8 -15184702.82228  23138429.812
  -9182718.799 8  -7155341.44027  23321101.134
  -5645025.998 5  -4398720.16522  26072113.058
   1913719.446 5   1491225.86422  25495038.650
 -17083982.251 9 -13312175.22129  22427546.645
 92  5  9  7 59 30.0060000  0  6G21G28G17G11G 3G23
 -15851063.523 8 -12351468.84129  22653608.737
 -19526342.659 7 -15215325.97527  23130949.392
  -9114623.710 8  -7102280.32627  23334062.353
  -5743704.329 5  -4475612.32723  26053344.546
   2041868.977 5   1591082.53821  25519429.762
 -17043885.701 9 -13280931.16429  22435173.054
 92  5  9  8  0  0.0060000  0  6G21G28G17G11G 3G23
 -15883985.985 8 -12377122.68828  22647341.561
 -19565115.789 8 -15245538.81627  23123571.789
  -9046266.241 8  -7049014.78527  23347072.467
  -5842310.188 5  -4552448.03822  26034568.845
   2170264.045 6   1691130.56022  25543859.264
 -17003447.211 9 -13249420.64429  22442869.612
 92  5  9  8  0 30.0060000  0  6G21G28G17G11G 3G23
 -15916551.252 8 -12402498.19228  22641145.757
 -19603373.021 8 -15275349.64027  23116298.817
  -8977663.263 8  -6995557.93027  23360124.218
  -5940844.876 5  -4629228.30422  26015823.437
   2298898.441 5   1791365.03623  25568328.029
 -16962684.139 9 -13217657.20729  22450630.352
 92  5  9  8  1  0.0060000  0  6G21G28G17G11G 3G23
 -15948759.796 8 -12427595.75229  22635017.100
 -19641104.090 8 -15304750.48028  23109114.283
  -8908816.978 8  -6941911.47826  23373223.364
  -6039294.868 5  -4705942.56622  25997089.686
   2427780.597 5   1891792.59721  25592865.443
 -16921588.391 9 -13185634.56029  22458447.456
 92  5  9  8  1 30.0060000  0  6G21G28G17G11G 3G23
 -15980620.822 8 -12452422.49928  22628951.405
 -19678299.033 8 -15333733.55127  23102036.510
  -8839723.178 7  -6888072.17027  23386368.054
  -6137666.021 5  -4782595.39623  25978370.663
   2556899.438 5   1992404.63522  25617436.432
 -16880183.154 9 -13153370.73129  22466327.486
 92  5  9  8  2  0.0060000  0  6G21G28G17G11G 3G23
 -16012139.045 8 -12476982.14429  22622952.543
 -19714926.238 8 -15362274.23828  23095066.614
  -8770373.675 8  -6834033.60226  23399568.830
  -6235960.494 5  -4859188.46224  25959667.799
   2686247.767 5   2093195.48921  25642058.689
 -16838489.895 9 -13120882.47429  22474261.786
 92  5  9  8  2 30.0060000  0  6G21G28G17G11G 3G23
 -16043317.868 8 -12501277.31629  22617020.865
 -19750968.385 8 -15390359.02528  23088207.980
  -8700751.554 8  -6779782.61326  23412819.653
  -6334170.461 5  -4935715.68521  25940980.535
   2815828.352 5   2194167.30121  25666698.013
 -16796510.731 9 -13088171.43629  22482248.855
 92  5  9  8  3  0.0060000  0  6G21G28G17G11G 3G23
 -16074146.146 8 -12525299.32529  22611156.929
 -19786396.017 8 -15417964.97728  23081463.820
  -8630840.498 8  -6725306.47426  23426119.022
  -6432285.985 5  -5012169.33122  25922304.056
   2945646.023 5   2295323.78622  25691407.800
 -16754240.061 9 -13055233.25229  22490292.882
 92  5  9  8  3 30.0060000  0  6G21G28G17G11G 3G23
 -16104621.519 8 -12549046.35328  22605358.047
 -19821212.706 8 -15445094.87828  23074837.833
  -8560660.427 7  -6670620.72326  23439474.197
  -6530309.794 6  -5088551.49022  25903651.867
   3075692.629 5   2396658.72522  25716166.483
 -16711684.921 8 -13022073.38729  22498391.772
 92  5  9  8  4  0.0060000  0  6G21G28G17G11G 3G23
 -16134739.169 8 -12572514.63329  22599621.812
 -19855430.025 8 -15471757.73127  23068330.228
  -8490221.718 8  -6615733.41726  23452878.512
  -6628245.141 6  -5164864.75623  25885019.781
   3205960.060 5   2498165.73022  25740950.609
 -16668829.969 9 -12988679.93129  22506545.526
 92  5  9  8  4 30.0060000  0  6G21G28G17G11G 3G23
 -16164499.010 8 -12595704.09929  22593967.732
 -19889071.981 8 -15497972.24628  23061926.068
  -8419535.252 8  -6560653.06727  23466331.409
  -6726087.278 5  -5241105.38522  25866393.977
   3336447.525 5   2599844.14622  25765783.909
 -16625666.200 9 -12955045.81829  22514760.146
 92  5  9  8  5  0.0060000  0  6G21G28G17G11G 3G23
 -16193912.461 8 -12618623.66528  22588364.292
 -19922146.500 8 -15523744.59427  23055633.414
  -8348611.183 7  -6505387.57427  23479824.441
  -6823830.569 6  -5317268.94523  25847796.652
   3467155.504 5   2701694.49522  25790655.006
 -16582188.565 9 -12921167.14129  22523032.946
 92  5  9  8  5 30.0060000  0  6G21G28G17G11G 3G23
 -16222979.197 8 -12641273.04328  22582828.630
 -19954668.292 8 -15549086.25728  23049445.986
  -8277453.670 7  -6449940.17326  23493363.995
  -6921469.107 6  -5393350.90521  25829216.393
   3598084.987 5   2803717.4142   25815571.055
 -16538398.003 9 -12887044.63429  22531369.264
 92  5  9  8  6  0.0060000  0  6G21G28G17G11G 3G23
 -16251701.544 8 -12663654.07828  22577364.931
 -19986649.181 8 -15574006.43728  23043356.907
  -8206041.568 7  -6394294.37626  23506958.063
  -7019003.962 6  -5469352.10423  25810657.458
   3729229.228 5   2905907.64123  25840520.993
 -16494308.174 9 -12852688.91729  22539757.444
 92  5  9  8  6 30.0060000  0  6G21G28G17G11G 3G23
 -16280103.388 8 -12685785.37428  22571964.752
 -20018098.630 8 -15598512.50828  23037372.774
  -8134376.983 8  -6338451.85326  23520597.712
  -7116439.279 6  -5545275.70722  25792120.685
   3860579.107 5   3008258.09022  25865519.791
 -16449946.294 9 -12818121.22129  22548195.113
 92  5  9  8  7  0.0060000  0  6G21G28G17G11G 3G23
 -16308175.774 8 -12707659.95129  22566616.470
 -20048997.676 8 -15622589.70028  23031493.237
  -8062444.773 7  -6282400.79826  23534277.252
  -7213768.412 6  -5621116.58522  25773597.698
   3992136.033 5   3110769.93922  25890548.254
 -16405315.300 9 -12783343.82429  22556693.334
 92  5  9  8  7 30.0060000  0  6G21G28G17G11G 3G23
 -16335883.976 8 -12729250.74828  22561345.213
 -20079320.321 8 -15646217.73528  23025724.928
  -7990211.156 8  -6226114.86426  23548029.629
  -7310976.686 6  -5696863.27422  25755098.722
   4123909.198 5   3213450.22721  25915624.671
 -16360406.045 9 -12748349.60229  22565240.415
 92  5  9  8  8  0.0060000  0  6G21G28G17G11G 3G23
 -16363246.803 8 -12750572.41829  22556141.104
 -20109061.357 8 -15669392.57428  23020064.252
  -7917684.295 7  -6169600.43926  23561831.180
  -7408076.887 6  -5772525.75323  25736616.812
   4255880.492 5   3316284.93122  25940745.795
 -16315218.511 9 -12713138.54329  22573836.358
 92  5  9  8  8 30.0060000  0  6G21G28G17G11G 3G23
 -16390259.586 8 -12771621.31928  22550999.363
 -20138190.648 8 -15692090.72928  23014518.677
  -7844872.063 7  -6112863.65226  23575690.283
  -7505058.840 6  -5848096.10722  25718162.195
   4388055.004 5   3419277.97222  25965895.398
 -16269732.535 9 -12677694.92829  22582491.980
 92  5  9  8  9  0.0060000  0  6G21G28G17G11G 3G23
 -16416910.520 8 -12792388.27129  22545929.865
 -20166691.392 8 -15714299.10728  23009096.336
  -7771788.746 7  -6055915.63226  23589592.278
  -7601923.704 6  -5923575.20423  25699732.741
   4520426.094 5   3522424.16723  25991084.857
 -16223944.336 9 -12642015.80829  22591203.338
 92  5  9  8  9 30.0060000  0  6G21G28G17G11G 3G23
 -16443202.368 8 -12812875.40629  22540924.828
 -20194561.993 8 -15736016.45528  23003794.820
  -7698448.230 7  -5998767.19326  23603550.288
  -7698665.188 6  -5998958.17123  25681317.386
   4652994.951 5   3625724.47821  26016307.890
 -16177841.437 9 -12606091.47729  22599978.564
 92  5  9  8 10  0.0060000  0  6G21G28G17G11G 3G23
 -16469143.249 8 -12833089.06429  22535990.849
 -20221810.873 8 -15757249.35629  22998607.778
  -7624876.502 7  -5941438.57626  23617548.818
  -7795277.012 6  -6074240.11523  25662946.111
   4785762.269 5   3729179.4482   26041569.000
 -16131423.586 9 -12569921.72829  22608811.934
 92  5  9  8 10 30.0060000  0  6G21G28G17G11G 3G23
 -16494738.110 8 -12853033.10929  22531120.424
 -20248457.612 8 -15778013.05629  22993535.000
  -7551085.506 7  -5883939.09526  23631590.485
  -7891762.279 6  -6149423.42123  25644576.337
   4918719.410 5   3832782.32422  26066884.065
 -16084723.991 9 -12533532.44229  22617698.981
 92  5  9  8 11  0.0060000  0  6G21G28G17G11G 3G23
 -16520000.109 8 -12872717.77129  22526310.864
 -20274528.018 8 -15798327.67728  22988578.231
  -7477081.769 7  -5826273.88026  23645675.323
  -7988122.328 6  -6224509.16424  25626244.010
   5051860.001 5   3936528.22722  26092210.230
 -16037757.494 9 -12496935.17329  22626634.923
 92  5  9  8 11 30.0060000  0  6G21G28G17G11G 3G23
 -16544939.393 8 -12892150.96329  22521566.639
 -20300032.910 8 -15818201.60628  22983723.685
  -7402842.794 7  -5768425.34825  23659797.052
  -8084346.109 6  -6299488.74321  25607925.191
   5185189.402 5   4040421.13322  26117587.383
 -15990524.469 9 -12460130.21429  22635624.473
 92  5  9  8 12  0.0060000  0  6G21G28G17G11G 3G23
 -16569549.602 8 -12911327.73529  22516882.372
 -20324968.007 8 -15837631.56028  22978977.400
  -7328352.577 7  -5710381.02525  23673977.552
  -8180431.502 6  -6374360.45422  25589646.541
   5318704.329 5   4144458.61523  26142987.571
 -15943044.731 9 -12423133.01129  22644656.322
 92  5  9  8 12 30.0060000  0  6G21G28G17G11G 3G23
 -16593833.022 8 -12930249.86029  22512264.381
 -20349339.107 8 -15856622.03027  22974338.399
  -7253602.114 7  -5652133.91725  23688199.096
  -8276385.822 6  -6449130.02623  25571384.993
   5452392.038 5   4248630.72422  26168428.558
 -15895315.233 9 -12385941.21129  22653739.439
 92  5  9  8 13  0.0060000  0  6G21G28G17G11G 3G23
 -16617771.301 8 -12948903.05829  22507708.723
 -20373121.518 8 -15875153.78528  22969816.629
  -7178567.690 7  -5593665.55826  23702481.506
  -8372189.391 6  -6523782.16822  25553154.332
   5586266.899 5   4352948.68622  26193898.651
 -15847289.086 9 -12348518.23629  22662881.015
 92  5  9  8 13 30.0060000  0  6G21G28G17G11G 3G23
 -16641352.533 8 -12967278.03929  22503216.653
 -20396299.505 8 -15893214.55428  22965404.272
  -7103248.869 7  -5534975.57526  23716810.089
  -8467840.865 6  -6598315.77323  25534952.429
   5720324.706 5   4457409.33622  26219414.883
 -15798960.098 9 -12310859.28229  22672079.548
 92  5  9  8 14  0.0060000  0  6G21G28G17G11G 3G23
 -16664560.881 8 -12985362.44628  22498804.296
 -20418866.558 8 -15910799.28728  22961110.960
  -7027663.678 7  -5476078.03825  23731190.848
  -8563335.692 6  -6672727.33424  25516784.414
   5854564.687 5   4562011.79221  26244955.092
 -15750313.285 9 -12272952.67129  22681336.225
 92  5  9  8 14 30.0060000  0  6G21G28G17G11G 3G23
 -16687419.902 8 -13003174.66529  22494450.431
 -20440828.332 8 -15927912.35628  22956929.748
  -6951834.247 7  -5416990.18826  23745625.529
  -8658680.872 6  -6747022.25124  25498637.060
   5988974.245 5   4666746.41823  26270536.692
 -15701348.461 9 -12234798.26729  22690651.082
 92  5  9  8 15  0.0060000  0  6G21G28G17G11G 3G23
 -16709935.248 8 -13020719.07429  22490166.996
 -20462166.104 8 -15944539.19028  22952869.955
  -6875773.939 7  -5357722.44326  23760102.230
  -8753870.609 6  -6821196.08022  25480525.688
   6123553.613 4   4771613.30023  26296149.458
 -15652085.348 9 -12196411.42229  22700028.585
 92  5  9  8 15 30.0060000  0  6G21G28G17G11G 3G23
 -16732101.848 8 -13037991.73729  22485948.615
 -20482879.936 8 -15960679.85228  22948929.486
  -6799484.853 7  -5298276.39025  23774617.565
  -8848898.715 6  -6895243.96823  25462442.202
   6258303.693 5   4876613.22923  26321797.300
 -15602555.256 9 -12157816.54729  22709452.889
 92  5  9  8 16  0.0060000  0  6G21G28G17G11G 3G23
 -16753938.063 8 -13055006.96229  22481790.194
 -20502989.305 8 -15976349.47628  22945102.025
  -6722966.748 7  -5238651.91925  23789181.203
  -8943770.116 6  -6969169.71922  25444386.008
   6393213.764 5   4981737.85921  26347468.525
 -15552783.316 9 -12119033.21929  22718925.425
 92  5  9  8 16 30.0060000  0  6G21G28G17G11G 3G23
 -16775444.183 8 -13071764.97129  22477701.608
 -20522478.734 8 -15991536.05529  22941394.796
  -6646194.062 7  -5178829.06226  23803786.791
  -9038477.110 6  -7042967.37622  25426363.702
   6528286.289 5   5086989.10122  26373166.134
 -15502780.238 9 -12080069.78329  22728438.447
 92  5  9  8 17  0.0060000  0  6G21G28G17G11G 3G23
 -16796610.200 8 -13088257.94929  22473675.982
 -20541367.394 8 -16006254.49929  22937797.608
  -6569155.665 7  -5118799.16426  23818443.926
  -9133020.671 6  -7116637.67424  25408379.159
   6663514.396 5   5192361.45821  26398906.322
 -15452556.440 9 -12040934.35629  22737997.920
 92  5  9  8 17 30.0060000  0  6G21G28G17G11G 3G23
 -16817443.312 8 -13104491.54029  22469710.350
 -20559666.213 8 -16020513.32628  22934320.618
  -6491837.713 7  -5058551.41625  23833156.833
  -9227400.881 6  -7190180.69222  25390415.276
   6798892.793 5   5297851.16022  26424668.986
 -15402108.873 9 -12001624.56529  22747596.657
 92  5  9  8 18  0.0060000  0  6G21G28G17G11G 3G23
 -16837937.341 8 -13120460.89929  22465807.051
 -20577356.523 8 -16034297.97828  22930949.724
  -6414228.090 7  -4998076.38726  23847927.640
  -9321603.385 6  -7263585.23923  25372483.782
   6934430.139 5   5403464.56222  26450457.720
 -15351407.155 9 -11962116.74229  22757245.475
 92  5  9  8 18 30.0060000  0  5G21G28G17G11G23
 -16858085.637 8 -13136160.86029  22461975.402
 -20594434.825 8 -16047605.75328  22927701.192
  -6336337.731 7  -4937382.62326  23862748.459
  -9415627.963 6  -7336851.14822  25354589.491
 -15300433.348 9 -11922396.88129  22766943.190
 92  5  9  8 19  0.0060000  0  5G21G28G17G11G23
 -16877887.866 8 -13151591.15229  22458206.992
 -20610906.944 8 -16060441.16828  22924566.539
  -6258187.507 7  -4876486.34125  23877620.861
  -9509474.393 6  -7409978.22722  25336736.836
 -15249184.705 9 -11882462.87829  22776698.734
 92  5  9  8 19 30.0060000  0  5G21G28G17G11G23
 -16897342.036 8 -13166750.23029  22454504.859
 -20626761.541 8 -16072795.40229  22921550.932
  -6179791.875 7  -4815398.85626  23892540.029
  -9603142.956 6  -7482966.72623  25318910.880
 -15197663.847 9 -11842316.75629  22786499.230
 92  5  9  8 20  0.0060000  0  5G21G28G17G11G23
 -16916440.447 8 -13181632.10429  22450872.282
 -20642002.171 8 -16084671.22929  22918653.742
  -6101164.285 7  -4754130.62525  23907500.868
  -9696629.734 6  -7555813.55622  25301117.591
 -15145865.096 9 -11801954.09729  22796356.997
 92  5  9  8 20 30.0060000  0  5G21G28G17G11G23
 -16935177.233 8 -13196232.18229  22447306.539
 -20656622.003 8 -16096063.31628  22915866.279
  -6022313.627 7  -4692688.57725  23922508.789
  -9789933.813 6  -7628518.04023  25283363.286
 -15093794.573 9 -11761379.65729  22806263.067
 92  5  9  8 21  0.0060000  0  5G21G28G17G11G23
 -16953559.646 8 -13210556.13029  22443808.259
 -20670618.277 8 -16106969.49628  22913205.017
  -5943236.488 7  -4631070.02725  23937553.878
  -9883050.502 6  -7701076.50622  25265650.338
 -15041457.572 9 -11720597.56929  22816223.058
 92  5  9  8 21 30.0060000  0  5G21G28G17G11G23
 -16971610.387 8 -13224621.63929  22440373.847
 -20683992.587 8 -16117391.03828  22910659.798
  -5863928.877 7  -4569271.92125  23952647.827
  -9975980.621 6  -7773489.58523  25247962.902
 -14988861.148 9 -11679613.34429  22826235.225
 92  5  9  8 22  0.0060000  0  5G21G28G17G11G23
 -16989338.399 8 -13238435.64728  22436999.394
 -20696726.489 8 -16127313.55928  22908235.369
  -5784374.006 7  -4507281.11726  23967783.448
 -10068709.114 6  -7845745.56623  25230316.823
 -14935989.479 9 -11638414.65229  22836292.972
 92  5  9  8 22 30.0060000  0  5G21G28G17G11G23
 -17006747.103 8 -13252000.86229  22433684.899
 -20708834.802 8 -16136748.61728  22905935.046
  -5704568.135 6  -4445094.72224  23982975.747
 -10161244.602 6  -7917851.15623  25212711.193
 -14882863.633 9 -11597017.86629  22846402.582
 92  5  9  8 23  0.0060000  0  5G21G28G17G11G23
 -17023837.614 8 -13265318.13629  22430432.737
 -20720324.588 8 -16145701.70529  22903744.451
  -5624503.125 7  -4382706.44024  23998210.276
 -10253582.328 6  -7989802.65023  25195140.674
 -14829502.854 9 -11555438.04729  22856558.643
 92  5  9  8 23 30.0060000  0  5G21G28G17G11G23
 -17040592.814 8 -13278374.12229  22427244.443
 -20731187.534 8 -16154166.34328  22901679.183
  -5544171.437 7  -4320110.35924  24013495.201
 -10345710.600 6  -8061590.90724  25177604.008
 -14775913.311 9 -11513679.98629  22866754.875
 92  5  9  8 24  0.0060000  0  5G21G28G17G11G23
 -17056994.977 8 -13291155.01929  22424124.518
 -20741437.074 8 -16162152.99628  22899729.958
  -5463577.228 7  -4257309.67425  24028831.395
 -10437631.855 6  -8133217.84124  25160112.328
 -14722097.080 9 -11471745.23629  22876996.687
 92  5  9  8 24 30.0060000  0  5G21G28G17G11G23
 -17073032.159 8 -13303651.51629  22421071.114
 -20751086.049 8 -16169671.67628  22897888.611
  -5382730.860 7  -4194312.53224  24044214.948
 -10529344.537 6  -8204682.28924  25142659.598
 -14668056.969 9 -11429636.06229  22887280.170
 92  5  9  8 25  0.0060000  0  5G21G28G17G11G23
 -17088724.075 8 -13315878.96529  22418086.394
 -20760120.462 8 -16176711.47728  22896171.999
  -5301648.276 7  -4131131.29326  24059647.642
 -10620843.240 6  -8275979.97023  25125252.133
 -14613778.779 9 -11387341.36329  22897608.326
 92  5  9  8 25 30.0060000  0  5G21G28G17G11G23
 -17104083.265 8 -13327847.15829  22415161.912
 -20768536.225 8 -16183269.21929  22894571.430
  -5220330.858 7  -4067767.09526  24075122.634
 -10712124.720 6  -8347108.41823  25107875.276
 -14559222.772 9 -11344830.18329  22907991.310
 92  5  9  8 26  0.0060000  0  5G21G28G17G11G23
 -17119115.319 8 -13339560.42829  22412306.393
 -20776327.127 8 -16189340.05329  22893085.962
  -5138781.743 7  -4004222.34625  24090634.203
 -10803184.002 6  -8418063.70123  25090549.688
 -14504381.578 9 -11302096.77629  22918426.820
 92  5  9  8 26 30.0060000  0  5G21G28G17G11G23
 -17133828.685 8 -13351025.37629  22409499.735
 -20783474.973 8 -16194909.81029  22891730.569
  -5057003.808 7  -3940499.30326  24106200.635
 -10894016.748 6  -8488842.44622  25073263.956
 -14449268.636 9 -11259151.62329  22928915.657
 92  5  9  8 27  0.0060000  0  4G28G17G11G23
 -20789966.455 8 -16199968.09828  22890489.161
  -4974982.403 7  -3876586.52825  24121805.736
 -10984620.391 6  -8559442.68123  25056024.676
 -14393892.336 9 -11216001.27029  22939452.447
 92  5  9  8 27 30.0060000  0  5G21G28G17G11G23
    -18361.23718    -14297.91129  22404087.585
 -20795812.135 8 -16204523.17428  22889379.606
  -4892709.492 7  -3812477.76525  24137461.478
 -11074996.416 6  -8629865.55323  25038831.291
 -14338275.860 9 -11172663.75929  22950038.133
 92  5  9  8 28  0.0060000  0  5G21G28G17G11G23
    -32067.527 8    -24978.12229  22401480.278
 -20801015.815 8 -16208577.99729  22888392.098
  -4810168.391 7  -3748160.04626  24153170.024
 -11165140.564 6  -8700107.74722  25021672.073
 -14282457.571 9 -11129168.98429  22960657.079
 92  5  9  8 28 30.0060000  0  5G21G28G17G11G23
    -45412.457 8    -35376.76429  22398937.746
 -20805580.143 8 -16212134.61629  22887521.786
  -4727347.759 7  -3683624.49525  24168935.808
 -11255047.368 6  -8770165.01024  25004565.310
 -14226430.485 9 -11085511.51229  22971320.977
 92  5  9  8 29  0.0060000  0  5G21G28G17G11G23
    -58389.482 8    -45488.71129  22396467.738
 -20809508.030 8 -16215195.31429  22886772.020
  -4644255.489 7  -3618877.28825  24184745.949
 -11344713.620 6  -8840034.81023  24987506.501
 -14170176.374 9 -11041677.14829  22982025.081
 92  5  9  8 29 30.0060000  0  5G21G28G17G11G23
    -71008.071 8    -55321.37429  22394066.728
 -20812804.824 8 -16217764.24829  22886146.360
  -4560906.891 7  -3553930.34524  24200609.454
 -11434137.553 7  -8909715.78722  24970489.398
 -14113699.016 9 -10997668.81429  22992774.729
 92  5  9  8 30  0.0060000  0  5G21G28G17G11G23
    -83287.353 8    -64889.63629  22391732.517
 -20815452.327 8 -16219827.23128  22885640.618
  -4477312.219 6  -3488791.67422  24216516.758
 -11523314.851 7  -8979204.58521  24953513.337
 -14056993.560 9 -10953482.74329  23003561.581
